[[{"header":{"parameterUnit":"m.s-1","parameterCategory":1,"la1":30.6,"la2":28.766,"lo1":-90.7593,"lo2":-88.6598,"dy":0.0162,"dx":0.0183,"nx":116,"ny":114,"refTime":"2024-04-21T12:00:00:Z","depth":0,"parameterNumber":2,"parameterNumberName":"U-component_of_WINDS"},"data":[0.0,0.0,0.0,0.0,0.0,0.0,0.0,0.0,0.0,0.0,0.0,0.0,0.0,0.0,0.0,0.0,0.0,0.0,0.0,0.0,0.0,0.0,0.0,0.0,0.0,0.0,0.0,0.0,0.0,0.0,0.0,0.0,0.0,0.0,0.0,0.0,0.0,0.0,0.0,0.0,0.0,0.0,0.0,0.0,0.0,0.0,0.0,0.0,0.0,0.0,0.0,0.0,0.0,0.0,0.0,0.0,0.0,0.0,0.0,0.0,0.0,0.0,0.0,0.0,0.0,0.0,0.0,0.0,0.0,0.0,0.0,0.0,0.0,0.0,0.0,0.0,0.0,0.0,0.0,0.0,0.0,0.0,0.0,0.0,0.0,0.0,0.0,0.0,0.0,0.0,0.0,0.0,0.0,0.0,0.0,0.0,0.0,0.0,0.0,0.0,0.0,0.0,0.0,0.0,0.0,0.0,0.0,0.0,0.0,0.0,0.0,0.0,0.0,0.0,0.0,0.0,0.0,0.0,0.0,0.0,0.0,0.0,0.0,0.0,0.0,0.0,0.0,0.0,0.0,0.0,0.0,0.0,0.0,0.0,0.0,0.0,0.0,0.0,0.0,0.0,0.0,0.0,0.0,0.0,0.0,0.0,0.0,0.0,0.0,0.0,0.0,0.0,0.0,0.0,0.0,0.0,0.0,0.0,0.0,0.0,0.0,0.0,0.0,0.0,0.0,0.0,0.0,0.0,0.0,0.0,0.0,0.0,0.0,0.0,0.0,0.0,0.0,0.0,0.0,0.0,0.0,0.0,0.0,0.0,0.0,0.0,0.0,0.0,0.0,0.0,0.0,0.0,0.0,0.0,0.0,0.0,0.0,0.0,0.0,0.0,0.0,0.0,0.0,0.0,0.0,0.0,0.0,0.0,0.0,0.0,0.0,0.0,0.0,0.0,0.0,0.0,0.0,0.0,0.0,0.0,0.0,0.0,0.0,0.0,0.0,0.0,0.0,0.0,0.0,0.0,0.0,0.0,0.0,0.0,0.0,0.0,0.0,0.0,0.0,0.0,0.0,0.0,0.0,0.0,0.0,0.0,0.0,0.0,0.0,0.0,0.0,0.0,0.0,0.0,0.0,0.0,0.0,0.0,0.0,0.0,0.0,0.0,0.0,0.0,0.0,0.0,0.0,0.0,0.0,0.0,0.0,0.0,0.0,0.0,0.0,0.0,0.0,0.0,0.0,0.0,0.0,0.0,0.0,0.0,0.0,0.0,0.0,0.0,0.0,0.0,0.0,0.0,0.0,0.0,0.0,0.0,0.0,0.0,0.0,0.0,0.0,0.0,0.0,0.0,0.0,0.0,0.0,0.0,0.0,0.0,0.0,0.0,0.0,0.0,0.0,0.0,0.0,0.0,0.0,0.0,0.0,0.0,0.0,0.0,0.0,0.0,0.0,0.0,0.0,0.0,0.0,0.0,0.0,0.0,0.0,0.0,0.0,0.0,0.0,0.0,0.0,0.0,0.0,0.0,0.0,0.0,0.0,0.0,0.0,0.0,0.0,0.0,0.0,0.0,0.0,0.0,0.0,0.0,0.0,0.0,0.0,0.0,0.0,0.0,0.0,0.0,0.0,0.0,0.0,0.0,0.0,0.0,0.0,0.0,0.0,0.0,0.0,0.0,0.0,0.0,0.0,0.0,0.0,0.0,0.0,0.0,0.0,0.0,0.0,0.0,0.0,0.0,0.0,0.0,0.0,0.0,0.0,0.0,0.0,0.0,0.0,0.0,0.0,0.0,0.0,0.0,0.0,0.0,0.0,0.0,0.0,0.0,0.0,0.0,0.0,0.0,0.0,0.0,0.0,0.0,0.0,0.0,0.0,0.0,0.0,0.0,0.0,0.0,0.0,0.0,0.0,0.0,0.0,0.0,0.0,0.0,0.0,0.0,0.0,0.0,0.0,0.0,0.0,0.0,0.0,0.0,0.0,0.0,0.0,0.0,0.0,0.0,0.0,0.0,0.0,0.0,0.0,0.0,0.0,0.0,0.0,0.0,0.0,0.0,0.0,0.0,0.0,0.0,0.0,0.0,0.0,0.0,0.0,0.0,0.0,0.0,0.0,0.0,0.0,0.0,0.0,0.0,0.0,0.0,0.0,0.0,0.0,0.0,0.0,0.0,0.0,0.0,0.0,0.0,0.0,0.0,0.0,0.0,0.0,0.0,0.0,0.0,0.0,0.0,0.0,0.0,0.0,0.0,0.0,0.0,0.0,0.0,0.0,0.0,0.0,0.0,0.0,0.0,0.0,0.0,0.0,0.0,0.0,0.0,0.0,0.0,0.0,0.0,0.0,0.0,0.0,0.0,0.0,0.0,0.0,0.0,0.0,0.0,0.0,0.0,0.0,0.0,0.0,0.0,0.0,0.0,0.0,0.0,0.0,0.0,0.0,0.0,0.0,0.0,0.0,0.0,0.0,0.0,0.0,0.0,0.0,0.0,0.0,0.0,0.0,0.0,0.0,0.0,0.0,0.0,0.0,0.0,0.0,0.0,0.0,0.0,0.0,0.0,0.0,0.0,0.0,0.0,0.0,0.0,0.0,0.0,0.0,0.0,0.0,0.0,0.0,0.0,0.0,0.0,0.0,0.0,0.0,0.0,0.0,0.0,0.0,0.0,0.0,0.0,0.0,0.0,0.0,0.0,0.0,0.0,0.0,0.0,0.0,0.0,0.0,0.0,0.0,0.0,0.0,0.0,0.0,0.0,0.0,0.0,0.0,0.0,0.0,0.0,0.0,0.0,0.0,0.0,0.0,0.0,0.0,0.0,0.0,0.0,0.0,0.0,0.0,0.0,0.0,0.0,0.0,0.0,0.0,0.0,0.0,0.0,0.0,0.0,0.0,0.0,0.0,0.0,0.0,0.0,0.0,0.0,0.0,0.0,0.0,0.0,0.0,0.0,0.0,0.0,0.0,0.0,0.0,0.0,0.0,0.0,0.0,0.0,0.0,0.0,0.0,0.0,0.0,0.0,0.0,0.0,0.0,0.0,0.0,0.0,0.0,0.0,0.0,0.0,0.0,0.0,0.0,0.0,0.0,0.0,0.0,0.0,0.0,0.0,0.0,0.0,0.0,0.0,0.0,0.0,0.0,0.0,0.0,0.0,0.0,0.0,0.0,0.0,0.0,0.0,0.0,0.0,0.0,0.0,0.0,0.0,0.0,0.0,0.0,0.0,0.0,0.0,0.0,0.0,0.0,0.0,0.0,0.0,0.0,0.0,0.0,0.0,0.0,0.0,0.0,0.0,0.0,0.0,0.0,0.0,0.0,0.0,0.0,0.0,0.0,0.0,0.0,0.0,0.0,0.0,0.0,0.0,0.0,0.0,0.0,0.0,0.0,0.0,0.0,0.0,0.0,0.0,0.0,0.0,0.0,0.0,0.0,0.0,0.0,0.0,0.0,0.0,0.0,0.0,0.0,0.0,0.0,0.0,0.0,0.0,0.0,0.0,0.0,0.0,0.0,0.0,0.0,0.0,0.0,0.0,0.0,0.0,0.0,0.0,0.0,0.0,0.0,0.0,0.0,0.0,0.0,0.0,0.0,0.0,0.0,0.0,0.0,0.0,0.0,0.0,0.0,0.0,0.0,0.0,0.0,0.0,0.0,0.0,0.0,0.0,0.0,0.0,0.0,0.0,0.0,0.0,0.0,0.0,0.0,0.0,0.0,0.0,0.0,0.0,0.0,0.0,0.0,0.0,0.0,0.0,0.0,0.0,0.0,0.0,0.0,0.0,0.0,0.0,0.0,0.0,0.0,0.0,0.0,0.0,0.0,0.0,0.0,0.0,0.0,0.0,0.0,0.0,0.0,0.0,0.0,0.0,0.0,0.0,0.0,0.0,0.0,0.0,0.0,0.0,0.0,0.0,0.0,0.0,0.0,0.0,0.0,0.0,0.0,0.0,0.0,0.0,0.0,0.0,0.0,0.0,0.0,0.0,0.0,0.0,0.0,0.0,0.0,0.0,0.0,0.0,0.0,0.0,0.0,0.0,0.0,0.0,0.0,0.0,0.0,0.0,0.0,0.0,0.0,0.0,0.0,0.0,0.0,0.0,0.0,0.0,0.0,0.0,0.0,0.0,0.0,0.0,0.0,0.0,0.0,0.0,0.0,0.0,0.0,0.0,0.0,0.0,0.0,0.0,0.0,0.0,0.0,0.0,0.0,0.0,0.0,0.0,0.0,0.0,0.0,0.0,0.0,0.0,0.0,0.0,0.0,0.0,0.0,0.0,0.0,0.0,0.0,0.0,0.0,0.0,0.0,0.0,0.0,0.0,0.0,0.0,0.0,0.0,0.0,0.0,0.0,0.0,0.0,0.0,0.0,0.0,0.0,0.0,0.0,0.0,0.0,0.0,0.0,0.0,0.0,0.0,0.0,0.0,0.0,0.0,0.0,0.0,0.0,0.0,0.0,0.0,0.0,0.0,0.0,0.0,0.0,0.0,0.0,0.0,0.0,0.0,0.0,0.0,0.0,0.0,0.0,0.0,0.0,0.0,0.0,0.0,0.0,0.0,0.0,0.0,0.0,0.0,0.0,0.0,0.0,0.0,0.0,0.0,0.0,0.0,0.0,0.0,0.0,0.0,0.0,0.0,0.0,0.0,0.0,0.0,0.0,0.0,0.0,0.0,0.0,0.0,0.0,0.0,0.0,0.0,0.0,0.0,0.0,0.0,0.0,0.0,0.0,0.0,0.0,0.0,0.0,0.0,0.0,0.0,0.0,0.0,0.0,0.0,0.0,0.0,0.0,0.0,0.0,0.0,0.0,0.0,0.0,0.0,0.0,0.0,0.0,0.0,0.0,0.0,0.0,0.0,0.0,0.0,0.0,0.0,0.0,0.0,0.0,0.0,0.0,0.0,0.0,0.0,0.0,0.0,0.0,0.0,0.0,0.0,0.0,0.0,0.0,0.0,0.0,0.0,0.0,0.0,0.0,0.0,0.0,0.0,0.0,0.0,0.0,0.0,0.0,0.0,0.0,0.0,0.0,0.0,0.0,0.0,0.0,0.0,0.0,0.0,0.0,0.0,0.0,0.0,0.0,0.0,0.0,0.0,0.0,0.0,0.0,0.0,0.0,0.0,0.0,0.0,0.0,0.0,0.0,0.0,0.0,0.0,0.0,0.0,0.0,0.0,0.0,0.0,0.0,0.0,0.0,0.0,0.0,0.0,0.0,0.0,0.0,0.0,0.0,0.0,0.0,0.0,0.0,0.0,0.0,0.0,0.0,0.0,0.0,0.0,0.0,0.0,0.0,0.0,0.0,0.0,0.0,0.0,0.0,0.0,0.0,0.0,0.0,0.0,0.0,0.0,0.0,0.0,0.0,0.0,0.0,0.0,0.0,0.0,0.0,0.0,0.0,0.0,0.0,0.0,0.0,0.0,0.0,0.0,0.0,0.0,0.0,0.0,0.0,0.0,0.0,0.0,0.0,0.0,0.0,0.0,0.0,0.0,0.0,0.0,0.0,0.0,0.0,0.0,0.0,0.0,0.0,0.0,0.0,0.0,0.0,0.0,0.0,0.0,0.0,0.0,0.0,0.0,0.0,0.0,0.0,0.0,0.0,0.0,0.0,0.0,0.0,0.0,0.0,0.0,0.0,0.0,0.0,0.0,0.0,0.0,0.0,0.0,0.0,0.0,0.0,0.0,0.0,0.0,0.0,0.0,0.0,0.0,0.0,0.0,0.0,0.0,0.0,0.0,0.0,0.0,0.0,0.0,0.0,0.0,0.0,0.0,0.0,0.0,0.0,0.0,0.0,0.0,0.0,0.0,0.0,0.0,0.0,0.0,0.0,0.0,0.0,0.0,0.0,0.0,0.0,0.0,0.0,0.0,0.0,0.0,0.0,0.0,0.0,0.0,0.0,0.0,0.0,0.0,0.0,0.0,0.0,0.0,0.0,0.0,0.0,0.0,0.0,0.0,0.0,0.0,0.0,0.0,0.0,0.0,0.0,0.0,0.0,0.0,0.0,0.0,0.0,0.0,0.0,0.0,0.0,0.0,0.0,0.0,0.0,0.0,0.0,0.0,0.0,0.0,0.0,0.0,0.0,0.0,0.0,0.0,3.6942,0.0,0.0,0.0,0.0,0.0,0.0,0.0,0.0,0.0,0.0,0.0,0.0,0.0,0.0,0.0,0.0,0.0,0.0,0.0,0.0,0.0,0.0,0.0,0.0,2.2271,2.2808,2.3135,2.3979,2.4407,2.42,0.0,0.0,0.0,0.0,0.0,2.2158,2.2861,2.3118,2.2916,2.499,2.6463,2.7354,2.8926,2.9425,2.8952,0.0,0.0,0.0,0.0,0.0,0.0,0.0,0.0,0.0,0.0,0.0,0.0,0.0,0.0,0.0,0.0,0.0,0.0,0.0,0.0,0.0,0.0,0.0,0.0,0.0,0.0,0.0,0.0,0.0,0.0,0.0,0.0,0.0,0.0,0.0,0.0,0.0,0.0,0.0,0.0,0.0,0.0,0.0,0.0,0.0,0.0,0.0,0.0,0.0,0.0,0.0,0.0,0.0,0.0,0.0,0.0,0.0,0.0,0.0,0.0,0.0,0.0,0.0,0.0,0.0,0.0,0.0,0.0,0.0,0.0,0.0,3.808,0.0,0.0,0.0,0.0,0.0,0.0,0.0,0.0,0.0,0.0,0.0,0.0,0.0,0.0,0.0,0.0,0.0,0.0,0.0,0.0,0.0,2.0075,2.0897,2.1592,2.2249,2.2942,2.3877,2.4143,2.3369,2.2778,2.2106,2.1378,2.0584,2.0652,2.1696,2.1682,2.2135,2.3153,2.4842,2.7101,2.9839,3.0904,3.0587,2.9127,2.8699,0.0,0.0,0.0,0.0,0.0,0.0,0.0,0.0,0.0,0.0,0.0,0.0,0.0,0.0,0.0,0.0,0.0,0.0,0.0,0.0,0.0,0.0,0.0,0.0,0.0,0.0,0.0,0.0,0.0,0.0,0.0,0.0,0.0,0.0,0.0,0.0,0.0,0.0,0.0,0.0,0.0,0.0,0.0,0.0,0.0,0.0,0.0,0.0,0.0,0.0,0.0,0.0,0.0,0.0,0.0,0.0,0.0,0.0,0.0,0.0,0.0,0.0,0.0,3.8083,3.8306,3.7831,3.8498,3.8989,3.9439,4.1139,4.1965,4.1973,0.0,0.0,0.0,0.0,0.0,0.0,0.0,0.0,0.0,0.0,0.0,0.0,0.0,0.0,0.0,0.0,0.0,0.0,0.0,0.0,1.9987,2.0904,2.1488,2.2151,2.2942,2.3768,2.4023,2.3497,2.2693,2.2014,2.1509,2.1083,2.1426,2.2601,2.2899,2.4189,2.6553,2.8528,3.0161,3.1477,3.142,3.15,3.1693,3.1402,0.0,0.0,0.0,0.0,0.0,0.0,0.0,0.0,0.0,0.0,0.0,0.0,0.0,0.0,0.0,0.0,0.0,0.0,0.0,0.0,0.0,0.0,0.0,0.0,0.0,0.0,0.0,0.0,0.0,0.0,0.0,0.0,0.0,0.0,0.0,0.0,0.0,0.0,0.0,0.0,0.0,0.0,0.0,3.6776,3.8061,0.0,0.0,0.0,0.0,0.0,0.0,0.0,0.0,0.0,0.0,0.0,0.0,0.0,3.7355,3.78,3.9077,3.9986,4.0506,4.1992,4.2669,4.2592,4.2702,4.3159,4.3852,4.4074,0.0,4.2421,4.2179,0.0,0.0,0.0,0.0,0.0,0.0,0.0,0.0,0.0,0.0,0.0,0.0,0.0,0.0,0.0,0.0,0.0,0.0,0.0,0.0,0.0,2.2555,2.3639,2.4924,2.6172,2.6298,2.4945,2.4024,2.2905,2.1455,2.0717,2.0774,2.1763,2.2313,2.4126,2.73,2.9485,3.1026,3.195,3.313,3.3562,3.3377,3.4579,3.3917,3.1927,3.226,0.0,0.0,0.0,0.0,0.0,0.0,0.0,0.0,0.0,0.0,0.0,0.0,0.0,0.0,0.0,0.0,0.0,0.0,0.0,0.0,0.0,0.0,0.0,0.0,0.0,0.0,0.0,0.0,0.0,0.0,0.0,0.0,0.0,0.0,0.0,0.0,0.0,0.0,0.0,3.6463,3.88,3.9376,3.9279,3.8213,0.0,0.0,0.0,0.0,0.0,0.0,0.0,0.0,0.0,3.8681,3.9565,4.0188,4.0549,4.2471,4.3149,4.2613,4.3687,4.3938,4.3497,4.3497,4.3681,4.4081,4.4917,4.4682,4.3672,4.3559,4.2616,4.1046,0.0,0.0,0.0,0.0,3.6969,3.77,0.0,0.0,0.0,0.0,0.0,0.0,0.0,0.0,0.0,0.0,0.0,0.0,2.2309,2.3857,2.5383,2.6778,2.8055,2.795,2.6038,2.4972,2.3466,2.1395,2.0334,2.0281,2.1306,2.2734,2.4897,2.7849,2.9973,3.1452,3.2336,3.4363,3.5107,3.4773,3.7029,3.6274,3.3318,3.3825,3.3091,0.0,0.0,0.0,0.0,0.0,0.0,0.0,0.0,0.0,0.0,0.0,0.0,0.0,0.0,0.0,0.0,0.0,0.0,0.0,0.0,0.0,0.0,0.0,0.0,0.0,0.0,0.0,0.0,0.0,0.0,0.0,0.0,0.0,0.0,0.0,0.0,0.0,0.0,3.8651,4.1132,4.0996,4.1587,4.0769,0.0,0.0,0.0,0.0,0.0,0.0,3.9585,3.9604,4.0073,4.1061,4.2511,4.324,4.3116,4.498,4.5294,4.4115,4.451,4.4287,4.3497,4.3497,4.3718,4.4191,4.5311,4.5561,4.5198,4.5035,4.397,4.2354,4.1489,4.0123,3.8719,3.9373,3.9738,4.0065,0.0,0.0,0.0,0.0,0.0,0.0,0.0,0.0,0.0,0.0,0.0,2.2347,2.3082,2.5133,2.6814,2.7658,2.7987,2.7512,2.6,2.4612,2.308,2.1375,2.0334,2.0564,2.2192,2.5634,2.7968,2.9125,3.0751,3.2119,3.316,3.431,3.5258,3.6073,3.8071,3.7825,3.5888,3.5608,3.5032,3.4046,0.0,0.0,0.0,0.0,0.0,0.0,0.0,0.0,0.0,0.0,0.0,0.0,0.0,0.0,0.0,0.0,0.0,0.0,0.0,0.0,0.0,0.0,0.0,0.0,0.0,0.0,0.0,0.0,0.0,0.0,0.0,0.0,0.0,0.0,0.0,0.0,0.0,0.0,0.0,4.3649,4.5745,0.0,0.0,0.0,0.0,3.8632,4.006,4.1896,4.3876,4.397,4.4594,4.5922,4.6462,4.627,4.5352,4.5718,4.5568,4.4949,4.4765,4.4287,4.3497,4.3497,4.4323,4.579,4.5798,4.6221,4.6862,4.6795,4.574,4.4085,4.3278,4.1912,4.0373,4.0412,4.095,4.1797,0.0,0.0,0.0,0.0,0.0,1.9255,1.928,1.9523,1.9643,1.9614,2.104,2.2439,2.3419,2.6298,2.8552,2.9642,3.0664,3.0424,2.8405,2.6441,2.4334,2.2033,2.0402,2.0154,2.1505,2.5111,2.733,2.8044,3.0411,3.207,3.3051,3.4803,3.56,3.5627,3.7678,3.7936,3.6845,3.7135,3.6291,3.4604,3.2826,3.1505,0.0,0.0,0.0,0.0,0.0,0.0,0.0,0.0,0.0,0.0,0.0,0.0,0.0,0.0,0.0,0.0,0.0,0.0,0.0,0.0,0.0,0.0,0.0,0.0,0.0,0.0,0.0,0.0,0.0,0.0,0.0,0.0,0.0,0.0,0.0,0.0,0.0,4.4522,4.6332,0.0,4.3547,4.3434,4.3095,4.2001,4.3983,4.5679,4.6683,4.6759,4.6839,4.7079,4.7137,4.6728,4.5711,4.5969,4.5526,4.4377,4.4615,4.4287,4.3497,4.3497,4.3944,4.4703,4.4928,4.5313,4.5775,4.5975,4.5701,4.5105,4.4816,4.4316,4.3778,4.3778,4.397,4.4278,0.0,0.0,0.0,0.0,0.0,1.9069,1.9259,1.9471,1.9634,1.9748,2.1426,2.3033,2.4172,2.7235,2.9628,3.0702,3.1721,3.1291,2.8912,2.6929,2.4613,2.1877,2.0427,2.0304,2.1553,2.4461,2.6526,2.7705,2.9951,3.169,3.2943,3.4626,3.5337,3.527,3.7108,3.7657,3.7211,3.7595,3.6871,3.5329,3.3766,3.2373,3.1111,0.0,0.0,0.0,0.0,0.0,0.0,0.0,0.0,0.0,0.0,0.0,0.0,0.0,0.0,0.0,0.0,0.0,0.0,0.0,0.0,0.0,0.0,0.0,0.0,0.0,0.0,0.0,0.0,0.0,0.0,0.0,0.0,0.0,0.0,0.0,4.4924,4.4815,4.6689,4.711,4.4827,4.5021,4.5225,4.5073,4.6986,4.8348,4.8755,4.8894,4.8621,4.7789,4.7489,4.6764,4.5595,4.5744,4.5233,4.4004,4.4481,4.4287,4.3497,4.3497,4.3531,4.3595,4.4288,4.4605,4.4715,4.5342,4.5531,4.5438,4.5438,4.5495,4.5586,4.5457,4.5495,4.5586,0.0,0.0,0.0,0.0,0.0,1.9086,1.9259,1.9471,1.9704,2.0011,2.2239,2.4201,2.5314,2.7915,2.9918,3.071,3.0847,2.9812,2.7259,2.5815,2.3739,2.076,2.0401,2.0973,2.2424,2.3996,2.5935,2.8264,2.9394,3.097,3.2882,3.3689,3.4434,3.5182,3.6384,3.6972,3.7069,3.6914,3.6726,3.6292,3.3724,3.2653,3.2327,0.0,0.0,0.0,0.0,0.0,0.0,0.0,0.0,0.0,0.0,0.0,0.0,0.0,0.0,0.0,0.0,0.0,0.0,0.0,0.0,0.0,0.0,0.0,0.0,0.0,0.0,0.0,0.0,0.0,0.0,0.0,0.0,0.0,3.8268,4.3371,4.6346,4.4729,4.718,4.8366,4.6648,4.689,4.7297,4.769,4.8814,4.9692,5.0068,5.0406,4.986,4.8258,4.7585,4.6563,4.5128,4.5054,4.4677,4.4004,4.4445,4.425,4.3497,4.3497,4.3221,4.2809,4.4062,4.4321,4.395,4.5112,4.54,4.5096,4.5096,4.5302,4.5531,4.5222,4.5322,4.5586,0.0,0.0,0.0,1.8321,1.882,1.9246,1.9289,1.935,1.9366,1.9307,2.1503,2.3382,2.418,2.7151,2.9447,3.0297,3.0564,2.9584,2.6972,2.5183,2.2667,1.9175,1.9498,2.0328,2.1451,2.3541,2.5402,2.7146,2.8732,3.0325,3.1893,3.2575,3.3168,3.3725,3.4795,3.4889,3.4358,3.5281,3.5279,3.4622,3.4535,3.4529,3.4472,0.0,0.0,0.0,0.0,0.0,0.0,0.0,0.0,0.0,0.0,0.0,0.0,0.0,0.0,0.0,0.0,0.0,0.0,0.0,0.0,0.0,0.0,0.0,0.0,0.0,0.0,0.0,0.0,0.0,0.0,0.0,3.7845,4.0666,4.2132,4.4154,4.6027,4.7479,4.8659,4.9065,4.8296,4.8088,4.8126,4.8528,4.9133,4.9692,5.0068,4.8717,4.7524,4.6592,4.4904,4.3813,4.3474,4.3089,4.3283,4.4004,4.3472,4.336,4.3497,4.3497,4.3725,4.41,4.4459,4.4786,4.5112,4.5472,4.54,4.5096,4.5096,4.5007,4.4877,4.5033,4.5322,4.5432,0.0,0.0,0.0,1.8585,1.8981,1.9305,1.9305,1.923,1.9141,1.9089,2.1028,2.2811,2.3769,2.6445,2.844,2.913,2.932,2.8093,2.5054,2.2507,2.0142,1.788,1.8564,1.9586,2.0804,2.2958,2.494,2.6723,2.8523,3.0154,3.1557,3.2266,3.275,3.3086,3.3721,3.364,3.3044,3.3934,3.4037,3.3635,3.4431,3.4752,3.4728,3.4371,3.4372,3.4487,3.3682,3.373,3.3903,3.1954,0.0,0.0,0.0,0.0,0.0,0.0,0.0,0.0,0.0,0.0,0.0,0.0,0.0,0.0,0.0,0.0,0.0,0.0,0.0,0.0,0.0,0.0,0.0,0.0,3.9387,4.226,4.4564,4.5496,4.6597,4.8436,4.8847,4.881,4.8329,4.8289,4.8289,4.8254,4.9038,4.9589,4.9846,4.8506,4.7166,4.593,4.4059,4.2817,4.2317,4.1876,4.2137,4.3179,4.2851,4.2864,4.3178,4.3526,4.3662,0.0,4.4429,4.4717,4.4605,4.5297,4.5322,0.0,0.0,0.0,0.0,0.0,4.5322,4.5451,0.0,0.0,0.0,1.8585,1.8981,1.9289,1.9259,1.9084,1.8966,1.9031,2.0625,2.2272,2.3668,2.5649,2.71,2.7681,2.7532,2.5826,2.2159,1.8874,1.7006,1.6921,1.772,1.8913,2.0612,2.2485,2.4522,2.6647,2.8527,3.0112,3.1397,3.2178,3.2582,3.2734,3.2959,3.2812,3.2433,3.2864,3.2939,3.2834,3.3644,3.4021,3.4171,3.4527,3.4358,3.3996,3.4604,3.4403,3.389,3.4263,0.0,0.0,0.0,0.0,0.0,0.0,0.0,0.0,0.0,0.0,0.0,0.0,0.0,0.0,0.0,0.0,0.0,0.0,0.0,0.0,0.0,0.0,0.0,0.0,4.0468,4.2502,4.5663,4.6715,4.7386,4.8082,4.8159,4.791,4.7301,4.7769,4.7886,4.7428,4.8609,4.9353,4.9353,0.0,0.0,0.0,0.0,4.2656,4.1584,4.1126,4.1301,4.2193,4.2531,4.2732,4.2808,4.3619,4.3371,4.2404,4.4277,4.444,4.3508,4.4989,4.5203,4.458,4.4501,4.4527,4.4612,4.471,4.511,4.5566,0.0,0.0,1.8585,1.8585,1.8981,1.9261,1.9086,1.8753,1.8423,1.8177,1.9738,2.1343,2.2644,2.4404,2.5975,2.7207,2.6217,2.3827,1.9813,1.7028,1.5996,1.7017,1.7529,1.8929,2.1388,2.2696,2.4337,2.6383,2.7777,2.9041,3.0163,3.0582,3.0854,3.1015,3.1809,3.1527,3.062,3.2141,3.1992,3.0884,3.248,3.4132,3.5637,3.6035,3.7097,3.8387,3.8514,3.931,4.0063,3.858,3.795,3.7764,3.7691,0.0,0.0,0.0,0.0,0.0,0.0,0.0,0.0,0.0,0.0,0.0,0.0,0.0,0.0,0.0,0.0,0.0,0.0,0.0,0.0,3.8676,4.0955,4.3284,4.5117,4.5547,4.6032,4.7219,4.7242,4.698,4.647,4.659,4.6902,4.7349,4.807,4.8438,4.8438,4.613,4.4528,4.3907,4.1717,4.0578,4.0747,4.0819,4.1516,4.2722,0.0,0.0,4.3356,4.3818,4.4036,4.4134,4.481,4.5111,4.5143,4.547,4.5203,4.4527,4.3962,4.4065,4.4455,4.3101,4.3874,4.5413,0.0,1.833,1.8585,1.8585,1.8981,1.9227,1.9035,1.8572,1.8135,1.7833,1.8995,2.0348,2.1664,2.309,2.4338,2.5308,2.3003,2.05,1.8155,1.6166,1.5514,1.644,1.7642,1.9339,2.1484,2.3178,2.4912,2.6696,2.8018,2.9061,2.9851,3.0263,3.0496,3.057,3.1051,3.0614,2.966,3.1129,3.083,2.9528,3.1234,3.2606,3.3892,3.5556,3.6878,3.802,3.9661,4.0508,4.0823,4.0668,4.0595,4.0584,4.0492,3.9879,3.8377,0.0,0.0,0.0,0.0,0.0,0.0,0.0,0.0,0.0,0.0,0.0,0.0,0.0,0.0,3.6713,3.5928,0.0,3.8977,3.9491,4.1319,4.3085,4.4437,4.4924,4.567,4.6963,4.6448,4.5914,4.5738,4.6068,4.6452,4.6856,4.7729,4.8135,4.7965,4.5953,4.4291,4.3198,4.1613,4.0659,4.0339,4.0736,4.1415,4.2359,4.258,4.2826,4.3124,4.3937,4.4419,4.4631,4.514,4.5457,4.5568,4.5243,4.49,4.4527,4.3974,4.4106,4.4511,4.381,4.4435,4.547,0.0,0.0,1.8678,1.8678,1.8999,1.9182,1.8948,1.8342,1.7847,1.7685,1.8447,1.9526,2.0918,2.1948,2.2664,2.2841,1.9883,1.7684,0.0,1.585,1.5572,1.6276,1.8068,1.9895,2.1759,2.3769,2.5582,2.7095,2.8456,2.9383,2.9895,3.0376,3.0595,3.0592,3.0728,3.0235,2.939,3.0509,3.0074,2.8783,3.0202,3.0813,3.1121,3.3906,3.5346,3.6243,3.8926,3.9552,3.9325,4.1035,4.1506,4.1473,4.187,4.2444,4.1726,3.5441,3.5337,0.0,0.0,0.0,0.0,0.0,0.0,0.0,0.0,3.4854,3.5672,3.5291,3.6609,3.7706,3.7311,3.8122,3.9049,3.9897,4.1236,4.265,4.3838,4.453,4.5456,4.6707,4.5591,4.4731,4.4731,4.5283,4.5753,4.5917,4.6983,4.7489,4.7234,4.6071,4.4721,4.3173,4.2375,4.1538,4.0708,4.1071,4.149,4.1979,4.2559,4.2936,4.3119,4.4143,4.4674,4.4877,4.538,4.5568,4.5476,4.4849,4.458,4.4553,4.4233,4.4346,4.4751,4.5007,4.5322,4.5586,0.0,0.0,0.0,1.8949,1.9001,1.8949,1.8679,1.7877,1.7354,1.7498,1.8183,1.923,2.0752,2.1405,2.1316,2.0312,1.8876,1.7455,1.622,1.599,1.6407,1.76,1.8916,2.078,2.3229,2.4255,2.5582,2.7095,2.8456,2.9345,2.9817,3.0345,3.0567,3.0535,3.1131,3.0902,3.0145,3.1174,3.0519,2.8845,2.9939,2.9756,2.9069,3.1104,3.3368,3.5543,3.6152,3.6677,3.7409,3.925,3.9405,3.9198,4.1404,4.2067,4.1257,3.7281,3.6255,3.48,2.7243,2.4804,2.5498,2.999,3.2112,3.3516,0.0,3.781,3.9518,3.8084,3.9522,4.0654,3.9174,3.9583,3.9785,3.8519,4.0402,4.2468,4.3741,4.4063,4.4596,4.5883,4.4385,4.319,4.3147,4.3296,4.3659,4.4324,4.5095,4.5519,4.5488,4.4661,4.4114,4.3867,4.3032,4.2526,4.2423,4.2469,4.2519,4.2616,4.3124,4.3794,4.449,4.456,4.4995,4.5682,4.5609,4.5438,4.5118,4.4757,4.458,4.4599,4.4553,4.4732,4.5052,4.5074,4.5322,4.5586,0.0,0.0,0.0,1.915,1.9086,1.8914,1.8623,1.7975,1.7526,1.765,1.8044,1.8841,2.023,2.0705,2.042,1.9209,1.7848,1.7056,1.6992,1.6418,1.6949,1.8843,2.0175,2.1806,2.388,2.5362,2.6599,2.7578,2.8835,2.9849,3.0623,3.1083,3.1561,3.2071,3.212,3.1819,3.1354,3.2043,3.1551,3.0323,3.0803,3.0699,3.0275,3.0653,3.2027,3.3803,3.4167,3.467,0.0,0.0,3.7167,3.8027,3.949,3.9558,3.8492,3.5427,3.3973,3.2559,2.8722,2.8396,2.9725,3.2044,3.4588,3.6787,3.7892,3.8851,3.925,3.8489,3.9042,3.9084,3.7029,3.8067,3.8912,0.0,4.0044,4.2217,4.2484,4.3349,4.4109,4.4455,4.2645,4.155,4.1993,4.2643,4.3081,4.3245,4.445,4.5101,4.4912,4.4326,4.3893,4.3726,4.3051,4.2864,4.3178,4.2864,4.2864,4.3178,4.341,4.3663,4.4028,4.442,4.5014,4.5676,4.5416,4.5222,4.5052,4.4482,4.4392,4.458,4.458,4.4781,4.5118,4.5322,4.5476,4.5586,0.0,0.0,0.0,1.9214,1.9034,1.8825,1.8623,1.8013,1.7659,1.7883,1.8013,1.854,1.9667,1.9961,1.9678,1.8695,1.7239,1.6779,1.7644,1.7225,1.7936,2.0118,2.1867,2.3475,2.5014,2.6824,2.8006,2.8534,2.9789,3.0883,3.1881,3.2298,3.2984,3.3854,3.3624,3.325,3.2783,3.3399,3.2906,3.1726,3.1772,3.1598,3.1213,3.0624,3.0962,3.1789,3.2109,3.2618,0.0,0.0,3.3816,3.5467,3.5291,3.5437,3.5134,3.2388,3.0415,2.91,2.9028,2.9953,3.1394,3.3114,3.5564,3.7868,3.8969,3.864,3.8002,3.7864,3.7591,3.6739,3.4751,3.64,3.7787,3.6702,3.9695,4.2053,4.1835,4.31,4.3796,4.3263,4.1414,4.0149,4.0022,4.1339,4.2328,4.2634,4.3936,4.4628,4.436,4.4059,4.3758,4.3532,4.3124,4.3105,4.3497,4.3087,4.3142,4.3497,4.3497,4.3718,4.4193,4.4945,4.5403,4.5586,4.5243,4.5052,4.4919,4.4261,4.4233,4.458,4.458,4.4872,4.5282,4.5513,4.5586,4.5586,0.0,0.0,0.0,0.0,1.8789,1.8604,1.8604,1.7859,1.7516,1.8125,1.8139,1.8422,1.9227,1.9271,1.9061,1.8642,1.7239,1.6779,1.7644,1.8443,1.9694,2.1478,2.4053,2.6014,2.7173,2.8602,2.9577,3.0145,3.1477,3.2618,3.354,3.4002,3.4683,3.5541,3.5799,3.531,3.4402,3.5381,3.4513,3.2484,3.2515,3.1797,3.0585,3.0482,3.0084,2.9691,2.9691,0.0,0.0,2.7946,2.8804,3.056,2.8037,2.9513,3.1583,2.863,2.5811,2.416,2.6605,2.6209,2.6299,3.1348,3.3307,3.4649,3.7231,3.7105,3.6473,3.6428,3.5659,3.4565,3.347,3.5303,3.6713,3.5649,3.9128,4.2161,4.2606,4.3412,4.359,4.2461,4.1052,3.9224,0.0,3.8785,4.0978,4.2585,4.3232,4.355,4.3534,4.3532,4.3513,4.3497,4.3479,4.3479,4.3497,4.3479,4.3479,4.3497,4.3497,4.4305,4.5846,4.6569,4.644,4.5586,4.5243,4.4919,4.458,4.4175,4.4233,4.458,4.458,4.5011,4.5586,4.5605,4.5586,4.5586,0.0,0.0,0.0,0.0,0.0,1.8704,1.9014,1.8261,1.7946,1.8884,1.9818,0.0,0.0,0.0,0.0,0.0,1.7738,1.7259,1.8725,1.9589,2.1056,2.3231,2.5469,2.7451,2.9125,2.9678,3.0442,3.1469,3.2505,3.3526,3.4548,3.546,3.6591,3.7852,3.7621,3.7601,3.7778,3.7559,3.7155,3.6512,3.5214,3.4595,3.4242,3.1715,3.1044,3.1087,0.0,0.0,2.7615,2.581,2.5784,2.6534,2.6817,2.6495,2.56,2.34,2.369,2.4796,2.5057,2.7175,2.9766,3.1586,3.3968,3.578,3.5638,3.5228,3.4478,3.2946,3.129,2.9896,2.9252,3.0545,3.2323,3.4179,3.7381,4.0371,4.2416,4.2581,4.2555,4.2558,4.1742,0.0,0.0,0.0,0.0,4.006,4.22,4.3497,4.3497,4.3497,4.3497,4.3497,4.3497,4.3497,4.3497,4.3497,4.3497,4.3479,4.3726,4.4532,4.5814,4.576,4.5998,4.6414,4.5258,4.4707,4.4553,4.3931,4.4035,4.458,4.458,4.5011,4.5586,4.5586,4.5586,4.5586,0.0,0.0,0.0,0.0,0.0,0.0,0.0,0.0,0.0,0.0,0.0,0.0,0.0,0.0,0.0,0.0,0.0,1.7946,1.9326,0.0,2.1766,2.3865,2.595,2.7644,2.8885,2.9892,3.0814,3.1642,3.3407,3.4831,3.5932,3.7072,3.8358,3.9624,3.932,3.9388,3.9712,3.966,3.9106,3.8164,3.6732,3.5626,3.4582,3.1602,3.0468,0.0,0.0,0.0,2.4823,2.3116,2.3306,2.4148,2.3411,2.2441,2.1706,2.2395,2.3471,2.4772,2.6092,2.8605,3.1086,3.2155,3.3779,3.4901,3.3907,3.3096,3.2197,3.0982,2.9247,2.7948,2.7939,2.9127,3.0824,3.3245,3.6174,3.916,4.1943,4.2044,4.2029,4.2582,4.2164,4.2018,0.0,0.0,0.0,4.0033,4.1644,4.2635,4.2635,4.2359,4.2598,4.3461,4.3497,4.3497,4.3497,4.3497,4.3626,4.392,4.4432,4.5214,4.6229,4.5918,4.5846,4.5915,4.4991,4.424,4.3679,4.367,4.4035,4.4606,4.4732,4.5118,4.5586,4.5586,4.5586,4.5547,0.0,0.0,0.0,0.0,0.0,0.0,0.0,0.0,0.0,0.0,0.0,0.0,0.0,0.0,0.0,0.0,0.0,0.0,1.945,0.0,0.0,2.3496,2.5681,2.6914,2.7014,2.9455,3.081,3.091,3.4176,3.6283,3.7349,3.8559,3.9641,4.0566,4.0585,4.034,4.0011,4.1222,4.0078,3.7426,3.6964,3.4909,3.192,3.0352,0.0,0.0,0.0,0.0,2.2656,2.0172,2.1513,2.3413,1.8554,1.8148,2.0423,2.5245,2.495,2.4121,2.9102,3.005,3.0181,3.2661,3.2717,3.2147,3.2054,3.0729,2.972,3.0498,2.9349,2.8491,2.9139,3.0645,3.203,3.29,3.5652,3.8603,4.1302,4.1762,4.2026,0.0,0.0,0.0,0.0,0.0,0.0,4.2378,0.0,4.124,4.124,4.0506,4.113,4.3424,4.3497,4.3497,4.3497,4.3497,4.3883,4.4654,4.5479,4.6238,4.6938,4.6976,4.6064,4.4453,4.4577,4.3674,4.2266,4.3521,4.4261,4.4657,4.4985,4.5302,4.5586,4.5586,4.5586,4.547,0.0,0.0,0.0,0.0,0.0,0.0,0.0,0.0,0.0,0.0,0.0,0.0,0.0,0.0,0.0,0.0,0.0,0.0,0.0,0.0,0.0,0.0,0.0,0.0,0.0,0.0,0.0,0.0,3.351,3.4301,3.4851,3.599,3.6914,3.7585,3.7543,3.7667,3.7929,3.7817,3.693,3.5614,0.0,3.4347,3.3145,0.0,0.0,0.0,0.0,2.5846,2.4448,2.192,2.2838,2.4946,2.4468,2.499,2.5816,2.5997,2.6116,2.6379,2.6949,2.892,3.0675,3.044,3.0928,3.1151,3.008,2.9738,2.9525,2.8699,2.7513,2.6727,2.7291,2.7989,2.9902,3.4228,3.6397,0.0,4.1226,4.2253,0.0,4.096,4.3481,4.4941,4.3909,4.5585,0.0,0.0,4.3002,4.2892,4.2892,4.269,4.2855,4.3461,4.3497,4.3497,4.3497,4.3497,4.3589,4.3809,4.5183,4.5923,4.6116,4.666,4.6666,4.6183,4.533,4.4718,4.4311,4.4391,4.4657,4.4966,4.5074,4.5302,4.5586,4.5586,4.5586,4.547,0.0,0.0,0.0,0.0,0.0,0.0,0.0,0.0,0.0,0.0,0.0,0.0,0.0,0.0,0.0,0.0,0.0,0.0,0.0,0.0,0.0,0.0,0.0,0.0,0.0,0.0,0.0,0.0,0.0,0.0,3.3405,3.4863,3.5585,3.5636,3.5739,3.6001,3.6306,3.5936,0.0,0.0,0.0,0.0,0.0,0.0,0.0,0.0,0.0,2.7012,2.6391,2.6263,2.6206,2.6498,2.8278,2.8669,2.8466,2.8497,2.7818,2.7063,2.7277,2.8606,2.981,2.9059,2.9621,2.9906,2.7995,2.7799,2.7757,2.7002,2.6017,2.5697,2.6983,2.7996,2.9842,3.3524,0.0,0.0,4.0345,4.1202,4.1488,4.1284,4.333,4.486,4.5052,4.6059,4.5975,0.0,4.3369,4.2818,4.247,4.2103,4.2396,4.3461,4.3497,4.3497,4.3497,4.3497,4.3663,4.403,4.5438,4.6365,4.6917,4.7083,4.6858,4.6279,0.0,4.4677,4.4007,4.4573,4.4919,4.5118,4.5263,4.5438,4.5586,4.5586,4.5586,4.5528,0.0,0.0,0.0,0.0,0.0,0.0,0.0,0.0,0.0,0.0,2.2609,0.0,0.0,0.0,0.0,0.0,0.0,0.0,0.0,0.0,0.0,0.0,0.0,0.0,0.0,0.0,0.0,0.0,0.0,0.0,0.0,0.0,0.0,0.0,0.0,0.0,0.0,0.0,0.0,0.0,0.0,0.0,0.0,0.0,0.0,0.0,2.8342,2.8068,2.8215,3.1147,3.034,2.8609,3.1144,3.0912,2.9947,3.1358,2.9329,2.6954,2.8422,2.8568,2.8282,2.8494,2.8928,2.8797,2.6901,2.6226,2.6064,2.6001,2.5492,2.5668,2.7656,2.937,3.0967,3.2604,3.522,3.759,3.9221,3.9973,4.0811,4.208,4.258,4.3373,4.482,4.4729,4.4599,4.4709,4.3424,4.2268,4.1479,4.0763,4.1332,4.3424,4.3497,4.3497,4.3497,4.3497,4.3846,4.4562,4.5807,4.6896,4.7804,4.7533,4.6757,4.5586,0.0,0.0,4.3021,4.455,4.518,4.5201,4.5495,4.5586,4.5586,4.5586,4.5586,4.5586,0.0,0.0,0.0,0.0,0.0,0.0,0.0,0.0,0.0,0.0,2.3417,2.3639,0.0,0.0,0.0,0.0,0.0,0.0,0.0,0.0,0.0,0.0,0.0,0.0,0.0,0.0,0.0,0.0,0.0,0.0,0.0,0.0,0.0,0.0,0.0,0.0,0.0,0.0,0.0,0.0,0.0,0.0,0.0,0.0,0.0,0.0,2.9143,2.8745,2.9099,3.1827,3.2674,3.2964,3.522,3.4856,3.3192,3.1116,2.8732,2.6764,2.6885,2.7111,2.7694,2.8851,2.9159,2.9316,2.9751,2.91,2.8317,2.8037,2.7637,2.7632,2.8625,3.0042,3.2066,3.5284,3.7182,3.8485,3.8954,4.1369,4.2427,4.0565,4.2139,4.3734,4.4674,4.4141,0.0,0.0,4.4452,4.3938,4.313,4.2947,4.3057,4.3479,4.3497,4.3497,4.3497,4.3497,4.3552,4.3752,4.5223,4.5677,4.5266,4.6464,4.6492,4.5586,4.555,0.0,4.509,4.5398,4.5513,4.5513,4.5568,4.5586,4.5586,4.5586,4.5586,4.5586,0.0,0.0,0.0,0.0,0.0,0.0,0.0,2.2418,2.3611,2.5354,2.5186,2.5242,2.6228,2.5623,2.5244,0.0,0.0,0.0,0.0,0.0,0.0,0.0,0.0,0.0,0.0,2.8031,2.8276,2.8624,0.0,2.9486,2.8486,2.939,2.8917,2.736,0.0,0.0,0.0,0.0,0.0,0.0,0.0,0.0,0.0,0.0,0.0,0.0,0.0,2.9731,3.0259,3.2381,3.3276,3.3789,3.5456,3.5078,3.3343,3.0002,2.7571,2.5922,2.5667,2.6428,2.765,2.8897,3.0332,3.0911,2.9206,2.9008,2.8586,2.6538,2.6284,2.6859,2.8131,2.9631,3.1562,3.4421,3.6763,3.8205,3.8134,4.0538,4.1735,4.0233,4.1493,4.2373,4.2228,4.1846,4.1791,4.2176,4.2194,4.258,4.3442,4.3497,4.3497,4.3497,4.3497,4.3497,4.3497,4.3497,4.3497,4.3532,4.5057,4.5606,4.5247,4.6393,4.6682,4.624,4.5797,0.0,4.4374,4.524,4.5086,4.4393,4.5259,4.5586,4.5586,4.5586,4.5586,4.5586,0.0,0.0,0.0,0.0,0.0,0.0,2.31,2.3876,2.4969,2.6863,2.7126,2.7279,2.7701,2.6561,2.5844,0.0,0.0,0.0,0.0,0.0,0.0,0.0,0.0,0.0,0.0,0.0,0.0,2.8101,2.9445,0.0,0.0,0.0,0.0,0.0,2.8332,2.8497,2.7815,0.0,0.0,0.0,0.0,3.0211,0.0,0.0,0.0,0.0,0.0,3.0311,3.081,3.2424,3.2906,3.2936,3.3582,3.3303,3.2062,2.8823,2.6563,2.5263,2.5728,2.6803,2.8269,3.0196,3.2187,3.2737,2.9278,2.9193,2.8823,2.5234,2.5084,2.6092,2.7735,2.9262,3.1019,3.3423,3.5847,3.755,3.7962,3.9548,4.069,4.0655,4.1107,4.1225,4.0722,4.0359,0.0,4.0634,4.0671,0.0,4.3387,4.3497,4.3497,4.3497,4.3497,4.3497,4.3497,4.3497,4.3497,4.3532,4.4888,4.5549,4.5576,4.6298,4.6624,4.6586,4.5893,0.0,0.0,4.4913,4.4605,4.3278,4.4951,4.5586,4.5586,4.5586,4.5586,4.5586,0.0,0.0,0.0,0.0,0.0,0.0,2.3236,2.4769,2.6576,2.853,2.8773,2.921,3.0324,2.8138,2.6896,0.0,0.0,0.0,0.0,0.0,0.0,0.0,0.0,0.0,0.0,0.0,0.0,2.9785,3.0177,0.0,0.0,0.0,0.0,0.0,0.0,2.7582,2.6937,2.845,0.0,0.0,0.0,0.0,0.0,0.0,0.0,0.0,0.0,2.9645,2.9768,3.1408,3.1597,3.1026,2.9916,2.9833,2.9807,2.7998,2.6272,2.5501,2.8154,2.8946,3.0069,3.4404,3.4946,3.4155,3.324,3.2301,3.0682,2.7154,2.6796,2.7465,2.8665,2.9858,3.164,3.4711,3.5486,3.6699,3.9552,3.9979,4.0533,4.1944,4.1534,4.1677,4.302,4.1846,4.1607,4.3057,0.0,0.0,4.3479,4.3497,4.3497,4.3497,4.3497,4.3497,4.3497,4.3497,4.3497,4.3532,4.4327,4.4693,4.4719,4.5398,4.572,4.572,4.5624,0.0,0.0,4.4913,4.4605,4.3278,4.4951,4.5586,4.5586,4.5586,4.5586,4.5586,0.0,0.0,0.0,0.0,0.0,0.0,2.3259,2.505,2.7031,2.8773,2.9439,3.0008,3.073,2.9608,2.893,2.926,0.0,0.0,0.0,0.0,0.0,0.0,0.0,0.0,0.0,0.0,3.1028,3.1749,3.1853,0.0,0.0,0.0,0.0,0.0,0.0,2.8448,2.8198,2.8852,0.0,0.0,0.0,0.0,0.0,0.0,0.0,0.0,0.0,0.0,2.9526,3.0281,3.0392,2.9971,2.8457,2.7851,2.7403,2.5815,2.5168,2.5481,2.7937,3.0132,3.2541,3.5771,3.6682,3.634,3.4647,3.338,3.1544,2.7979,2.7816,2.8519,2.9189,3.0055,3.1425,3.3613,3.4546,3.5847,3.8197,3.9424,4.0564,4.1875,4.2323,4.2231,0.0,0.0,4.0634,4.1277,0.0,0.0,4.3442,4.3497,4.3497,4.3497,4.3497,4.3497,4.3497,4.3975,4.3975,4.3532,4.4728,4.507,4.4606,4.5283,4.5586,4.5586,4.5586,0.0,0.0,4.447,4.3989,4.1797,4.4528,4.5586,4.5586,4.5586,4.5586,4.5586,0.0,0.0,0.0,0.0,0.0,2.3324,2.3695,2.5383,2.7276,2.9226,2.9687,3.0295,3.1492,3.0767,3.0424,3.1039,3.0029,0.0,0.0,0.0,0.0,0.0,0.0,0.0,0.0,0.0,3.2082,3.2891,3.2891,3.2295,0.0,0.0,3.0737,2.9044,0.0,0.0,0.0,0.0,0.0,0.0,0.0,0.0,0.0,0.0,0.0,0.0,0.0,0.0,0.0,0.0,0.0,2.9305,2.7519,2.6597,2.5903,2.4288,2.4632,2.6016,2.8094,3.1516,3.5094,3.7613,3.834,3.7895,3.57,3.3937,3.184,2.8611,2.8531,2.918,2.9728,3.042,3.1429,3.3055,3.4233,3.5544,3.7276,3.8661,4.0002,4.1447,0.0,4.2304,4.1075,4.0946,4.0946,4.0946,0.0,0.0,4.3424,4.3497,4.3497,4.3497,4.3497,4.3497,4.3497,4.4066,4.4118,4.3646,4.488,4.4934,4.4037,4.5093,4.5316,4.4893,4.5374,0.0,0.0,4.4393,4.3893,4.1546,4.447,4.5586,4.5586,4.5586,4.5586,4.5586,0.0,0.0,0.0,0.0,0.0,0.0,2.4712,2.5852,2.7567,3.0232,2.968,3.0191,3.3238,3.1487,3.0911,3.2991,3.1332,0.0,0.0,0.0,0.0,0.0,0.0,0.0,0.0,0.0,3.269,3.2891,3.2891,3.2891,3.2852,3.2064,3.1698,3.1621,0.0,0.0,0.0,0.0,0.0,0.0,0.0,0.0,0.0,0.0,0.0,0.0,0.0,0.0,0.0,0.0,0.0,0.0,0.0,2.6061,2.5672,2.3927,2.5078,2.7311,2.9323,3.3295,3.7593,4.0603,4.0052,3.8366,3.6738,3.422,3.1562,2.9263,2.8909,2.9339,3.0472,3.1072,3.1978,3.3804,3.4836,3.5939,3.7574,3.779,3.8629,4.0863,4.1097,4.1754,4.3296,4.3442,4.3442,0.0,0.0,0.0,4.3497,4.3497,4.3497,4.3497,4.3497,4.3497,4.3497,4.3497,4.3679,4.4016,4.4419,4.3886,4.2598,4.4652,4.4682,0.0,0.0,0.0,0.0,4.4893,4.4605,4.3239,4.4932,4.5586,4.5586,4.5586,4.5586,4.5586,0.0,0.0,0.0,0.0,0.0,0.0,2.3684,2.5481,2.7306,2.8724,3.0055,3.1267,3.22,3.1969,3.2024,3.2661,3.1635,0.0,0.0,0.0,0.0,0.0,0.0,0.0,0.0,0.0,3.4011,3.468,3.468,3.4372,3.3776,3.291,3.2237,3.1641,3.016,2.9698,0.0,0.0,0.0,0.0,0.0,0.0,0.0,0.0,0.0,0.0,0.0,0.0,0.0,0.0,0.0,0.0,0.0,0.0,0.0,2.3954,2.3909,2.5219,2.8101,3.0664,3.3257,3.6398,3.6539,3.5761,3.5051,3.3489,3.1845,3.0526,3.041,3.0796,3.1449,3.1888,3.2796,3.4795,3.5283,3.6215,3.8569,3.9208,3.9985,4.1432,4.2287,4.2928,0.0,0.0,4.2323,0.0,0.0,0.0,4.3424,4.3497,4.3497,4.3497,4.3497,4.3497,4.3497,4.4048,4.4199,4.4016,4.4956,4.4391,4.2579,4.4652,4.4682,0.0,0.0,0.0,0.0,4.4913,4.4605,4.3278,4.4951,4.5586,4.5586,4.5586,4.5586,4.5586,0.0,0.0,0.0,0.0,0.0,0.0,2.3544,2.5479,2.7214,2.8035,3.0008,3.1496,3.1929,3.2018,3.2237,3.2732,3.2119,0.0,0.0,0.0,0.0,0.0,0.0,0.0,0.0,3.4553,3.4968,3.5493,3.5493,3.5218,3.4661,3.3795,3.3122,3.2564,3.0852,3.0371,0.0,0.0,0.0,0.0,0.0,0.0,3.1193,0.0,0.0,0.0,0.0,0.0,0.0,0.0,0.0,0.0,0.0,0.0,0.0,0.0,2.3977,2.4516,2.7478,3.0247,3.278,3.4921,3.4939,3.4404,3.4241,3.2664,3.1224,3.1146,3.141,3.1792,3.2125,3.2791,3.3644,3.456,3.5442,3.6542,3.8087,3.8948,3.9833,4.0951,4.225,0.0,0.0,4.2598,0.0,0.0,0.0,0.0,4.3442,4.3497,4.3497,4.3497,4.3497,4.3497,4.3497,4.3993,4.4243,4.4252,4.5001,4.4445,4.2776,4.4707,4.4682,0.0,0.0,0.0,0.0,4.5163,4.497,4.4143,4.5182,4.5586,4.5586,4.5586,4.5586,4.5586,0.0,0.0,0.0,0.0,0.0,0.0,0.0,2.5708,2.7214,2.7998,2.962,3.111,3.2155,3.1757,3.1902,3.3046,3.2767,0.0,0.0,0.0,0.0,0.0,0.0,0.0,3.5114,3.5372,3.5493,3.5493,3.5493,3.5493,3.5474,3.4603,3.4199,3.4122,3.2449,3.1679,0.0,0.0,0.0,0.0,3.0494,3.0475,0.0,0.0,0.0,0.0,0.0,0.0,0.0,0.0,0.0,0.0,0.0,0.0,0.0,0.0,0.0,0.0,0.0,3.1331,3.4811,3.5407,3.4819,3.409,3.4103,3.1958,0.0,3.1492,3.213,3.2508,3.2677,3.3899,3.4569,3.3568,3.5454,3.6962,3.67,3.7698,3.8772,0.0,4.1368,0.0,4.3259,4.3424,0.0,0.0,0.0,0.0,4.3497,4.3497,4.3497,4.3497,4.3497,4.3497,4.3497,4.3513,4.3844,4.441,4.4549,4.4034,4.297,4.4778,4.4682,0.0,0.0,0.0,0.0,4.5586,4.5586,4.5586,4.5586,4.5586,4.5586,4.5528,4.5547,4.5586,0.0,0.0,0.0,0.0,0.0,0.0,0.0,0.0,0.0,0.0,2.987,3.1517,3.0939,3.2007,3.2733,0.0,0.0,0.0,0.0,0.0,0.0,0.0,0.0,0.0,3.54,3.547,3.5493,3.5493,3.5493,3.5493,3.5474,3.4603,3.4199,3.4122,3.2449,3.1333,0.0,0.0,0.0,0.0,3.1391,3.1277,0.0,0.0,0.0,0.0,2.9093,2.8994,0.0,0.0,0.0,0.0,0.0,0.0,0.0,0.0,2.6925,2.7272,2.812,0.0,2.9967,3.1713,3.2566,3.303,0.0,3.2861,3.2838,3.395,3.4165,3.4252,3.4661,3.5741,3.6364,3.5684,3.6714,3.781,3.833,3.9715,4.0474,3.9965,4.1846,4.28,4.1772,4.2782,0.0,0.0,0.0,4.3497,4.3497,4.3497,4.3497,4.3497,4.3497,4.3497,4.3497,4.374,4.3453,4.2624,4.4223,4.3634,4.12,4.422,4.4682,0.0,0.0,0.0,4.5586,4.5586,4.5586,4.5586,4.5586,4.5586,4.5509,4.4855,4.5028,4.549,0.0,0.0,0.0,0.0,0.0,0.0,0.0,0.0,0.0,0.0,2.9888,3.1626,3.0413,3.2008,3.3014,0.0,0.0,0.0,0.0,0.0,0.0,0.0,0.0,3.5078,3.5493,3.5493,3.5493,3.5493,3.5493,3.5493,3.5474,3.5026,3.4584,3.4122,3.2449,3.1218,3.0417,0.0,0.0,0.0,3.0976,0.0,0.0,0.0,0.0,0.0,2.9026,2.8863,0.0,2.8929,2.8994,2.8879,0.0,0.0,0.0,0.0,2.7817,2.8255,2.8801,2.9118,2.972,3.1657,3.2444,3.2976,3.3884,3.3448,3.31,3.3979,3.4322,3.4494,3.4561,3.5864,3.67,3.6004,3.6949,3.8097,3.9062,3.9917,4.0215,3.9577,4.087,4.1644,0.0,0.0,0.0,0.0,0.0,4.3497,4.3497,4.3497,4.3497,4.3497,4.3497,4.3497,4.3497,4.3818,4.3352,4.204,4.4102,4.3905,4.1777,4.4412,4.5105,0.0,0.0,0.0,4.5528,4.4759,4.4913,4.5586,4.5586,4.5586,4.5528,4.5066,4.5182,4.5528,0.0,0.0,0.0,0.0,0.0,0.0,0.0,0.0,0.0,0.0,0.0,0.0,0.0,0.0,0.0,0.0,0.0,0.0,0.0,0.0,0.0,0.0,3.4958,3.5224,3.5474,3.5493,3.5493,3.5493,3.5493,3.5493,3.5493,3.5526,3.4988,3.3981,3.2526,3.1333,3.0398,3.0398,0.0,0.0,3.0122,0.0,0.0,0.0,0.0,0.0,0.0,0.0,0.0,2.8863,2.8994,2.8929,2.854,0.0,0.0,0.0,0.0,0.0,2.9429,3.0506,3.1769,3.345,3.3592,3.3757,3.5488,3.417,3.2835,3.3715,3.4292,3.4523,3.4181,3.5847,3.6844,3.5616,3.6876,3.84,3.9416,3.9693,3.9669,3.9229,3.9917,0.0,0.0,0.0,0.0,0.0,0.0,4.3497,4.3497,4.3497,4.3497,4.3497,4.3497,4.3513,4.3563,4.3912,4.3409,4.204,4.4148,4.4461,4.3162,4.4836,4.5586,0.0,0.0,0.0,4.549,4.4066,4.4316,4.5586,4.5586,4.5586,4.5566,4.5297,4.5374,4.5586,0.0,0.0,0.0,0.0,0.0,0.0,0.0,0.0,0.0,0.0,0.0,0.0,0.0,0.0,0.0,0.0,0.0,0.0,0.0,0.0,0.0,3.4694,3.4958,3.5224,3.5474,3.5493,3.5493,3.5493,3.5493,3.5493,3.5493,3.5565,3.4757,3.3262,3.2872,3.1852,3.0398,3.0398,3.0398,3.0386,3.0122,0.0,0.0,0.0,0.0,0.0,0.0,0.0,0.0,2.8863,2.8994,2.8929,2.854,0.0,0.0,0.0,0.0,0.0,2.9715,3.1576,3.3507,3.519,3.5367,3.5545,3.7238,3.5905,3.4839,3.671,3.6807,3.6567,3.6491,3.8555,3.9175,3.5912,3.7468,3.9358,0.0,0.0,4.1564,4.0092,0.0,4.2451,0.0,0.0,0.0,0.0,0.0,4.3497,4.3497,4.3497,4.3497,4.3497,4.3497,4.3646,4.3924,4.429,4.3653,4.204,4.4381,4.4666,4.3162,4.4836,4.5586,0.0,0.0,4.5355,4.5566,4.5316,4.5355,4.5586,4.5586,4.5586,4.5432,4.4008,4.4374,4.5586,0.0,0.0,0.0,0.0,0.0,0.0,0.0,0.0,0.0,0.0,0.0,0.0,0.0,0.0,0.0,0.0,0.0,0.0,0.0,0.0,3.4694,3.4694,3.4956,3.5239,3.5493,3.5369,3.5354,3.5493,3.5354,3.5388,3.5545,3.509,3.4492,3.3705,3.2699,3.1814,3.1102,3.1102,3.1021,3.0863,0.0,0.0,0.0,0.0,0.0,0.0,0.0,0.0,0.0,0.0,2.8994,2.8905,2.8308,0.0,0.0,0.0,0.0,0.0,3.0312,3.1803,3.3601,3.69,3.692,3.6788,3.9174,3.7473,3.581,3.748,3.6613,3.583,3.6479,3.8168,3.9427,3.9359,3.9829,4.0314,4.0624,4.1117,4.1029,0.0,0.0,0.0,0.0,0.0,0.0,0.0,0.0,0.0,4.3497,4.3497,4.3497,4.3497,4.3497,4.3679,4.4016,4.4419,4.3806,4.2284,4.4538,4.472,4.3162,4.4836,4.5586,4.5547,0.0,4.4669,4.5265,4.4552,4.4688,4.5342,4.5531,4.5586,4.5451,4.4201,4.4528,4.5528,0.0,0.0,0.0,0.0,0.0,0.0,0.0,0.0,0.0,0.0,0.0,0.0,0.0,0.0,0.0,0.0,0.0,0.0,0.0,0.0,3.4572,3.4572,3.4851,3.5122,3.5398,3.5138,3.5138,3.5417,3.5207,3.5285,3.5604,3.4933,3.4513,3.4274,3.2686,3.1987,3.1968,3.1775,3.164,3.1569,0.0,0.0,0.0,0.0,0.0,0.0,0.0,0.0,0.0,0.0,0.0,0.0,0.0,0.0,0.0,2.7869,2.8021,2.8663,3.083,3.2079,3.3712,3.7642,0.0,3.7305,4.0707,3.8483,3.6266,3.8209,3.6732,3.551,3.6814,3.7596,3.8888,4.1642,4.1494,4.1126,4.1454,4.1398,4.1047,4.0312,0.0,0.0,0.0,0.0,0.0,0.0,0.0,0.0,4.3497,4.3497,4.3497,4.3497,4.3497,4.3712,4.4136,4.4447,4.4113,4.3132,4.4805,4.4932,4.372,4.5009,4.5586,4.5509,4.4168,4.4154,4.5023,4.4001,4.4173,4.5118,4.5476,4.547,4.524,4.4778,4.4893,4.522,0.0,0.0,0.0,0.0,0.0,0.0,0.0,0.0,0.0,0.0,0.0,0.0,0.0,0.0,0.0,0.0,0.0,0.0,0.0,0.0,3.4242,3.4242,3.4551,3.4851,3.5122,3.487,3.487,3.5122,3.5105,3.5301,3.5682,3.5568,3.5143,3.4428,3.3301,3.2814,3.2756,3.2025,3.1979,3.2403,3.2182,0.0,0.0,0.0,0.0,0.0,0.0,0.0,0.0,0.0,0.0,0.0,0.0,0.0,2.7426,2.7783,2.8422,2.9369,3.0976,3.2941,3.4898,3.6491,3.6215,3.6752,4.1204,3.8562,0.0,4.0159,0.0,3.7638,3.9077,3.8311,3.8057,3.9982,4.0798,4.1659,4.3051,0.0,4.3474,4.274,0.0,0.0,0.0,0.0,0.0,0.0,0.0,0.0,4.3497,4.3497,4.3497,4.3497,4.3497,4.3855,4.4553,4.4599,4.4719,4.4925,4.5381,4.5528,4.5413,4.5528,4.5586,4.5586,4.5148,4.5023,4.5096,4.5004,4.5023,4.5118,4.5476,4.5105,4.447,4.522,4.5028,4.4455,0.0,0.0,0.0,0.0,0.0,0.0,0.0,0.0,0.0,0.0,0.0,0.0,0.0,0.0,0.0,0.0,0.0,0.0,0.0,3.4043,3.42,3.42,3.4334,3.4445,3.4553,3.4445,3.4532,3.4832,3.5095,3.543,3.582,3.5715,3.5514,3.5205,3.418,3.3699,3.368,3.3372,3.3192,3.3034,3.2997,3.2067,0.0,0.0,0.0,0.0,0.0,0.0,0.0,0.0,2.821,2.802,2.7648,2.7409,2.7378,2.7783,2.8475,2.944,3.0995,3.2502,3.4116,3.6182,3.5837,0.0,0.0,3.8838,3.7244,3.997,3.88,0.0,0.0,3.7928,3.8329,4.1011,4.1581,4.1922,4.2652,4.3166,4.3168,0.0,0.0,0.0,0.0,0.0,0.0,0.0,0.0,0.0,4.3497,4.3497,4.3497,4.3497,4.3497,4.3726,4.4204,4.4474,4.4776,4.5096,4.5438,4.5586,4.5586,4.5586,4.5586,4.5586,4.5476,4.5302,4.5118,4.5322,4.5302,4.5118,4.5476,4.5393,4.5066,4.4874,4.4785,4.4746,0.0,0.0,0.0,0.0,0.0,0.0,0.0,0.0,0.0,0.0,0.0,0.0,0.0,0.0,0.0,0.0,0.0,0.0,3.3385,3.3573,3.3703,3.3703,3.3944,3.4074,3.4074,3.4074,3.4284,3.4694,3.5187,3.5591,3.5905,3.5811,3.5737,3.5661,3.4666,3.4372,3.4564,3.4026,3.3796,3.3767,3.3349,3.24,0.0,0.0,0.0,0.0,0.0,0.0,0.0,0.0,2.7811,2.7648,2.7396,2.7192,2.7244,2.8065,2.9036,3.0148,3.1425,3.2958,3.4469,3.5752,0.0,0.0,3.885,3.8129,3.7577,3.978,3.9123,3.8013,3.7517,0.0,0.0,0.0,4.1296,4.1586,4.2227,4.2787,0.0,0.0,0.0,0.0,0.0,0.0,0.0,0.0,0.0,0.0,0.0,4.3497,4.3497,4.3497,4.3497,4.3679,4.4016,4.4419,4.4776,4.5096,4.5438,4.5586,4.5586,4.5586,4.5586,4.5586,4.5495,4.5322,4.5118,4.5342,4.5362,4.5263,4.5513,4.5586,4.5509,4.4804,4.4863,4.5126,0.0,0.0,0.0,0.0,0.0,0.0,0.0,0.0,2.9384,3.0469,3.1062,0.0,0.0,0.0,0.0,0.0,0.0,0.0,3.2614,3.2596,3.2596,3.2596,3.3366,3.3788,3.3788,3.3788,3.4087,3.4694,3.5372,3.5766,3.59,3.5903,3.5827,3.5661,3.473,3.4749,3.5359,3.366,3.3605,3.4579,3.3228,3.2408,3.1833,0.0,0.0,0.0,0.0,0.0,0.0,0.0,2.7636,2.7303,2.7303,2.7053,2.7044,2.8639,3.0237,3.166,3.2392,3.4596,3.6369,3.5047,3.5901,3.6953,3.6417,3.6173,3.6928,3.9952,4.0189,3.9154,3.6931,3.7138,0.0,3.8745,3.9462,4.0481,4.2044,4.2628,0.0,0.0,0.0,0.0,0.0,0.0,0.0,0.0,0.0,0.0,0.0,4.3497,4.3497,4.3497,4.3497,4.3679,4.4016,4.4419,4.4776,4.5096,4.5438,4.5586,4.5586,4.5586,4.5586,4.5568,4.5243,4.5096,4.5096,4.5096,4.5302,4.5586,4.5586,4.5586,4.5568,4.5222,4.5322,4.5438,0.0,0.0,0.0,0.0,0.0,0.0,0.0,0.0,2.9384,3.0469,3.0332,0.0,0.0,0.0,0.0,0.0,0.0,0.0,3.2577,3.2063,3.1751,3.1751,3.254,3.2963,3.2963,3.3934,3.4564,3.4826,3.5225,3.56,3.5966,3.5836,3.5749,3.5697,3.5696,3.5289,3.457,3.4287,3.4018,3.371,3.2831,3.2129,3.1489,0.0,0.0,0.0,0.0,0.0,0.0,0.0,0.0,0.0,2.7641,2.7963,2.8473,2.9157,3.0363,3.1662,3.2661,3.4201,3.5459,3.5291,3.5401,3.5623,3.5965,3.5966,0.0,0.0,3.7741,3.7857,3.6366,3.686,0.0,3.8688,3.9422,4.0312,4.1384,0.0,0.0,0.0,0.0,0.0,0.0,0.0,0.0,0.0,0.0,0.0,0.0,4.3497,4.3497,4.3497,4.3497,4.3679,4.4016,4.4419,4.4776,4.5096,4.5438,4.5586,4.5586,4.5586,4.5476,4.5243,4.514,4.5096,4.5118,4.5342,4.5513,4.5586,4.5586,4.5586,4.5586,4.5495,4.5381,4.5161,0.0,0.0,0.0,0.0,0.0,0.0,0.0,0.0,2.9228,2.9869,2.9881,3.0418,0.0,0.0,0.0,0.0,0.0,0.0,0.0,3.1182,3.1072,3.1384,3.2173,3.2794,3.3241,3.4199,3.4807,3.5054,3.5325,3.5475,3.5488,3.532,3.5242,3.5224,3.5422,3.5028,3.4186,3.3949,3.3582,3.3034,3.2015,3.1595,3.1477,0.0,0.0,0.0,0.0,0.0,0.0,0.0,0.0,0.0,2.8636,2.9245,3.0037,3.0924,3.2174,3.3259,3.3421,3.446,3.5403,3.4695,3.4874,3.5176,3.4987,3.5332,3.5688,3.5841,3.6614,3.697,3.6088,3.6746,0.0,3.8673,3.9221,3.9875,4.1028,0.0,0.0,0.0,0.0,0.0,0.0,0.0,0.0,0.0,0.0,0.0,0.0,4.3497,4.3497,4.3497,4.3497,4.3597,4.3804,4.4337,4.4682,4.4896,4.5243,4.54,4.54,4.54,4.5111,4.4601,4.4944,4.5096,4.5137,4.5457,4.5586,4.5586,4.5586,4.5586,4.5586,4.5438,4.5362,4.5222,0.0,0.0,2.6345,2.6661,0.0,0.0,0.0,0.0,2.892,2.8975,2.9641,3.0393,0.0,0.0,0.0,0.0,0.0,0.0,0.0,3.0136,3.0424,3.1187,3.2085,3.3073,3.4176,3.4529,3.4884,3.5283,3.5577,3.5339,3.4683,3.4703,3.4615,3.448,3.4403,3.4263,3.4013,3.2955,3.2506,3.2335,3.0876,3.0804,3.1476,3.0415,0.0,0.0,0.0,0.0,0.0,0.0,0.0,0.0,2.9989,3.0751,3.1691,3.323,3.4623,3.544,3.4301,3.5086,3.5715,3.3649,3.4399,3.5218,3.3713,3.4314,3.5351,3.5815,3.6414,3.6735,3.6129,3.6796,3.7755,3.8702,3.8798,3.9291,0.0,0.0,0.0,0.0,0.0,0.0,0.0,0.0,0.0,0.0,0.0,0.0,0.0,4.3424,4.3406,4.3497,4.3424,4.344,4.3548,4.4194,4.4553,0.0,4.4843,4.49,4.4824,4.4976,4.4592,4.3866,4.4592,4.4976,4.5074,4.5438,4.5586,4.5586,4.5586,4.5586,4.5513,4.5222,4.5263,4.5419,0.0,0.0,2.7446,2.753,0.0,0.0,0.0,0.0,0.0,0.0,0.0,0.0,0.0,0.0,0.0,0.0,0.0,0.0,0.0,2.9622,2.9485,2.9989,3.1365,3.2775,3.4157,3.4529,3.4868,3.5211,3.554,3.5337,3.4623,3.5208,3.5069,3.4359,3.4703,3.4221,3.3134,3.2316,3.153,3.0742,2.9719,2.9624,2.9989,2.9464,2.96,0.0,0.0,0.0,0.0,0.0,0.0,0.0,3.0903,3.1867,3.2991,3.3373,3.3389,3.3399,3.368,3.431,3.4693,3.4242,3.459,3.4618,3.2874,3.2641,3.2961,3.3544,3.584,3.7517,3.6735,3.7075,3.7688,3.8674,3.8339,3.8545,0.0,0.0,0.0,0.0,0.0,0.0,0.0,0.0,0.0,0.0,0.0,0.0,4.3497,4.2892,4.2837,4.3461,4.2892,4.2986,4.3862,4.4046,4.429,0.0,4.3983,4.3364,4.2772,4.4121,4.444,4.3962,4.3768,4.4083,4.4757,4.5362,4.5586,4.5586,4.5586,4.5438,4.5201,4.5137,4.4966,4.4781,0.0,0.0,0.0,0.0,0.0,0.0,0.0,0.0,0.0,0.0,0.0,0.0,0.0,0.0,0.0,0.0,0.0,0.0,0.0,0.0,2.9436,3.041,3.1628,3.2959,3.4405,3.4593,3.4737,3.4764,3.494,3.4875,3.4555,3.4875,3.4762,3.4288,3.4093,3.3527,3.2685,3.1807,3.0987,3.0271,2.9344,2.9333,2.9812,2.961,2.955,2.9617,2.9922,0.0,0.0,0.0,0.0,0.0,0.0,0.0,3.4498,3.478,3.4655,3.4388,3.3924,3.3604,3.3423,3.332,3.3475,3.3326,3.2376,3.2309,3.2603,3.3171,3.485,3.6216,3.5928,3.6447,3.7233,3.8181,3.8062,3.8318,0.0,0.0,0.0,0.0,0.0,0.0,0.0,0.0,0.0,0.0,0.0,4.3497,4.3497,4.3094,4.3057,4.3479,4.3075,4.314,4.374,4.3534,4.3538,4.3717,4.2873,4.2192,4.1642,4.2267,4.2557,4.2637,4.2693,4.2976,4.3479,4.4537,4.497,4.5009,4.5432,4.54,4.5096,4.5096,4.4896,4.4606,0.0,0.0,0.0,0.0,0.0,0.0,0.0,0.0,0.0,0.0,0.0,0.0,0.0,0.0,0.0,0.0,0.0,0.0,0.0,0.0,0.0,3.1254,3.2052,3.3179,3.4655,3.4562,3.4412,3.4289,3.4135,3.4303,3.4786,3.4687,3.4635,3.4582,3.3824,3.314,3.2527,3.1369,3.0568,2.9932,2.9201,2.9155,2.955,2.982,0.0,0.0,3.0531,3.1089,3.1309,3.2036,0.0,0.0,0.0,0.0,3.548,3.5959,3.5989,3.5546,3.381,3.2745,3.2048,3.2093,3.2106,3.2066,3.1904,3.2204,3.2787,3.3276,3.4053,3.4755,3.5121,3.6014,3.6911,3.77,3.7921,3.8486,3.9901,0.0,0.0,0.0,0.0,0.0,0.0,0.0,0.0,0.0,0.0,4.3424,4.3296,4.3149,4.3075,4.3075,4.2947,4.2947,4.3075,4.268,4.2493,4.2493,4.1704,4.1089,4.0671,4.0237,4.0441,4.1204,4.1675,4.2001,4.2267,4.3714,4.4297,4.4374,4.5204,4.5322,4.5007,4.4943,4.4707,4.4447,0.0,0.0,0.0,0.0,0.0,0.0,0.0,0.0,0.0,0.0,2.8994,2.903,0.0,2.8539,2.8081,2.797,2.8062,2.8026,2.7805,0.0,0.0,3.093,3.1681,3.2915,3.4655,3.3957,3.3786,3.4199,3.3449,3.4079,0.0,0.0,0.0,3.5928,0.0,3.459,3.2511,3.1092,2.9714,2.8504,2.8478,2.7959,2.73,0.0,0.0,0.0,0.0,0.0,3.1309,3.2036,3.2381,0.0,0.0,0.0,3.4655,3.4772,3.4226,3.3197,3.1648,3.0932,3.0847,3.1827,3.183,3.1541,3.0958,3.1272,3.1981,3.2635,3.4297,3.5826,3.623,3.693,3.753,3.7743,3.8358,3.9086,3.9952,0.0,0.0,0.0,0.0,0.0,0.0,0.0,0.0,0.0,4.3497,4.3185,4.2506,4.1809,4.1423,4.1423,4.0744,4.0708,4.1423,4.1379,4.1323,4.1337,4.0509,3.9743,3.9019,3.8952,3.9871,4.1537,4.1205,4.1575,4.2538,4.3788,4.4297,4.4357,4.4938,4.4966,4.4631,4.429,4.3943,4.3744,0.0,0.0,0.0,0.0,0.0,0.0,0.0,0.0,0.0,0.0,0.0,2.8994,2.8994,2.8686,2.8117,2.7218,2.753,2.7702,2.7482,2.8573,2.9541,3.0143,3.0703,3.1715,3.3279,3.2921,3.267,3.2584,3.2353,3.3669,0.0,3.661,3.678,0.0,0.0,0.0,0.0,3.0754,2.9629,2.9223,2.8181,2.7875,0.0,0.0,0.0,0.0,0.0,0.0,0.0,0.0,3.256,3.3034,3.3677,0.0,0.0,0.0,3.3691,3.2989,3.116,3.0269,3.0073,3.0971,3.1044,3.0903,3.1279,3.1947,3.2591,3.3253,3.464,3.5769,3.5917,3.6545,3.7202,3.7738,3.8414,3.9193,4.002,0.0,0.0,0.0,0.0,0.0,0.0,0.0,0.0,0.0,4.3497,4.3149,4.2341,4.1974,4.1589,4.113,4.0763,4.0744,4.1111,4.0653,4.0194,3.9753,3.9405,3.9038,3.8707,3.8707,3.925,4.0207,4.0196,4.0555,4.1284,4.2942,4.3497,4.3407,4.4624,4.4757,4.4233,4.4076,4.3772,4.3548,0.0,0.0,0.0,0.0,0.0,0.0,0.0,0.0,0.0,0.0,0.0,2.8755,2.8975,0.0,0.0,0.0,2.7145,2.7283,2.6806,2.7984,2.8828,2.917,2.9849,3.0798,3.207,3.1901,3.1618,3.1229,3.1193,3.2876,3.6087,3.6657,3.7201,0.0,3.6742,0.0,0.0,0.0,0.0,3.0173,2.8647,2.8423,2.9062,0.0,0.0,0.0,0.0,0.0,0.0,0.0,0.0,0.0,0.0,3.3541,0.0,0.0,0.0,3.2435,3.1077,3.0106,2.9654,3.0416,3.0506,3.0623,3.1436,3.2417,3.334,3.3667,3.4655,3.5554,3.5733,3.6399,3.7084,3.769,3.8596,3.942,4.002,0.0,0.0,0.0,0.0,0.0,0.0,0.0,0.0,0.0,4.3497,4.3057,4.2047,4.2011,4.1534,4.0524,4.0506,4.0506,4.0506,3.9882,3.9405,3.9001,3.8799,3.8817,3.9001,3.9001,3.9139,3.9424,3.9801,4.0163,4.0672,4.2524,4.3101,4.2978,4.4288,4.4463,4.3986,4.3893,4.3726,4.3513,0.0,0.0,0.0,0.0,0.0,0.0,0.0,0.0,0.0,0.0,0.0,2.8154,2.892,2.8319,2.7512,2.6667,2.6649,2.6372,2.5638,2.7012,2.7918,2.8073,2.9457,0.0,3.1784,3.1073,3.0806,3.1013,3.0201,3.1487,3.4743,3.6024,3.7318,3.8553,3.9064,3.7256,3.3776,0.0,0.0,3.0543,3.0187,2.9619,0.0,0.0,0.0,0.0,0.0,0.0,0.0,0.0,0.0,0.0,0.0,0.0,3.1682,0.0,0.0,0.0,3.0936,3.0474,2.991,3.0433,3.0797,3.102,3.073,3.2112,3.3398,3.318,3.4427,3.5733,3.6384,3.7219,3.7748,3.7806,3.9065,4.007,4.007,0.0,0.0,0.0,0.0,0.0,0.0,0.0,0.0,0.0,4.3497,4.2818,4.1258,4.1167,4.0451,3.8872,3.8836,3.8836,3.8836,3.8781,3.9129,3.9827,3.9056,3.9093,3.9827,3.9827,3.997,4.0253,4.0666,4.1182,4.1822,4.3196,4.3762,4.3754,4.3961,4.4028,4.3955,4.3646,4.3513,4.3597,0.0,0.0,0.0,0.0,0.0,0.0,0.0,0.0,0.0,0.0,0.0,0.0,0.0,2.8282,2.7475,2.6667,2.6612,2.6603,2.6595,2.7833,2.8481,2.8264,2.9496,3.0222,3.0251,3.0493,3.0385,2.9982,2.9775,3.0939,3.3351,3.4685,3.5851,3.693,3.8267,3.7467,3.4986,3.2694,0.0,0.0,0.0,0.0,0.0,0.0,0.0,0.0,0.0,0.0,0.0,0.0,0.0,0.0,0.0,0.0,0.0,0.0,3.0875,2.9894,3.0855,3.02,2.949,3.0349,3.0586,3.0649,3.0871,3.2261,3.3259,3.2269,3.3877,3.5477,3.5396,3.6695,3.7978,3.8414,3.9385,4.007,4.007,0.0,0.0,0.0,0.0,0.0,0.0,0.0,0.0,0.0,0.0,4.1717,4.1148,4.012,3.9313,3.8726,3.8707,3.8707,3.8707,3.9203,3.9606,3.99,4.0139,4.0396,4.0671,4.0671,4.0837,4.1185,4.181,4.2052,4.2009,4.3057,4.336,4.3219,4.377,4.3881,4.366,4.3548,4.3646,4.3849,0.0,0.0,0.0,0.0,0.0,3.0198,3.0106,2.9456,2.8998,0.0,0.0,0.0,0.0,0.0,2.7879,2.7071,2.6615,2.6518,2.682,2.8058,2.8682,2.8446,2.9819,3.0433,3.0083,3.0342,3.0213,2.9675,2.9546,3.0304,3.1961,3.3283,3.4364,3.523,3.6594,3.6502,0.0,0.0,0.0,3.1614,0.0,0.0,3.0438,0.0,0.0,0.0,0.0,0.0,0.0,0.0,0.0,0.0,0.0,0.0,0.0,0.0,0.0,0.0,3.0817,3.0366,2.9742,3.0665,3.0654,3.0484,3.0848,3.2062,3.2916,3.2048,3.3814,3.5525,3.5705,3.6854,3.8035,3.8799,3.961,4.007,4.007,4.007,0.0,0.0,0.0,0.0,0.0,0.0,0.0,0.0,0.0,0.0,4.1148,4.0102,3.9258,3.8726,3.8707,3.8836,3.9093,3.9368,3.9772,4.0304,4.0579,4.0708,4.0726,4.1258,4.1461,4.1501,4.2557,4.2818,4.2492,4.3235,4.34,4.323,4.3677,4.3693,4.3497,4.3497,4.3646,4.3881,0.0,0.0,3.2315,3.1861,3.0833,3.0106,3.0106,2.8817,2.8136,2.8883,0.0,0.0,0.0,0.0,0.0,2.7897,2.6726,2.611,2.6188,2.7633,2.8464,2.8515,3.0399,3.1403,3.1366,3.065,3.0246,3.021,2.9439,2.9562,3.0588,0.0,3.29,3.363,3.4284,3.4516,3.4415,0.0,3.4162,3.3395,0.0,3.2105,3.2331,0.0,0.0,0.0,3.2335,3.2353,0.0,3.2334,0.0,0.0,0.0,0.0,0.0,0.0,0.0,0.0,0.0,0.0,0.0,3.1243,3.0956,3.0447,3.0417,3.148,3.2452,3.2437,3.4038,3.5913,3.7467,3.779,3.8092,3.8799,3.961,4.007,4.007,4.007,0.0,0.0,0.0,0.0,0.0,0.0,0.0,0.0,4.3442,4.2763,4.124,4.1093,4.0359,3.8781,3.8707,3.9074,3.9845,3.9111,3.9533,4.1075,4.0304,3.9937,4.001,4.1589,4.1901,4.1277,4.2818,4.3423,4.3352,4.3799,4.3986,4.3955,4.3631,4.3497,4.3497,4.3497,4.3532,4.3631,0.0,3.1505,3.1237,3.1363,3.0681,3.0154,3.0106,2.9782,2.9289,0.0,0.0,0.0,0.0,0.0,0.0,2.816,2.7633,2.7687,2.8582,2.93,2.9466,2.89,3.1041,3.1733,3.0558,3.1458,3.1384,3.021,2.9989,2.9724,0.0,0.0,0.0,0.0,3.3198,3.3281,3.2213,3.2727,0.0,0.0,3.1499,3.1172,0.0,0.0,0.0,0.0,0.0,3.2364,3.253,0.0,3.2337,3.1008,0.0,0.0,0.0,0.0,0.0,0.0,2.9579,0.0,0.0,0.0,0.0,0.0,2.8487,2.9774,3.0926,3.0477,3.2786,3.5189,3.6159,3.7605,3.887,3.961,3.9952,4.007,4.007,4.007,0.0,0.0,0.0,0.0,0.0,0.0,0.0,0.0,4.2415,4.1827,4.1974,4.0855,4.0029,3.957,3.9001,3.8817,3.9038,3.9386,3.979,4.023,4.0598,4.1075,4.1644,4.2103,4.2506,4.2855,4.3296,4.3468,4.3444,4.3586,4.3646,4.3612,4.3548,4.3497,4.3497,4.3497,4.3646,4.3881,3.131,3.1234,3.1234,3.1439,3.1011,3.0707,3.0879,3.0504,3.0015,0.0,0.0,0.0,0.0,0.0,0.0,2.9541,2.8529,2.8395,2.9759,2.9779,2.9682,2.9507,3.1494,3.2173,3.1219,3.2137,3.199,3.0705,3.0356,0.0,0.0,0.0,0.0,0.0,3.1377,3.1644,0.0,0.0,0.0,0.0,3.1348,0.0,0.0,3.1342,3.1731,0.0,0.0,0.0,3.2651,3.3248,3.204,0.0,0.0,0.0,0.0,0.0,0.0,0.0,0.0,0.0,0.0,0.0,0.0,0.0,2.7655,2.9086,3.0477,3.0417,3.3138,3.5654,3.6063,3.7405,3.8692,3.9497,3.9631,3.9732,4.0037,4.007,4.0189,0.0,0.0,0.0,0.0,4.3317,4.3864,4.3516,4.2635,4.2158,4.2286,4.1093,4.0249,3.99,3.9441,3.9203,3.9203,3.9331,3.957,3.99,4.0726,4.1185,4.1332,4.2341,4.2873,4.302,4.3332,4.3497,4.3497,4.3497,4.3497,4.3497,4.3497,4.3497,4.3497,4.3497,4.3612,4.3836,0.0,3.1376,3.1666,3.1771,3.1531,3.1444,3.1923,3.0992,3.0378,0.0,0.0,0.0,0.0,0.0,0.0,0.0,2.9377,2.8694,3.01,2.9539,2.9475,3.0167,3.1659,3.2485,3.2485,3.2559,3.221,3.1384,0.0,0.0,0.0,0.0,0.0,0.0,2.9429,2.9961,0.0,0.0,0.0,3.1703,3.1394,3.1801,0.0,0.0,3.216,3.2648,3.3185,3.3029,3.2662,3.299,3.1153,0.0,0.0,0.0,0.0,0.0,2.7993,0.0,0.0,0.0,0.0,0.0,0.0,0.0,2.742,2.8967,3.0513,3.1396,3.4094,3.6334,3.6646,3.7297,3.8032,3.8754,3.8901,3.9171,3.9832,4.0019,4.0341,0.0,0.0,0.0,4.303,4.4044,4.4378,4.3552,4.3497,4.3185,4.247,4.168,4.091,4.0175,3.9974,3.99,3.99,3.9093,3.9056,3.9772,4.0579,4.0653,4.0102,4.2341,4.302,4.247,4.3185,4.3497,4.3497,4.3497,4.3497,4.3497,4.3497,4.3497,4.3497,4.3497,4.3497,4.3597,2.9791,3.0158,3.0711,3.1649,3.1531,3.1444,3.1923,3.1245,3.0602,3.035,0.0,0.0,0.0,0.0,0.0,0.0,0.0,2.9492,3.0066,2.9715,2.9717,3.0167,3.1109,3.1623,3.1623,3.2284,3.221,3.1384,0.0,0.0,0.0,0.0,0.0,0.0,2.9588,2.9755,0.0,0.0,0.0,3.0497,3.0114,0.0,3.2015,3.1026,3.143,3.255,3.2664,3.2634,3.2431,3.1231,3.0115,2.9086,0.0,0.0,0.0,0.0,0.0,0.0,0.0,0.0,0.0,0.0,0.0,0.0,2.7363,2.8227,2.9562,3.1844,3.3333,3.4692,3.6411,3.7336,3.7947,3.806,3.8401,3.8722,3.8814,3.9569,4.0263,4.0656,0.0,0.0,4.367,4.4326,4.4378,4.3552,4.3497,4.3424,4.3259,4.2506,4.1992,4.1846,4.0579,3.99,3.99,3.9093,3.8781,3.8946,3.9753,4.0396,4.091,4.2029,4.28,4.3259,4.3424,4.3497,4.3497,4.3497,4.3497,4.3497,4.3497,4.3497,4.3497,4.3497,4.3497,4.3582,2.9988,3.0355,3.0963,3.1969,3.2015,3.2125,3.2809,3.2053,3.1386,3.1345,0.0,0.0,0.0,0.0,0.0,0.0,0.0,0.0,0.0,2.9933,2.9485,2.9901,3.029,3.0611,3.0797,3.1238,3.1456,3.1384,0.0,0.0,0.0,0.0,0.0,0.0,0.0,0.0,0.0,0.0,3.0016,3.0408,2.9782,0.0,3.1052,3.0513,3.0734,3.148,3.224,3.2243,3.1779,3.0875,2.9811,0.0,0.0,2.9182,2.8592,0.0,2.8323,2.8147,0.0,0.0,0.0,2.7288,0.0,0.0,0.0,2.8779,3.0464,3.2171,3.3616,3.4938,3.5975,3.6484,3.6891,3.728,3.7751,3.8001,3.7812,3.8991,4.0259,4.1223,0.0,0.0,4.3768,4.4381,4.4378,4.3552,4.3497,4.3497,4.3497,4.3112,4.2708,4.2304,4.1515,4.0708,3.99,3.99,3.9698,3.9313,4.0524,4.1313,4.1735,4.2525,4.3112,4.3497,4.3497,4.3497,4.3497,4.3497,4.3497,4.3497,4.3497,4.3497,4.3497,4.3497,4.3497,4.3603,3.0248,3.0677,3.1295,3.2178,3.2451,3.2745,3.3447,3.273,3.2174,0.0,0.0,0.0,0.0,0.0,0.0,0.0,0.0,0.0,0.0,0.0,2.9449,2.9699,2.9691,2.9782,2.9977,3.0266,3.0689,3.1309,0.0,0.0,0.0,0.0,0.0,0.0,0.0,0.0,0.0,0.0,0.0,3.0159,0.0,2.9611,3.0197,2.9923,2.994,3.0228,3.1379,3.1337,3.0657,3.0657,0.0,2.9052,3.0635,3.0309,0.0,0.0,0.0,0.0,0.0,0.0,0.0,0.0,0.0,2.7402,0.0,0.0,0.0,3.2498,3.4121,3.5431,3.5563,0.0,0.0,0.0,0.0,0.0,0.0,3.8566,0.0,4.1533,0.0,0.0,0.0,4.3944,4.403,4.3534,4.3497,4.3497,4.3497,4.3497,4.3185,4.2543,4.2378,4.168,4.0359,4.0855,4.0781,4.0139,4.1607,4.2304,4.2323,4.313,4.3497,4.3497,4.3497,4.3497,4.3497,4.3497,4.3497,4.3497,4.3497,4.3497,4.3497,4.3497,4.3589,4.386,2.924,2.9739,3.0585,3.1685,3.223,3.2517,3.2648,3.2545,0.0,0.0,0.0,0.0,0.0,0.0,0.0,0.0,0.0,0.0,3.0768,0.0,0.0,3.014,3.0057,2.9798,2.9223,3.0209,3.081,3.0939,0.0,0.0,0.0,0.0,0.0,0.0,2.9497,0.0,0.0,0.0,2.8802,0.0,2.8025,2.8897,0.0,2.8643,2.8608,2.9387,2.9392,2.9173,2.8853,0.0,2.9803,3.0592,0.0,3.1569,3.1988,0.0,0.0,0.0,0.0,0.0,0.0,0.0,2.9557,0.0,0.0,0.0,3.1781,3.3041,0.0,0.0,0.0,0.0,0.0,0.0,0.0,0.0,3.7443,3.8394,3.9338,4.0063,4.0981,0.0,0.0,4.2527,4.2837,4.3442,4.3497,4.3497,4.3497,4.3497,4.3442,4.3369,4.2671,4.2213,4.2029,4.1423,4.1056,4.0983,4.1882,4.2304,4.2323,4.313,4.3497,4.3497,4.3497,4.3497,4.3497,4.3497,4.3497,4.3497,4.3497,4.3497,4.3497,4.3497,4.3956,4.4632,3.0129,3.0531,3.0955,3.1664,3.2196,3.2484,3.2484,3.2299,0.0,0.0,0.0,0.0,0.0,0.0,0.0,0.0,0.0,3.3002,0.0,0.0,0.0,3.176,3.0469,2.9516,2.9048,2.9043,2.954,3.0487,2.9449,0.0,0.0,0.0,0.0,0.0,3.0222,0.0,3.0992,0.0,2.8989,0.0,0.0,0.0,0.0,2.8053,2.8278,2.9097,2.8989,2.8748,2.8584,0.0,3.0007,0.0,0.0,0.0,0.0,0.0,0.0,0.0,0.0,0.0,0.0,0.0,0.0,0.0,3.1498,0.0,3.2849,0.0,0.0,0.0,0.0,0.0,0.0,0.0,3.6522,0.0,0.0,0.0,3.9137,0.0,0.0,0.0,0.0,0.0,0.0,0.0,4.28,4.28,4.28,4.324,4.3497,4.3497,4.3167,4.2763,4.2304,4.2433,4.2268,4.1809,4.2598,4.3002,4.3002,4.3332,4.3497,4.3497,4.3497,4.3497,4.3497,4.3497,4.3497,4.3497,4.3497,4.3497,4.3552,4.4011,4.4415,4.4837,3.0937,0.0,0.0,0.0,3.2004,3.2316,3.2316,0.0,0.0,0.0,0.0,0.0,3.4129,3.4056,0.0,0.0,3.4433,3.4465,0.0,0.0,3.25,0.0,0.0,0.0,2.8722,2.8526,2.8952,3.0043,2.9068,0.0,0.0,0.0,0.0,0.0,0.0,3.0506,3.1097,0.0,2.9035,2.844,2.7931,2.763,2.7514,2.744,2.7774,2.8295,2.8271,2.8217,2.8271,2.8958,2.9739,0.0,3.1005,0.0,0.0,0.0,0.0,0.0,3.1698,0.0,0.0,0.0,0.0,0.0,0.0,0.0,0.0,0.0,0.0,0.0,0.0,0.0,0.0,0.0,0.0,3.7,0.0,3.8135,0.0,0.0,0.0,0.0,0.0,0.0,0.0,0.0,0.0,4.2304,4.2304,4.3057,4.3497,4.3497,4.3497,4.3222,4.2635,4.3204,4.3204,4.2635,4.3222,4.3497,4.3497,4.3497,4.3497,4.3497,4.3497,4.3497,4.3497,4.3497,4.3497,4.3497,4.3497,4.3626,4.3901,4.4488,4.4856,4.5241,3.1055,3.119,0.0,0.0,3.1528,3.1842,3.193,0.0,0.0,0.0,0.0,0.0,0.0,0.0,0.0,0.0,0.0,3.394,3.3482,0.0,3.3513,0.0,0.0,3.0146,0.0,2.93,2.9881,2.9622,2.9189,0.0,0.0,0.0,0.0,0.0,0.0,3.036,3.0752,2.9607,2.8598,2.771,2.7442,2.7006,2.6531,0.0,2.6659,2.6589,2.6564,0.0,0.0,2.7667,2.8716,0.0,0.0,0.0,0.0,0.0,0.0,0.0,0.0,0.0,0.0,3.3572,0.0,0.0,0.0,0.0,3.3406,0.0,0.0,0.0,0.0,0.0,0.0,0.0,0.0,0.0,0.0,0.0,0.0,0.0,0.0,0.0,0.0,0.0,0.0,0.0,0.0,0.0,4.2304,4.3057,4.3497,4.3497,4.3497,4.3479,4.3442,4.3479,4.3479,4.3442,4.3479,4.3497,4.3497,4.3497,4.3497,4.3497,4.3497,4.3497,4.3497,4.3497,4.3497,4.3497,4.3497,4.3975,4.4672,4.4709,4.5186,4.5975,3.0437,0.0,0.0,0.0,0.0,0.0,0.0,3.1482,0.0,0.0,0.0,0.0,0.0,3.5811,3.5275,0.0,0.0,3.5588,3.4911,3.4631,0.0,0.0,0.0,3.1733,0.0,0.0,0.0,0.0,0.0,0.0,0.0,0.0,0.0,0.0,0.0,3.0212,0.0,0.0,0.0,0.0,0.0,2.6994,2.7204,0.0,0.0,2.6533,2.6533,2.6816,0.0,2.7613,2.8571,2.9632,2.9734,3.044,3.1346,3.1565,3.2047,0.0,0.0,0.0,3.4319,3.3645,0.0,0.0,0.0,0.0,0.0,0.0,0.0,0.0,0.0,0.0,0.0,0.0,0.0,0.0,0.0,0.0,0.0,0.0,0.0,0.0,0.0,0.0,0.0,0.0,0.0,0.0,0.0,4.1974,4.2708,4.2708,4.3222,4.3497,4.3497,4.3497,4.3497,4.3497,4.3497,4.3497,4.3497,4.3497,4.3497,4.3497,4.3497,4.3497,4.3497,4.3497,4.3497,4.3534,4.4085,4.447,4.4764,4.5296,4.6012,4.6819,3.0499,3.0869,0.0,0.0,0.0,0.0,0.0,0.0,0.0,0.0,3.4523,0.0,3.6473,0.0,3.6288,0.0,3.5633,3.6038,3.5613,3.4686,0.0,3.42,3.3179,0.0,0.0,0.0,0.0,0.0,0.0,3.3288,0.0,0.0,0.0,0.0,0.0,2.9801,2.9535,2.8911,2.8157,0.0,0.0,2.6661,0.0,0.0,2.6498,2.6798,0.0,2.6691,2.7069,2.7224,2.7968,2.8849,2.8606,2.9631,3.0906,3.0906,3.1659,3.2512,3.2512,3.3469,0.0,3.3985,3.453,0.0,3.5862,0.0,0.0,0.0,0.0,0.0,0.0,0.0,0.0,0.0,0.0,0.0,0.0,3.8465,0.0,0.0,0.0,0.0,0.0,0.0,0.0,0.0,0.0,0.0,0.0,0.0,4.2304,4.2304,4.3075,4.3497,4.3497,4.3497,4.3497,4.3497,4.3497,4.3497,4.3497,4.3497,4.3497,4.3497,4.3497,4.3497,4.3497,4.3497,4.3497,4.3571,4.4397,4.4874,4.5223,4.603,4.6838,4.7609,3.1167,3.119,0.0,0.0,3.1162,0.0,0.0,0.0,3.2594,0.0,3.5235,3.5067,3.7103,3.6509,3.5735,3.514,3.5134,3.5248,3.5498,3.4184,0.0,0.0,3.2223,3.1164,3.0495,0.0,0.0,0.0,0.0,0.0,0.0,0.0,0.0,0.0,3.0129,0.0,2.9034,2.8633,2.8166,2.7617,2.6396,2.6181,2.6463,2.5961,2.6398,2.7205,2.6653,2.6533,2.6533,2.6533,2.704,2.767,2.767,2.8812,3.0208,3.0208,3.1291,3.2452,3.2512,3.344,3.445,3.4552,0.0,0.0,0.0,0.0,3.6823,0.0,0.0,0.0,0.0,0.0,0.0,0.0,0.0,0.0,0.0,0.0,0.0,0.0,0.0,3.9533,3.8781,0.0,0.0,0.0,0.0,0.0,0.0,0.0,4.2213,4.2304,4.3002,4.3406,4.3497,4.3442,4.3442,4.3497,4.3497,4.3497,4.3497,4.3497,4.3497,4.3497,4.3497,4.3516,4.3552,4.3552,4.3571,4.3699,4.4507,4.5314,4.6104,4.6893,4.7682,4.8361,3.0525,3.0878,3.1055,0.0,3.0729,3.1059,0.0,0.0,0.0,0.0,3.4838,3.5438,3.6027,3.6358,3.5839,3.4023,3.438,0.0,0.0,0.0,0.0,3.4227,3.3861,3.3496,3.3134,3.395,0.0,3.4118,0.0,0.0,3.5268,0.0,0.0,0.0,0.0,2.7813,2.6802,2.7958,2.8343,2.8142,2.7524,2.7307,0.0,0.0,2.6398,2.7205,2.6653,2.6533,2.6533,2.6533,2.6658,2.6782,2.6782,2.755,2.8492,2.9129,3.0378,3.1699,3.2303,3.3125,3.3984,3.5089,3.566,3.6226,0.0,0.0,0.0,0.0,0.0,0.0,0.0,0.0,0.0,0.0,0.0,0.0,0.0,0.0,0.0,3.8707,0.0,0.0,0.0,0.0,0.0,0.0,0.0,0.0,0.0,0.0,0.0,4.2268,4.1919,4.2286,4.3479,4.291,4.291,4.3497,4.3497,4.3497,4.3497,4.3497,4.3497,4.3497,4.3497,4.3828,4.4397,4.4397,4.4745,4.5351,4.6177,4.6985,4.7719,4.7921,4.8526,4.926,3.0254,3.0559,0.0,3.0335,0.0,0.0,3.1642,3.1852,0.0,3.5069,3.5527,0.0,3.6527,3.6721,3.6021,3.4102,3.4004,0.0,3.3423,0.0,0.0,3.401,3.3774,3.3767,3.4165,3.4415,0.0,3.4574,0.0,0.0,3.4926,3.355,0.0,0.0,0.0,2.7328,2.5936,2.7074,2.7713,2.7898,2.7444,0.0,0.0,2.6426,2.6462,2.6879,2.6647,2.6533,2.6533,2.6533,2.6533,2.6533,2.6533,2.7284,2.8363,2.8876,3.0116,3.1424,3.1945,3.2557,3.3307,3.4383,3.5424,3.6474,3.7544,3.8354,3.8853,0.0,0.0,0.0,0.0,0.0,0.0,0.0,0.0,0.0,0.0,0.0,0.0,0.0,3.9019,0.0,0.0,0.0,0.0,0.0,0.0,0.0,0.0,0.0,0.0,4.1222,4.1846,4.2249,4.2451,4.2359,4.2525,4.2983,4.2983,4.3149,4.3497,4.3497,4.3497,4.3516,4.3864,4.4287,4.4745,4.5094,4.5498,4.5975,4.6801,4.7829,4.8857,4.8857,4.9169,4.9627,3.0082,3.0166,0.0,0.0,0.0,0.0,0.0,3.2148,0.0,3.6788,0.0,3.6092,3.732,3.6912,3.5941,3.4558,0.0,3.3313,3.3339,3.2237,3.2196,3.3546,3.292,3.3122,3.4311,3.369,3.351,0.0,0.0,0.0,0.0,3.359,3.2273,0.0,0.0,0.0,0.0,2.6585,2.7037,2.7404,2.7074,2.6865,2.6676,2.6698,2.6614,2.6533,2.6533,2.6533,2.6533,2.6533,2.6533,2.6533,2.6533,2.7537,2.8876,2.9002,3.0133,3.1351,3.1467,3.2002,3.273,3.3491,3.515,3.688,3.7752,3.9008,3.9969,4.0054,4.007,3.9698,0.0,0.0,0.0,0.0,0.0,0.0,0.0,0.0,0.0,0.0,0.0,0.0,0.0,0.0,0.0,0.0,0.0,0.0,0.0,0.0,0.0,3.9918,4.1919,4.2451,4.1277,0.0,4.2304,4.2616,4.2396,4.2708,4.3497,4.3608,4.3644,4.3699,4.4507,4.4929,4.5076,4.5773,4.6122,4.6305,4.7113,4.8324,4.9609,4.9829,4.9903,4.9994,2.9428,0.0,0.0,0.0,0.0,2.9767,3.1839,3.2368,3.289,3.4115,3.5038,3.5486,3.5133,3.5015,3.4636,3.3785,3.3047,0.0,0.0,0.0,0.0,3.4295,3.3667,3.3668,3.447,3.3261,3.2839,0.0,0.0,0.0,0.0,0.0,0.0,0.0,0.0,0.0,2.7119,2.7812,0.0,2.8222,2.869,2.8297,2.739,2.7245,2.6905,2.6533,2.6533,2.6533,2.6533,2.6533,2.6533,2.6533,2.6533,2.7162,2.8051,2.8812,2.969,3.0644,3.1351,3.2042,3.2896,3.4191,3.5198,3.6371,3.8371,3.8974,3.936,3.9952,4.007,4.0003,3.9749,0.0,0.0,0.0,0.0,0.0,0.0,0.0,0.0,0.0,0.0,3.957,0.0,0.0,0.0,0.0,0.0,0.0,0.0,0.0,0.0,0.0,4.0304,0.0,0.0,0.0,4.2323,4.4268,4.2928,4.2708,4.3516,4.4195,4.4488,4.4544,4.5351,4.6085,4.6709,4.6838,4.7297,4.7976,4.882,4.9334,4.9738,5.1077,5.1573,5.1591,2.8314,0.0,0.0,0.0,0.0,0.0,0.0,3.2245,0.0,3.4421,3.4839,3.495,3.4644,3.4301,3.3808,3.3067,3.3001,3.2835,3.2463,3.2747,3.3383,3.446,3.3514,3.3577,3.4883,3.3349,3.2553,3.2747,0.0,0.0,0.0,0.0,0.0,2.9835,0.0,2.7394,0.0,0.0,0.0,2.8292,2.8929,2.8479,2.746,2.7637,2.7193,2.6533,2.6533,2.6533,2.6533,2.6533,2.6533,2.6589,2.6973,2.767,2.8556,2.9442,3.0269,3.1029,3.1409,3.1739,3.2348,3.3752,3.4642,3.566,3.7461,3.8447,3.9089,3.9445,3.9817,4.0052,3.9904,3.9375,0.0,0.0,0.0,0.0,0.0,0.0,0.0,0.0,0.0,0.0,0.0,0.0,0.0,0.0,0.0,3.8872,0.0,0.0,0.0,0.0,0.0,0.0,0.0,0.0,0.0,4.3461,4.2671,4.2947,4.414,4.4525,4.4947,4.5369,4.6177,4.6746,4.715,4.7572,4.8233,4.9022,4.9426,5.0086,5.093,5.1701,5.2252,5.2619,0.0,2.7648,0.0,0.0,2.8547,0.0,3.1433,3.2188,3.3221,3.5323,3.4929,3.4535,3.4681,3.391,3.3187,3.2638,3.2855,3.2765,3.2088,3.2287,3.2825,3.3804,3.2961,3.3239,3.4879,3.3191,3.2183,0.0,0.0,0.0,0.0,0.0,0.0,0.0,0.0,0.0,0.0,0.0,2.7883,2.8323,2.875,2.8335,2.7494,2.7808,2.7318,2.6533,2.6533,2.6596,2.6697,2.6697,2.669,2.6837,2.7484,2.8427,2.947,3.023,3.0939,3.1497,3.1646,3.1745,3.2048,3.3287,3.4169,3.5047,3.6471,3.7686,3.8565,3.8717,3.9343,3.9848,3.9787,3.9595,0.0,0.0,0.0,0.0,0.0,0.0,0.0,0.0,0.0,0.0,3.9739,0.0,0.0,0.0,0.0,3.8781,3.8946,3.9386,0.0,0.0,0.0,4.1387,4.1111,0.0,4.2139,0.0,4.2635,4.3314,4.4727,4.5057,4.5571,4.6195,4.7021,4.748,4.77,4.8324,4.9077,4.9848,5.0031,5.0875,5.2013,5.2179,5.2656,5.3206,0.0,0.0,0.0,0.0,0.0,0.0,3.2139,3.2277,3.2937,3.5231,3.4945,3.4519,3.4596,3.3448,3.2645,3.2517,3.2013,3.1341,3.0462,3.1732,3.2219,3.1658,3.2204,3.2871,3.3683,3.2317,3.1375,0.0,0.0,0.0,0.0,0.0,0.0,0.0,0.0,0.0,0.0,2.8348,2.88,2.885,2.89,2.8561,2.7984,2.7532,2.6979,2.6533,2.6533,2.6779,2.7205,2.7205,2.7396,2.7604,2.767,2.8812,3.0309,3.0917,3.1276,3.1601,3.2258,3.2463,3.2695,3.3443,3.4086,3.4969,3.6464,3.6891,3.7178,3.7872,3.8582,3.9325,3.9951,3.9264,3.8829,0.0,0.0,0.0,0.0,0.0,0.0,0.0,0.0,0.0,0.0,3.8879,0.0,0.0,3.8707,3.9019,3.9753,3.9166,3.8817,3.8817,0.0,3.9698,4.1093,4.0451,4.1589,4.447,4.3736,4.3846,4.4764,4.6232,4.6929,4.704,4.7847,4.8636,4.9352,4.9426,4.9958,5.0765,5.1481,5.1867,5.2087,5.2821,5.3151,5.3206,0.0,0.0,0.0,0.0,0.0,0.0,0.0,3.2354,3.3135,3.5266,3.4925,3.4519,3.4666,3.3808,3.3562,3.4382,3.377,3.3209,3.2911,3.3466,3.3403,3.2624,3.2597,3.2664,3.2886,3.2392,3.1649,0.0,0.0,0.0,0.0,0.0,0.0,0.0,0.0,2.8643,2.8298,2.8737,2.9126,2.9415,2.9063,2.8599,2.8107,2.8068,2.7595,2.7012,2.7516,2.7748,2.7843,2.8447,2.8699,2.8902,2.943,3.042,3.1575,3.235,3.2362,3.2183,3.2437,3.2251,3.2216,3.3323,3.3786,3.4366,3.5748,3.6451,3.6857,3.7161,3.8176,3.9225,3.9935,3.9761,3.943,0.0,0.0,0.0,0.0,0.0,0.0,0.0,0.0,0.0,0.0,0.0,0.0,0.0,0.0,3.8836,3.9166,3.9331,0.0,4.0836,0.0,4.1148,4.3259,4.2451,4.2947,4.4709,4.4856,4.5369,4.6177,4.6819,4.7664,4.8618,4.893,4.9554,5.0306,5.0306,5.0784,5.1555,5.1867,5.2289,5.2766,5.3096,5.3206,5.3206,2.3717,0.0,2.6813,0.0,2.8223,2.986,3.1401,3.2165,3.3198,3.4679,3.4866,3.4778,3.4647,3.4006,3.4075,3.5332,3.4574,3.401,3.4013,3.381,3.3355,3.2596,3.2593,0.0,3.2781,3.254,3.1922,3.0924,3.1575,0.0,0.0,0.0,0.0,0.0,2.9126,2.9279,2.8938,2.9114,2.9415,2.9729,2.8988,2.8583,2.8515,2.8529,2.817,2.7748,2.849,2.8807,2.8908,2.9516,3.0244,3.0855,3.111,3.1803,3.2723,3.3585,3.332,3.2796,3.2796,3.2317,3.208,3.3282,3.3582,3.3937,3.5316,3.6045,3.6569,3.7009,3.7939,3.8954,3.9901,4.007,3.9918,3.9394,0.0,0.0,0.0,0.0,0.0,0.0,4.051,4.0166,4.0235,3.9473,0.0,0.0,0.0,3.8953,3.9386,0.0,0.0,0.0,0.0,0.0,0.0,4.3552,4.3791,4.5057,4.5883,4.6562,4.7131,4.7352,4.8251,4.9591,4.9591,5.0178,5.1151,5.1151,5.1628,5.2344,5.2344,5.2711,5.3206,5.3206,5.3206,5.3206,2.2843,2.4946,2.6521,2.6521,2.8347,2.9958,3.0514,3.175,3.2804,3.3416,3.4698,3.5262,3.4583,3.3933,3.381,3.4532,3.3395,3.2593,3.2433,3.1896,3.1166,0.0,0.0,3.2811,3.3469,3.2601,3.1971,3.1765,0.0,0.0,2.6739,0.0,2.7653,2.7788,2.9202,2.9453,2.8963,2.9541,2.9779,2.9691,2.8574,2.8651,2.9315,2.8887,2.8635,2.8552,2.9227,2.9834,3.0349,3.0421,3.1969,3.3715,3.2544,3.2757,3.3619,3.4277,3.3993,3.3484,3.3484,3.3006,3.267,3.3393,3.3582,3.3937,3.5316,3.5622,3.6062,3.7584,3.7905,3.8362,3.9817,4.007,4.007,4.007,0.0,0.0,0.0,0.0,0.0,0.0,4.0026,3.9777,3.9461,3.9151,0.0,0.0,0.0,0.0,0.0,0.0,0.0,4.1075,3.957,0.0,4.3461,4.2708,4.3516,4.5902,4.6709,4.7075,4.715,4.7921,4.8765,4.9591,4.9591,5.049,5.1977,5.1977,5.2454,5.3206,5.3206,5.3206,5.3206,5.3206,5.3206,5.3206,2.2845,2.4971,2.6515,2.6479,2.8317,3.0303,3.1744,3.2358,3.3114,3.4634,3.5232,3.5416,3.5175,3.5053,3.5427,0.0,3.5256,3.4395,0.0,3.4185,3.3539,3.2518,3.3185,3.3451,3.3256,3.1989,3.1032,3.0317,0.0,0.0,0.0,2.6968,2.7533,2.7521,2.9108,2.9691,2.9528,2.9716,3.0139,3.0693,2.9952,2.9797,3.0077,3.0147,2.9552,2.8959,3.0378,3.0905,3.1136,3.2401,3.3377,3.4023,3.4353,3.4654,3.4906,3.5115,3.4696,3.4158,3.4158,3.4091,3.4145,3.487,3.502,3.5284,3.6198,3.6417,3.684,3.8345,3.865,3.8937,3.9901,4.007,3.9918,3.9411,4.0119,0.0,0.0,0.0,0.0,0.0,4.0492,3.9964,3.9652,3.9382,0.0,0.0,0.0,0.0,0.0,0.0,0.0,0.0,4.1978,0.0,4.5938,4.5168,4.5424,4.6746,4.7535,4.8233,4.882,4.9646,5.0453,5.1224,5.1224,5.183,5.2821,5.2821,5.2968,5.3206,5.3206,5.3206,5.3206,5.3206,5.3206,5.3206,2.3456,2.5209,2.6619,2.7018,2.887,3.0703,3.1719,3.2598,3.3514,3.4609,3.519,3.5504,3.5504,3.5569,0.0,3.7259,3.5798,3.5069,3.5543,3.4934,3.403,3.304,3.3472,3.3167,3.1931,0.0,0.0,2.8992,2.7249,2.614,2.5624,2.6718,2.7317,2.7699,2.9127,2.9792,2.9792,2.9792,3.0343,3.1127,3.022,3.0493,3.1361,3.0827,3.0573,3.0637,3.1621,3.2064,3.2464,3.3602,3.4245,3.4691,3.5279,3.5504,3.5504,3.5504,3.519,3.4865,3.4878,3.4971,3.5216,3.5905,3.6097,3.6307,3.7037,3.7195,3.7533,3.8751,3.8988,3.9225,3.9935,4.0307,4.0358,3.9901,4.0595,4.1187,4.1235,0.0,0.0,0.0,0.0,0.0,0.0,3.9844,3.9896,0.0,0.0,0.0,0.0,0.0,0.0,4.3379,4.3235,0.0,4.7057,4.6617,4.6764,4.7572,4.8398,4.9224,5.0068,5.0563,5.1242,5.1995,5.1995,5.2454,5.3206,5.3206,5.3206,5.3206,5.3206,5.3206,5.3206,5.3206,5.3206,5.3206,2.4335,2.5793,2.6942,0.0,2.9821,0.0,3.076,3.2577,3.3877,3.366,3.4726,3.5504,3.5504,3.5504,3.5782,3.643,0.0,0.0,0.0,3.4304,3.3099,3.227,3.268,3.2022,3.0051,2.9514,2.8697,2.7611,2.5732,2.5378,2.6389,2.6565,2.7128,2.8176,2.9275,2.9792,2.9792,2.9869,3.0419,3.1201,2.9828,3.0806,3.2992,3.133,3.1667,3.3064,3.2765,3.3241,3.4027,3.4095,3.4758,3.5504,3.5504,3.5504,3.5504,3.5504,3.5504,3.5533,3.5614,3.5714,3.5954,3.6734,3.6951,3.7153,3.7812,3.799,3.8193,3.892,3.9073,3.9276,3.9952,4.0646,4.1136,4.1187,4.1204,4.141,4.2016,0.0,0.0,0.0,0.0,0.0,0.0,4.0435,4.0607,0.0,0.0,0.0,0.0,0.0,4.1428,4.285,4.3552,4.4968,4.7149,4.726,4.77,4.8489,4.9334,5.016,5.0894,5.0949,5.1371,5.2068,5.2068,5.2509,5.3206,5.3206,5.3206,5.3206,5.3206,5.3206,5.3206,5.3206,5.3243,5.3298,0.0,0.0,2.7767,2.8075,2.9789,3.1443,3.2009,3.3196,3.4278,3.4927,3.531,3.5504,3.5504,3.5504,3.5554,3.5733,3.5298,3.5105,3.5528,3.4288,3.3589,3.3523,3.206,3.0988,3.0474,2.7984,2.5896,2.4265,2.4617,2.4957,2.521,2.6942,2.7844,2.8176,2.9275,2.9792,2.9869,3.0558,3.1389,3.2307,3.2653,3.3168,3.3743,3.332,3.296,3.2765,3.3476,3.3808,3.4095,3.4905,3.5279,3.5504,3.5504,3.5504,3.5504,3.5504,3.5504,3.5638,3.6184,3.6789,3.7444,3.8215,3.8435,3.8537,3.8685,3.8734,3.8937,3.9681,3.9817,3.9868,4.0054,4.0223,4.0527,4.1119,4.1204,4.1356,4.1743,4.1223,0.0,0.0,4.0559,4.0471,3.9755,4.0551,4.0815,0.0,0.0,0.0,0.0,4.274,4.3937,4.4645,4.4849,4.5917,4.8012,4.8673,4.9407,5.0215,5.1041,5.1518,5.1738,5.2362,5.2747,5.2931,5.2931,5.3023,5.3206,5.3206,5.3206,5.3206,5.3206,5.3206,5.3206,5.3206,5.3592,5.4124,2.5447,2.6921,2.8246,2.8812,3.049,3.2033,3.2522,3.3822,3.4905,3.5439,3.5504,3.5504,3.5504,3.5504,3.5504,3.5504,3.5354,3.5186,3.4846,3.4164,3.3245,3.2027,3.0747,2.945,2.7939,2.6223,2.4864,2.3877,2.4542,2.5284,2.6356,2.751,2.8347,2.8937,2.9534,2.9792,2.9856,3.0833,3.1742,3.2664,3.3171,3.3891,3.461,3.3671,3.3602,3.3905,3.3959,3.4312,3.4758,3.5294,3.5504,3.5504,3.5504,3.5504,3.5504,3.5504,3.5718,3.618,3.6919,3.7732,3.8486,3.9262,3.948,3.9478,3.9478,3.9478,3.9597,4.0003,4.007,4.007,4.007,4.0629,4.1119,4.1187,4.1393,4.1535,4.1363,4.0709,0.0,3.9999,4.0211,4.0371,4.0377,4.1206,4.1542,4.1136,0.0,0.0,4.2726,4.391,4.4864,4.54,4.6067,4.721,4.893,4.9746,5.0545,5.1353,5.1775,5.2179,5.2564,5.3004,5.3206,5.3206,5.3206,5.3206,5.3206,5.3206,5.3206,5.3206,5.3206,5.3206,5.3243,5.361,5.4014,5.4454,2.6554,2.7614,2.8688,2.9624,3.1341,3.2593,3.2593,3.4274,3.5504,3.5504,3.5504,3.5504,3.5504,3.5359,3.5344,3.5504,3.5213,3.4773,3.4027,3.3739,3.2382,2.9592,2.922,2.7726,2.4872,2.4787,2.4787,2.4787,2.5115,2.6273,2.8096,2.8267,2.8858,2.9792,2.9792,2.9792,2.9856,3.0983,3.1888,3.2607,3.289,3.4041,3.5294,3.3685,3.4056,3.5374,3.4645,3.4919,3.5654,3.5654,3.5714,3.5759,3.5564,3.5579,3.5624,3.5634,3.618,3.6904,3.7632,3.843,3.9262,3.9952,4.007,4.007,4.007,4.007,4.007,4.007,4.007,4.0104,4.0223,4.1271,4.2018,4.1596,4.1694,4.1639,4.1105,0.0,3.9536,3.9835,4.0008,4.0443,4.1289,4.1909,4.2348,4.2455,4.304,4.3799,0.0,4.4959,4.5307,4.5837,4.7157,4.8569,5.0019,5.0665,5.1371,5.2179,5.2179,5.2546,5.3206,5.3206,5.3206,5.3206,5.3206,5.3206,5.3206,5.3206,5.3206,5.3206,5.3206,5.3206,5.3316,5.4106,5.4473,5.4693,2.7602,2.8767,2.9611,2.9792,3.1341,3.2593,3.2593,3.4274,3.5504,3.5504,3.5504,3.5504,3.5504,3.4758,3.4543,3.5439,3.3973,3.331,3.3959,3.2522,3.104,2.9592,2.7853,2.6273,2.4872,2.4787,2.4787,2.4787,2.6685,2.7752,2.8096,2.9106,2.9624,2.9792,2.9792,2.9792,2.9934,3.1623,3.2464,3.2749,3.4409,3.5213,3.5439,3.5133,3.5213,3.5579,3.5985,3.6179,3.6327,3.6327,3.6686,3.6926,3.5848,3.5893,3.634,3.6381,3.698,3.7632,3.7764,3.8832,3.9952,4.007,4.007,4.007,4.007,4.007,4.007,4.007,4.007,4.0273,4.0916,4.1221,4.1733,4.2702,4.1868,4.1204,4.1525,0.0,3.9915,4.0619,4.1423,4.1952,4.21,4.2194,4.2515,4.3179,4.3272,4.3964,4.5426,4.6718,4.7454,4.7556,4.8241,4.9591,5.1632,5.1752,5.2215,5.3023,5.3023,5.3096,5.3206,5.3206,5.3206,5.3206,5.3206,5.3206,5.3206,5.3206,5.3206,5.3206,5.3206,5.3206,5.3316,5.4106,5.4821,5.5519,2.7936,2.9028,2.9934,3.0495,3.1683,3.2749,3.331,3.4558,3.5504,3.5504,3.5504,3.5504,3.5504,3.5067,3.4919,3.5136,3.3592,3.266,3.2918,3.1857,3.0227,2.8012,2.7012,2.5975,2.4787,2.4787,2.5368,2.6603,2.7591,2.8426,2.9028,2.9534,2.9792,2.9792,2.9792,3.0075,3.062,3.2046,3.289,3.3463,3.492,3.5504,3.5504,3.5504,3.5729,3.6073,3.6372,3.6701,3.6985,3.6985,3.718,3.73,3.6716,3.705,3.7728,3.7745,3.8027,3.8486,3.8941,3.9859,4.0595,4.0172,4.0679,4.117,4.0781,4.0679,4.0798,4.1187,4.0967,4.0916,4.166,4.2117,4.2477,4.2689,4.2049,0.0,0.0,4.0735,4.0481,4.0844,4.1716,4.2277,4.2261,4.2196,4.2456,4.3152,4.3608,4.4561,4.6029,4.7272,4.8252,4.899,4.9696,5.07,5.2035,5.2432,5.2839,5.3206,5.3206,5.3206,5.3206,5.3206,5.3206,5.3206,5.3206,5.3206,5.3206,5.3206,5.3206,5.3206,5.3206,5.3463,5.394,5.4748,5.5556,5.6363,2.8423,2.9283,3.0113,3.1215,3.2055,3.289,3.3876,3.4839,3.5504,3.5504,3.5504,3.5564,3.5714,3.5289,3.5039,3.5109,3.3384,3.2273,3.2209,3.1343,2.9568,2.6648,2.6335,2.5917,2.521,2.5559,2.655,2.8096,2.8347,2.8937,2.9792,2.9792,2.9792,2.9792,2.9792,3.0355,3.1241,3.2177,3.3255,3.4311,3.5355,3.5818,3.5953,3.5953,3.6267,3.6716,3.6881,3.724,3.7644,3.7644,3.7749,3.7823,3.7509,3.8074,3.8927,3.8949,3.9339,3.9831,4.0458,4.1018,4.1322,4.073,4.1441,4.2151,4.1576,4.1457,4.1627,4.2168,4.1847,4.1677,4.2422,4.3031,4.3271,4.2838,0.0,0.0,0.0,4.1259,4.1246,4.1464,4.197,4.2384,4.269,4.2337,4.2472,4.346,4.4171,4.5222,4.6758,4.767,4.8779,5.0223,5.0981,5.1661,5.2335,5.2937,5.3206,5.3206,5.3206,5.3206,5.3206,5.3206,5.3316,5.3482,5.3298,5.3427,5.3739,5.3573,5.3592,5.3739,5.3555,5.3977,5.4748,5.5354,5.6106,5.6932,3.0102,3.0052,3.0227,3.1664,3.2326,3.289,3.3876,3.4839,3.5504,3.5504,3.5504,3.5744,3.6357,3.4695,3.4136,3.5669,3.3192,3.1813,3.2686,3.086,2.8774,2.6599,2.5968,2.5915,2.6318,2.7823,2.8409,2.8096,2.9197,2.9702,2.9792,2.9792,2.9792,2.9792,2.9792,3.0355,3.1241,3.2177,3.3494,3.5045,3.6037,3.6761,3.727,3.727,3.73,3.7419,3.8033,3.8287,3.8317,3.8317,3.8736,3.905,3.7793,3.8394,3.9663,3.9769,4.0886,4.2064,4.2117,4.2168,4.2202,4.2134,4.2202,4.2286,4.2219,4.2219,4.2219,4.2286,4.2252,4.2439,4.32,4.3386,4.3549,4.4079,0.0,0.0,4.3037,4.24,4.224,4.3105,4.2605,4.2739,4.4019,4.2712,4.2695,4.5029,4.516,4.593,4.7703,4.85,4.9571,5.0981,5.1692,5.2381,5.3103,5.3164,5.3206,5.3206,5.3206,5.3206,5.3206,5.3206,5.361,5.4271,5.3537,5.4051,5.5354,5.462,5.4748,5.5335,5.4601,5.4803,5.55,5.5574,5.6106,5.6932,2.9808,3.0714,3.1675,3.2813,3.3907,3.5038,3.6001,3.6454,3.6686,3.6686,3.6686,3.6558,3.616,3.544,3.4868,3.4571,3.3133,3.2285,3.2414,3.0697,2.8981,2.7476,2.7203,2.7413,2.8011,2.861,2.8955,2.9118,2.9961,3.0131,2.9804,3.0143,3.0118,2.9792,2.9792,3.0633,3.2132,3.2849,3.4257,3.599,3.6745,3.721,3.7404,3.7404,3.7659,3.8048,3.8302,3.8916,3.9634,3.9634,4.0474,4.1342,4.0338,4.126,4.2618,4.2798,4.3602,4.4316,4.3842,4.3352,4.2878,4.2405,4.3014,4.3589,4.3098,4.298,4.3115,4.3606,4.3335,4.3369,4.4604,4.484,4.488,4.5141,0.0,4.3883,4.3388,4.3028,4.2797,4.2672,4.3129,4.332,4.2757,4.2466,4.2927,4.4272,4.4904,4.5956,4.7647,4.8914,5.009,5.1086,5.1759,5.2445,5.3206,5.3702,5.394,5.394,5.394,5.394,5.394,5.394,5.4106,5.4418,5.4601,5.5042,5.5574,5.5262,5.5317,5.5556,5.5244,5.5629,5.6345,5.6345,5.6859,5.7593,3.0099,3.1487,3.2778,3.3908,3.5164,3.6356,3.7252,3.7404,3.7404,3.7404,3.7114,3.6755,3.6216,3.5631,3.4892,3.4111,3.331,3.2782,3.2537,3.1429,3.0107,2.8557,2.8792,2.9157,2.9637,2.9876,3.0057,3.0294,3.067,3.067,3.0306,3.0683,3.0658,3.0294,3.0673,3.1672,3.3201,3.4052,3.5395,3.712,3.7539,3.7973,3.8347,3.8347,3.8751,3.9334,3.9334,3.9918,4.0785,4.1036,4.1878,4.2785,4.2528,4.3505,4.4792,4.5151,4.5635,4.5923,4.5415,4.4891,4.4231,4.325,4.3978,4.4739,4.3961,4.3961,4.4215,4.4519,4.4519,4.4654,4.5246,4.5551,4.5618,4.5382,4.4925,4.4328,4.3474,4.3551,4.3381,4.2561,4.3264,4.3419,4.2435,4.2726,4.3485,4.4501,4.5384,4.6566,4.7982,4.911,5.025,5.1458,5.1919,5.273,5.3959,5.4252,5.4528,5.4785,5.4785,5.4785,5.4785,5.4785,5.4913,5.517,5.5464,5.5886,5.6326,5.6069,5.6124,5.6326,5.6069,5.6473,5.7152,5.6895,5.7317,5.7997,3.1286,3.2249,3.3512,3.5013,3.567,3.637,3.7267,3.7419,3.7419,3.7419,3.6555,3.6129,3.6704,3.4954,3.3975,3.4624,3.3713,3.3081,3.3081,3.3081,3.2128,2.9917,3.0372,3.0834,3.1411,3.1938,3.1938,3.1386,3.1399,3.1399,3.1386,3.1399,3.1399,3.1468,3.2554,3.353,3.4477,3.5538,3.6948,3.8407,3.8407,3.9215,4.0412,4.0412,4.0816,4.1384,4.1384,4.1384,4.152,4.2479,4.2823,4.302,4.3958,4.4821,4.5682,4.6574,4.6786,4.6802,4.6786,4.6802,4.6447,4.4976,4.5162,4.5517,4.4773,4.5179,4.55,4.4756,4.5771,4.6346,4.4874,4.5213,4.5483,4.4722,4.4604,4.4286,4.3443,4.3871,4.3987,4.3119,4.2824,4.2958,4.3639,4.3774,4.446,4.6055,4.7088,4.8015,4.894,4.9018,5.0042,5.2254,5.2325,5.3387,5.5592,5.4821,5.4821,5.5592,5.5592,5.5592,5.5592,5.5592,5.6033,5.6767,5.5959,5.651,5.7941,5.7152,5.7281,5.7923,5.7134,5.7299,5.7905,5.7097,5.7317,5.7997,3.1361,3.3172,3.484,3.5314,3.702,3.851,3.874,3.8192,3.796,3.8668,3.8281,3.751,3.6508,3.6256,3.5479,3.3738,3.3326,3.3081,3.3081,3.3081,3.2832,3.2141,3.229,3.2201,3.1976,3.2127,3.1938,3.1386,3.1775,3.1763,3.1399,3.1788,3.1763,3.1468,3.2554,3.353,3.4505,3.6023,3.7652,3.9155,3.9619,4.0307,4.1085,4.1085,4.1205,4.1384,4.1384,4.1669,4.2288,4.3171,4.425,4.54,4.6434,4.6597,4.6438,4.6727,4.7175,4.7394,4.6498,4.7276,4.7986,4.6498,4.6295,4.6397,4.6177,4.6295,4.6397,4.6177,4.6481,4.6819,4.6904,4.7107,4.7192,4.6955,4.6374,4.5649,4.4871,4.4382,4.3789,4.2918,4.3117,4.3484,4.3743,4.4208,4.5268,4.7088,4.808,4.8938,4.9746,4.9763,5.0815,5.2979,5.3051,5.4143,5.6436,5.6198,5.6198,5.6436,5.6436,5.6436,5.6436,5.6436,5.6583,5.6822,5.7134,5.7556,5.7978,5.774,5.7776,5.7978,5.774,5.7795,5.796,5.7721,5.7795,5.7997,3.2248,3.4179,3.5842,3.6256,3.8046,3.9424,3.9424,3.8676,3.837,3.9002,3.8346,3.7439,3.632,3.6002,3.5312,3.3821,3.3721,3.3721,3.3721,3.3721,3.3721,3.3721,3.3721,3.3357,3.2566,3.2554,3.2503,3.239,3.2717,3.2817,3.2717,3.283,3.2946,3.3091,3.4193,3.5196,3.6226,3.7968,3.9269,4.0232,4.0621,4.119,4.1773,4.1773,4.1923,4.2147,4.2147,4.2402,4.2965,4.4293,4.5891,4.744,4.8135,4.8037,4.7665,4.7665,4.8003,4.8189,4.7411,4.8088,4.8798,4.7885,4.7445,4.7158,4.6853,4.7022,4.7141,4.6853,4.7259,4.7631,4.7496,4.7716,4.7817,4.7513,4.6662,4.5814,4.4968,4.4333,4.3568,4.2674,4.3121,4.3745,4.4177,4.4903,4.623,4.8413,4.9177,4.9881,5.0507,5.11,5.2181,5.383,5.4189,5.5292,5.7281,5.7281,5.7281,5.7281,5.7281,5.7281,5.7281,5.7281,5.7281,5.7299,5.7795,5.7997,5.7997,5.7997,5.7997,5.7997,5.7997,5.7997,5.7997,5.7997,5.7997,5.7997,3.3684,3.5115,3.6526,3.7587,3.862,3.9265,3.9265,3.8772,3.8453,3.8531,3.7303,3.6358,3.6318,3.5069,3.4312,3.4675,3.4726,3.4726,3.4726,3.4726,3.4726,3.4726,3.4726,3.4248,3.3244,3.3219,3.3445,3.3897,3.3947,3.4223,3.4713,3.4211,3.4461,3.5444,3.6743,3.7798,3.8816,4.063,4.1414,4.1474,4.1474,4.1863,4.2447,4.2447,4.2821,4.3329,4.3329,4.3329,4.3771,4.5674,4.7523,4.9001,4.9001,4.9052,4.9086,4.9018,4.9052,4.9086,4.9018,4.9001,4.9001,4.9001,4.8511,4.7834,4.7141,4.753,4.7817,4.7141,4.8071,4.8595,4.7242,4.7564,4.7723,4.6954,4.6101,4.5163,4.4301,4.3881,4.3378,4.2587,4.297,4.3723,4.4889,4.5992,4.7613,4.994,5.0405,5.0794,5.1268,5.2693,5.387,5.4682,5.5468,5.6539,5.7997,5.7997,5.7997,5.7997,5.7997,5.7997,5.7997,5.7997,5.7997,5.7997,5.7997,5.7997,5.7997,5.7997,5.7997,5.7997,5.7997,5.7997,5.7997,5.7997,5.7997,5.7997,3.4314,3.5426,3.6526,3.7587,3.7994,3.8144,3.8144,3.7004,3.6497,3.7312,3.725,3.6893,3.6358,3.6433,3.6069,3.4828,3.4726,3.4726,3.4726,3.4726,3.4726,3.4726,3.4726,3.4613,3.4374,3.4361,3.4211,3.3897,3.4336,3.4613,3.4726,3.46,3.4627,3.4959,3.6976,3.8061,3.8389,4.0499,4.1669,4.2147,4.2147,4.2536,4.312,4.312,4.321,4.3329,4.3329,4.3771,4.4796,4.6678,4.808,4.9001,4.9001,4.9407,4.9746,4.9171,4.9407,4.9729,4.9171,4.9001,4.9001,4.9001,4.8883,4.8731,4.8562,4.8663,4.8731,4.8562,4.8781,4.89,4.8578,4.8663,4.8433,4.7566,4.6631,4.5725,4.4789,4.3899,4.3341,4.312,4.324,4.4187,4.6539,4.8803,5.0205,5.0375,5.0828,5.1285,5.1792,5.2888,5.4074,5.544,5.6241,5.7102,5.7997,5.7997,5.7997,5.7997,5.7997,5.7997,5.7997,5.7997,5.7997,5.7997,5.7997,5.7997,5.7997,5.7997,5.7997,5.7997,5.7997,5.7997,5.7997,5.7997,5.7997,5.7997,3.5197,3.5814,3.6624,3.7973,3.7798,3.7571,3.7788,3.7456,3.7097,3.7097,3.7457,3.7374,3.6483,3.638,3.6109,3.514,3.5353,3.5504,3.5504,3.5504,3.5504,3.5504,3.5504,3.5378,3.5115,3.5366,3.5228,3.4675,3.4977,3.5253,3.5491,3.524,3.5621,3.6801,3.7997,3.9088,4.0285,4.1681,4.2506,4.2821,4.2821,4.303,4.3329,4.3329,4.3329,4.3329,4.3849,4.4915,4.6276,4.7239,4.8225,4.9069,4.9407,4.9779,5.0135,5.0371,5.0016,4.9644,4.9965,4.9543,4.912,4.961,4.9357,4.9001,4.9001,4.9001,4.9001,4.9001,4.9001,4.9001,4.9001,4.9001,4.8719,4.7721,4.6815,4.5905,4.4946,4.42,4.3833,4.4035,4.4263,4.5385,4.7712,5.0126,5.1522,5.1386,5.1944,5.2418,5.2689,5.4131,5.5147,5.5688,5.6807,5.7613,5.7997,5.7997,5.7997,5.7997,5.7997,5.7997,5.7997,5.7997,5.7997,5.7997,5.7997,5.7997,5.7997,5.7997,5.7997,5.7997,5.7997,5.7997,5.7997,5.7997,5.7997,5.7997,3.5734,3.6136,3.6767,3.8182,3.7651,3.714,3.7563,3.8051,3.7927,3.6996,3.7403,3.7415,3.6546,3.5956,3.568,3.568,3.6094,3.6358,3.6358,3.6358,3.6358,3.6358,3.6358,3.6157,3.5692,3.6119,3.6094,3.5542,3.5642,3.5918,3.6345,3.6067,3.6961,3.8755,3.9282,4.0467,4.2302,4.3011,4.3329,4.3329,4.3329,4.3329,4.3329,4.3329,4.3409,4.3708,4.451,4.6072,4.7836,4.7985,4.8637,4.9492,5.0101,5.0371,5.0659,5.1589,5.0777,4.983,5.1014,5.0388,4.961,5.0541,5.0067,4.939,4.939,4.9187,4.9035,4.9171,4.9187,4.9187,4.9187,4.9063,4.8634,4.7704,4.67,4.5839,4.4986,4.4667,4.4659,4.5063,4.6015,4.7273,4.8902,5.0961,5.2317,5.2486,5.3129,5.3501,5.3501,5.5297,5.6132,5.5706,5.7198,5.7997,5.7997,5.7997,5.7997,5.7997,5.7997,5.7997,5.7997,5.7997,5.7997,5.7997,5.7997,5.7997,5.7997,5.7997,5.7997,5.7997,5.7997,5.7997,5.7997,5.7997,5.7997,5.7997,3.4897,3.6022,3.7054,3.7299,3.6847,3.6459,3.6552,3.6198,3.5884,3.5713,3.6286,3.6534,3.6452,3.6295,3.6257,3.6257,3.632,3.6358,3.6358,3.6358,3.6358,3.6358,3.6358,3.632,3.6257,3.632,3.6094,3.5542,3.6019,3.6282,3.6452,3.7337,3.7898,3.8349,4.0335,4.1374,4.1816,4.2856,4.3329,4.3329,4.3329,4.3329,4.3329,4.3329,4.3849,4.4586,4.4737,4.6391,4.8679,4.9516,5.0308,5.093,5.1031,5.1488,5.1911,5.1454,5.1572,5.186,5.1877,5.142,5.1065,5.164,5.1352,5.0913,5.0913,4.9932,4.9187,4.9813,4.9949,4.9949,4.9949,4.9306,4.8392,4.7403,4.6445,4.5619,4.5242,4.5177,4.5505,4.6469,4.8753,5.0276,5.0575,5.2252,5.3315,5.3348,5.345,5.3501,5.3501,5.4939,5.5762,5.5706,5.7198,5.7997,5.7997,5.7997,5.7997,5.7997,5.7997,5.7997,5.7997,5.7997,5.7997,5.7997,5.7997,5.7997,5.7997,5.7997,5.7997,5.7997,5.7997,5.7997,5.7997,5.7997,5.7997,5.7997,3.5953,3.6343,3.677,3.7021,3.6446,3.5968,3.6275,3.6715,3.6685,3.6087,3.6823,3.715,3.6452,3.6358,3.6358,3.6358,3.6358,3.6358,3.6358,3.6358,3.6358,3.6358,3.6358,3.6358,3.6358,3.6358,3.6395,3.6458,3.6395,3.6358,3.6452,3.7586,3.8469,3.9183,4.0817,4.1932,4.2548,4.3076,4.3329,4.3329,4.3329,4.3329,4.3374,4.3748,4.4473,4.5628,4.7084,4.8384,4.9588,5.043,5.0947,5.1285,5.1691,5.2046,5.2334,5.2452,5.2723,5.2959,5.2858,5.2249,5.1725,5.208,5.1691,5.1217,5.1217,5.071,5.0338,5.0659,5.071,5.0642,5.0371,4.9759,4.8686,4.712,4.6467,4.6063,4.541,4.6152,4.7274,4.8861,5.0521,5.1564,5.1681,5.2792,5.3501,5.3501,5.3501,5.3501,5.3501,5.4878,5.5706,5.5706,5.7198,5.7997,5.7997,5.7997,5.7997,5.7997,5.7997,5.7997,5.7997,5.7997,5.7997,5.7997,5.7997,5.7997,5.7997,5.7997,5.7997,5.7997,5.7997,5.7997,5.7997,5.7997,5.7997,5.7997]},{"header":{"parameterUnit":"m.s-1","parameterCategory":1,"la1":30.6,"la2":28.766,"lo1":-90.7593,"lo2":-88.6598,"dy":0.0162,"dx":0.0183,"nx":116,"ny":114,"refTime":"2024-04-21T12:00:00:Z","depth":0,"parameterNumber":3,"parameterNumberName":"V-component_of_WINDS"},"data":[0.0,0.0,0.0,0.0,0.0,0.0,0.0,0.0,0.0,0.0,0.0,0.0,0.0,0.0,0.0,0.0,0.0,0.0,0.0,0.0,0.0,0.0,0.0,0.0,0.0,0.0,0.0,0.0,0.0,0.0,0.0,0.0,0.0,0.0,0.0,0.0,0.0,0.0,0.0,0.0,0.0,0.0,0.0,0.0,0.0,0.0,0.0,0.0,0.0,0.0,0.0,0.0,0.0,0.0,0.0,0.0,0.0,0.0,0.0,0.0,0.0,0.0,0.0,0.0,0.0,0.0,0.0,0.0,0.0,0.0,0.0,0.0,0.0,0.0,0.0,0.0,0.0,0.0,0.0,0.0,0.0,0.0,0.0,0.0,0.0,0.0,0.0,0.0,0.0,0.0,0.0,0.0,0.0,0.0,0.0,0.0,0.0,0.0,0.0,0.0,0.0,0.0,0.0,0.0,0.0,0.0,0.0,0.0,0.0,0.0,0.0,0.0,0.0,0.0,0.0,0.0,0.0,0.0,0.0,0.0,0.0,0.0,0.0,0.0,0.0,0.0,0.0,0.0,0.0,0.0,0.0,0.0,0.0,0.0,0.0,0.0,0.0,0.0,0.0,0.0,0.0,0.0,0.0,0.0,0.0,0.0,0.0,0.0,0.0,0.0,0.0,0.0,0.0,0.0,0.0,0.0,0.0,0.0,0.0,0.0,0.0,0.0,0.0,0.0,0.0,0.0,0.0,0.0,0.0,0.0,0.0,0.0,0.0,0.0,0.0,0.0,0.0,0.0,0.0,0.0,0.0,0.0,0.0,0.0,0.0,0.0,0.0,0.0,0.0,0.0,0.0,0.0,0.0,0.0,0.0,0.0,0.0,0.0,0.0,0.0,0.0,0.0,0.0,0.0,0.0,0.0,0.0,0.0,0.0,0.0,0.0,0.0,0.0,0.0,0.0,0.0,0.0,0.0,0.0,0.0,0.0,0.0,0.0,0.0,0.0,0.0,0.0,0.0,0.0,0.0,0.0,0.0,0.0,0.0,0.0,0.0,0.0,0.0,0.0,0.0,0.0,0.0,0.0,0.0,0.0,0.0,0.0,0.0,0.0,0.0,0.0,0.0,0.0,0.0,0.0,0.0,0.0,0.0,0.0,0.0,0.0,0.0,0.0,0.0,0.0,0.0,0.0,0.0,0.0,0.0,0.0,0.0,0.0,0.0,0.0,0.0,0.0,0.0,0.0,0.0,0.0,0.0,0.0,0.0,0.0,0.0,0.0,0.0,0.0,0.0,0.0,0.0,0.0,0.0,0.0,0.0,0.0,0.0,0.0,0.0,0.0,0.0,0.0,0.0,0.0,0.0,0.0,0.0,0.0,0.0,0.0,0.0,0.0,0.0,0.0,0.0,0.0,0.0,0.0,0.0,0.0,0.0,0.0,0.0,0.0,0.0,0.0,0.0,0.0,0.0,0.0,0.0,0.0,0.0,0.0,0.0,0.0,0.0,0.0,0.0,0.0,0.0,0.0,0.0,0.0,0.0,0.0,0.0,0.0,0.0,0.0,0.0,0.0,0.0,0.0,0.0,0.0,0.0,0.0,0.0,0.0,0.0,0.0,0.0,0.0,0.0,0.0,0.0,0.0,0.0,0.0,0.0,0.0,0.0,0.0,0.0,0.0,0.0,0.0,0.0,0.0,0.0,0.0,0.0,0.0,0.0,0.0,0.0,0.0,0.0,0.0,0.0,0.0,0.0,0.0,0.0,0.0,0.0,0.0,0.0,0.0,0.0,0.0,0.0,0.0,0.0,0.0,0.0,0.0,0.0,0.0,0.0,0.0,0.0,0.0,0.0,0.0,0.0,0.0,0.0,0.0,0.0,0.0,0.0,0.0,0.0,0.0,0.0,0.0,0.0,0.0,0.0,0.0,0.0,0.0,0.0,0.0,0.0,0.0,0.0,0.0,0.0,0.0,0.0,0.0,0.0,0.0,0.0,0.0,0.0,0.0,0.0,0.0,0.0,0.0,0.0,0.0,0.0,0.0,0.0,0.0,0.0,0.0,0.0,0.0,0.0,0.0,0.0,0.0,0.0,0.0,0.0,0.0,0.0,0.0,0.0,0.0,0.0,0.0,0.0,0.0,0.0,0.0,0.0,0.0,0.0,0.0,0.0,0.0,0.0,0.0,0.0,0.0,0.0,0.0,0.0,0.0,0.0,0.0,0.0,0.0,0.0,0.0,0.0,0.0,0.0,0.0,0.0,0.0,0.0,0.0,0.0,0.0,0.0,0.0,0.0,0.0,0.0,0.0,0.0,0.0,0.0,0.0,0.0,0.0,0.0,0.0,0.0,0.0,0.0,0.0,0.0,0.0,0.0,0.0,0.0,0.0,0.0,0.0,0.0,0.0,0.0,0.0,0.0,0.0,0.0,0.0,0.0,0.0,0.0,0.0,0.0,0.0,0.0,0.0,0.0,0.0,0.0,0.0,0.0,0.0,0.0,0.0,0.0,0.0,0.0,0.0,0.0,0.0,0.0,0.0,0.0,0.0,0.0,0.0,0.0,0.0,0.0,0.0,0.0,0.0,0.0,0.0,0.0,0.0,0.0,0.0,0.0,0.0,0.0,0.0,0.0,0.0,0.0,0.0,0.0,0.0,0.0,0.0,0.0,0.0,0.0,0.0,0.0,0.0,0.0,0.0,0.0,0.0,0.0,0.0,0.0,0.0,0.0,0.0,0.0,0.0,0.0,0.0,0.0,0.0,0.0,0.0,0.0,0.0,0.0,0.0,0.0,0.0,0.0,0.0,0.0,0.0,0.0,0.0,0.0,0.0,0.0,0.0,0.0,0.0,0.0,0.0,0.0,0.0,0.0,0.0,0.0,0.0,0.0,0.0,0.0,0.0,0.0,0.0,0.0,0.0,0.0,0.0,0.0,0.0,0.0,0.0,0.0,0.0,0.0,0.0,0.0,0.0,0.0,0.0,0.0,0.0,0.0,0.0,0.0,0.0,0.0,0.0,0.0,0.0,0.0,0.0,0.0,0.0,0.0,0.0,0.0,0.0,0.0,0.0,0.0,0.0,0.0,0.0,0.0,0.0,0.0,0.0,0.0,0.0,0.0,0.0,0.0,0.0,0.0,0.0,0.0,0.0,0.0,0.0,0.0,0.0,0.0,0.0,0.0,0.0,0.0,0.0,0.0,0.0,0.0,0.0,0.0,0.0,0.0,0.0,0.0,0.0,0.0,0.0,0.0,0.0,0.0,0.0,0.0,0.0,0.0,0.0,0.0,0.0,0.0,0.0,0.0,0.0,0.0,0.0,0.0,0.0,0.0,0.0,0.0,0.0,0.0,0.0,0.0,0.0,0.0,0.0,0.0,0.0,0.0,0.0,0.0,0.0,0.0,0.0,0.0,0.0,0.0,0.0,0.0,0.0,0.0,0.0,0.0,0.0,0.0,0.0,0.0,0.0,0.0,0.0,0.0,0.0,0.0,0.0,0.0,0.0,0.0,0.0,0.0,0.0,0.0,0.0,0.0,0.0,0.0,0.0,0.0,0.0,0.0,0.0,0.0,0.0,0.0,0.0,0.0,0.0,0.0,0.0,0.0,0.0,0.0,0.0,0.0,0.0,0.0,0.0,0.0,0.0,0.0,0.0,0.0,0.0,0.0,0.0,0.0,0.0,0.0,0.0,0.0,0.0,0.0,0.0,0.0,0.0,0.0,0.0,0.0,0.0,0.0,0.0,0.0,0.0,0.0,0.0,0.0,0.0,0.0,0.0,0.0,0.0,0.0,0.0,0.0,0.0,0.0,0.0,0.0,0.0,0.0,0.0,0.0,0.0,0.0,0.0,0.0,0.0,0.0,0.0,0.0,0.0,0.0,0.0,0.0,0.0,0.0,0.0,0.0,0.0,0.0,0.0,0.0,0.0,0.0,0.0,0.0,0.0,0.0,0.0,0.0,0.0,0.0,0.0,0.0,0.0,0.0,0.0,0.0,0.0,0.0,0.0,0.0,0.0,0.0,0.0,0.0,0.0,0.0,0.0,0.0,0.0,0.0,0.0,0.0,0.0,0.0,0.0,0.0,0.0,0.0,0.0,0.0,0.0,0.0,0.0,0.0,0.0,0.0,0.0,0.0,0.0,0.0,0.0,0.0,0.0,0.0,0.0,0.0,0.0,0.0,0.0,0.0,0.0,0.0,0.0,0.0,0.0,0.0,0.0,0.0,0.0,0.0,0.0,0.0,0.0,0.0,0.0,0.0,0.0,0.0,0.0,0.0,0.0,0.0,0.0,0.0,0.0,0.0,0.0,0.0,0.0,0.0,0.0,0.0,0.0,0.0,0.0,0.0,0.0,0.0,0.0,0.0,0.0,0.0,0.0,0.0,0.0,0.0,0.0,0.0,0.0,0.0,0.0,0.0,0.0,0.0,0.0,0.0,0.0,0.0,0.0,0.0,0.0,0.0,0.0,0.0,0.0,0.0,0.0,0.0,0.0,0.0,0.0,0.0,0.0,0.0,0.0,0.0,0.0,0.0,0.0,0.0,0.0,0.0,0.0,0.0,0.0,0.0,0.0,0.0,0.0,0.0,0.0,0.0,0.0,0.0,0.0,0.0,0.0,0.0,0.0,0.0,0.0,0.0,0.0,0.0,0.0,0.0,0.0,0.0,0.0,0.0,0.0,0.0,0.0,0.0,0.0,0.0,0.0,0.0,0.0,0.0,0.0,0.0,0.0,0.0,0.0,0.0,0.0,0.0,0.0,0.0,0.0,0.0,0.0,0.0,0.0,0.0,0.0,0.0,0.0,0.0,0.0,0.0,0.0,0.0,0.0,0.0,0.0,0.0,0.0,0.0,0.0,0.0,0.0,0.0,0.0,0.0,0.0,0.0,0.0,0.0,0.0,0.0,0.0,0.0,0.0,0.0,0.0,0.0,0.0,0.0,0.0,0.0,0.0,0.0,0.0,0.0,0.0,0.0,0.0,0.0,0.0,0.0,0.0,0.0,0.0,0.0,0.0,0.0,0.0,0.0,0.0,0.0,0.0,0.0,0.0,0.0,0.0,0.0,0.0,0.0,0.0,0.0,0.0,0.0,0.0,0.0,0.0,0.0,0.0,0.0,0.0,0.0,0.0,0.0,0.0,0.0,0.0,0.0,0.0,0.0,0.0,0.0,0.0,0.0,0.0,0.0,0.0,0.0,0.0,0.0,0.0,0.0,0.0,0.0,0.0,0.0,0.0,0.0,0.0,0.0,0.0,0.0,0.0,0.0,0.0,0.0,0.0,0.0,0.0,0.0,0.0,0.0,0.0,0.0,0.0,0.0,0.0,0.0,0.0,0.0,0.0,0.0,0.0,0.0,0.0,0.0,0.0,0.0,0.0,0.0,0.0,0.0,0.0,0.0,0.0,0.0,0.0,0.0,0.0,0.0,0.0,0.0,0.0,0.0,0.0,0.0,0.0,0.0,0.0,0.0,0.0,0.0,0.0,0.0,0.0,0.0,0.0,0.0,0.0,0.0,0.0,0.0,0.0,0.0,0.0,0.0,0.0,0.0,0.0,0.0,0.0,0.0,0.0,0.0,0.0,0.0,0.0,0.0,0.0,0.0,0.0,0.0,0.0,0.0,0.0,0.0,0.0,0.0,0.0,0.0,0.0,0.0,0.0,0.0,0.0,0.0,0.0,0.0,0.0,0.0,0.0,0.0,0.0,0.0,0.0,0.0,0.0,0.0,0.0,0.0,0.0,0.0,0.0,0.0,0.0,0.0,0.0,0.0,0.0,0.0,0.0,0.0,0.0,0.0,0.0,0.0,0.0,0.0,0.0,0.0,0.0,0.0,0.0,0.0,0.0,0.0,0.0,0.0,0.0,0.0,0.0,0.0,0.0,0.0,0.0,0.0,0.0,0.0,0.0,0.0,0.0,0.0,0.0,0.0,0.0,0.0,0.0,0.0,0.0,0.0,0.0,0.0,0.0,0.0,0.0,0.0,0.0,0.0,0.0,0.0,0.0,0.0,0.0,0.0,0.0,0.0,0.0,0.0,0.0,0.0,0.0,0.0,0.0,0.0,0.0,0.0,0.0,0.0,0.0,0.0,0.0,0.0,0.0,0.0,0.0,0.0,0.9812,0.0,0.0,0.0,0.0,0.0,0.0,0.0,0.0,0.0,0.0,0.0,0.0,0.0,0.0,0.0,0.0,0.0,0.0,0.0,0.0,0.0,0.0,0.0,0.0,0.665,0.7356,0.7797,0.7733,0.7346,0.6428,0.0,0.0,0.0,0.0,0.0,0.3907,0.4703,0.5443,0.6087,0.6872,0.7901,0.9285,0.9819,0.949,0.8507,0.0,0.0,0.0,0.0,0.0,0.0,0.0,0.0,0.0,0.0,0.0,0.0,0.0,0.0,0.0,0.0,0.0,0.0,0.0,0.0,0.0,0.0,0.0,0.0,0.0,0.0,0.0,0.0,0.0,0.0,0.0,0.0,0.0,0.0,0.0,0.0,0.0,0.0,0.0,0.0,0.0,0.0,0.0,0.0,0.0,0.0,0.0,0.0,0.0,0.0,0.0,0.0,0.0,0.0,0.0,0.0,0.0,0.0,0.0,0.0,0.0,0.0,0.0,0.0,0.0,0.0,0.0,0.0,0.0,0.0,0.0,0.8704,0.0,0.0,0.0,0.0,0.0,0.0,0.0,0.0,0.0,0.0,0.0,0.0,0.0,0.0,0.0,0.0,0.0,0.0,0.0,0.0,0.0,0.552,0.5697,0.6601,0.7553,0.835,0.8105,0.767,0.72,0.5997,0.5053,0.4544,0.461,0.439,0.3826,0.4708,0.5519,0.6258,0.7182,0.8221,0.948,1.0792,1.0086,0.7736,0.9325,0.0,0.0,0.0,0.0,0.0,0.0,0.0,0.0,0.0,0.0,0.0,0.0,0.0,0.0,0.0,0.0,0.0,0.0,0.0,0.0,0.0,0.0,0.0,0.0,0.0,0.0,0.0,0.0,0.0,0.0,0.0,0.0,0.0,0.0,0.0,0.0,0.0,0.0,0.0,0.0,0.0,0.0,0.0,0.0,0.0,0.0,0.0,0.0,0.0,0.0,0.0,0.0,0.0,0.0,0.0,0.0,0.0,0.0,0.0,0.0,0.0,0.0,0.0,1.3861,1.3471,1.2566,1.2788,1.248,1.1682,1.0353,1.0269,1.0953,0.0,0.0,0.0,0.0,0.0,0.0,0.0,0.0,0.0,0.0,0.0,0.0,0.0,0.0,0.0,0.0,0.0,0.0,0.0,0.0,0.5968,0.5748,0.693,0.7953,0.835,0.8534,0.8038,0.6627,0.624,0.5438,0.3986,0.4965,0.5045,0.3985,0.5922,0.705,0.7302,0.9407,1.0312,1.0,1.0972,1.0311,0.8344,0.9451,0.0,0.0,0.0,0.0,0.0,0.0,0.0,0.0,0.0,0.0,0.0,0.0,0.0,0.0,0.0,0.0,0.0,0.0,0.0,0.0,0.0,0.0,0.0,0.0,0.0,0.0,0.0,0.0,0.0,0.0,0.0,0.0,0.0,0.0,0.0,0.0,0.0,0.0,0.0,0.0,0.0,0.0,0.0,0.7232,0.8612,0.0,0.0,0.0,0.0,0.0,0.0,0.0,0.0,0.0,0.0,0.0,0.0,0.0,0.9141,1.0305,1.2134,1.3573,1.4743,1.5284,1.5425,1.5292,1.5332,1.5389,1.5421,1.2742,0.0,0.9696,0.9351,0.0,0.0,0.0,0.0,0.0,0.0,0.0,0.0,0.0,0.0,0.0,0.0,0.0,0.0,0.0,0.0,0.0,0.0,0.0,0.0,0.0,0.7438,0.8604,0.9072,0.9526,0.8991,0.7035,0.6775,0.5977,0.4365,0.5069,0.5324,0.4974,0.6293,0.7723,0.9201,1.1097,1.1988,1.1866,1.1408,1.0663,0.9728,0.9346,0.9326,0.9533,0.8795,0.0,0.0,0.0,0.0,0.0,0.0,0.0,0.0,0.0,0.0,0.0,0.0,0.0,0.0,0.0,0.0,0.0,0.0,0.0,0.0,0.0,0.0,0.0,0.0,0.0,0.0,0.0,0.0,0.0,0.0,0.0,0.0,0.0,0.0,0.0,0.0,0.0,0.0,0.0,0.7501,0.8159,0.891,0.8349,0.7514,0.0,0.0,0.0,0.0,0.0,0.0,0.0,0.0,0.0,0.682,0.9134,1.1051,1.2397,1.4211,1.5705,1.6893,1.6334,1.5992,1.5832,1.5832,1.5899,1.5827,1.3199,1.1556,1.0687,0.9159,0.7995,0.7238,0.0,0.0,0.0,0.0,0.6519,0.6647,0.0,0.0,0.0,0.0,0.0,0.0,0.0,0.0,0.0,0.0,0.0,0.0,0.645,0.804,0.9239,0.9746,1.0004,0.9352,0.7405,0.6867,0.6069,0.4743,0.507,0.5434,0.5759,0.7332,0.937,1.1821,1.311,1.3676,1.3394,1.2084,1.1153,1.0714,0.9318,0.8709,0.8694,0.8199,0.8635,0.0,0.0,0.0,0.0,0.0,0.0,0.0,0.0,0.0,0.0,0.0,0.0,0.0,0.0,0.0,0.0,0.0,0.0,0.0,0.0,0.0,0.0,0.0,0.0,0.0,0.0,0.0,0.0,0.0,0.0,0.0,0.0,0.0,0.0,0.0,0.0,0.0,0.0,0.848,0.8743,0.9182,0.9315,0.8759,0.0,0.0,0.0,0.0,0.0,0.0,0.698,0.6983,0.7246,0.7703,1.0501,1.2808,1.4741,1.6039,1.7274,1.8386,1.6974,1.6119,1.5832,1.5832,1.5912,1.5866,1.3314,1.2208,1.19,0.906,0.7753,0.7468,0.7316,0.7075,0.6827,0.6943,0.7007,0.7065,0.0,0.0,0.0,0.0,0.0,0.0,0.0,0.0,0.0,0.0,0.0,0.6461,0.7333,0.8777,0.976,1.0067,0.9364,0.8411,0.7394,0.6079,0.517,0.4739,0.507,0.551,0.5998,0.9904,1.3042,1.5323,1.5923,1.532,1.365,1.2914,1.1883,1.06,0.958,0.9518,1.0037,0.7488,0.7927,1.0085,0.0,0.0,0.0,0.0,0.0,0.0,0.0,0.0,0.0,0.0,0.0,0.0,0.0,0.0,0.0,0.0,0.0,0.0,0.0,0.0,0.0,0.0,0.0,0.0,0.0,0.0,0.0,0.0,0.0,0.0,0.0,0.0,0.0,0.0,0.0,0.0,0.0,0.0,0.0,0.9577,1.0141,0.0,0.0,0.0,0.0,0.8919,0.9157,0.8905,0.7835,0.7753,0.8466,0.9971,1.1692,1.3926,1.6619,1.664,1.7378,1.8618,1.7072,1.6119,1.5832,1.5832,1.6132,1.644,1.3457,1.2385,1.2557,0.9521,0.8065,0.7773,0.7631,0.739,0.7119,0.7126,0.7221,0.737,0.0,0.0,0.0,0.0,0.0,0.8074,0.716,0.6343,0.5959,0.6184,0.6533,0.7291,0.8582,0.9637,1.0746,1.1826,1.0708,0.9374,0.8078,0.6654,0.573,0.5442,0.5658,0.7385,1.0664,1.3919,1.6098,1.7185,1.6684,1.5469,1.3606,1.2069,1.0545,0.9048,0.8267,0.7804,0.758,0.5882,0.6644,0.8949,0.8566,0.8959,0.0,0.0,0.0,0.0,0.0,0.0,0.0,0.0,0.0,0.0,0.0,0.0,0.0,0.0,0.0,0.0,0.0,0.0,0.0,0.0,0.0,0.0,0.0,0.0,0.0,0.0,0.0,0.0,0.0,0.0,0.0,0.0,0.0,0.0,0.0,0.0,0.0,0.9972,1.0378,0.0,0.9854,1.1233,1.1447,0.9697,1.0053,0.9709,0.8337,0.8245,0.8999,1.0437,1.2962,1.5522,1.8353,1.834,1.8858,1.999,1.7462,1.6119,1.5832,1.5832,1.5454,1.4741,1.2883,1.1613,1.0884,0.8937,0.8058,0.7953,0.7902,0.7814,0.7719,0.7719,0.7753,0.7807,0.0,0.0,0.0,0.0,0.0,0.7704,0.7105,0.6562,0.6379,0.6896,0.7482,0.844,1.0136,1.0797,1.1596,1.2796,1.1,0.9343,0.8222,0.6714,0.5909,0.5964,0.7435,1.057,1.5659,1.7368,1.8574,1.9309,1.7996,1.606,1.3561,1.1923,0.9386,0.614,0.5133,0.5292,0.6144,0.3455,0.4364,0.7671,0.8029,0.8448,0.8774,0.0,0.0,0.0,0.0,0.0,0.0,0.0,0.0,0.0,0.0,0.0,0.0,0.0,0.0,0.0,0.0,0.0,0.0,0.0,0.0,0.0,0.0,0.0,0.0,0.0,0.0,0.0,0.0,0.0,0.0,0.0,0.0,0.0,0.0,0.0,1.0578,1.0863,1.1749,1.2074,1.1697,1.3122,1.3396,1.1762,1.1606,1.094,0.9477,0.8952,0.9451,1.1363,1.3729,1.656,1.9943,1.9299,1.9551,2.0754,1.7746,1.6119,1.5832,1.5832,1.5095,1.385,1.249,1.1225,0.9913,0.8506,0.8233,0.8627,0.8627,0.8432,0.8038,0.8528,0.8432,0.8038,0.0,0.0,0.0,0.0,0.0,0.7663,0.7105,0.6562,0.6785,0.8289,0.8929,0.9963,1.1939,1.221,1.2392,1.2878,1.0172,0.8268,0.7752,0.6257,0.5699,0.6446,1.0339,1.496,2.028,1.9957,2.0354,2.159,1.992,1.7167,1.3452,1.2512,0.8506,0.1921,0.0476,0.2099,0.554,0.0161,0.0962,0.6073,0.6555,0.7015,0.7315,0.0,0.0,0.0,0.0,0.0,0.0,0.0,0.0,0.0,0.0,0.0,0.0,0.0,0.0,0.0,0.0,0.0,0.0,0.0,0.0,0.0,0.0,0.0,0.0,0.0,0.0,0.0,0.0,0.0,0.0,0.0,0.0,0.0,1.0883,1.1926,1.2744,1.251,1.4087,1.5018,1.482,1.626,1.6633,1.5151,1.3997,1.262,1.1214,0.9684,1.0031,1.2705,1.4095,1.6832,2.1163,1.9473,1.931,2.0754,1.7732,1.6106,1.5832,1.5832,1.5094,1.3806,1.2427,1.1153,0.9844,0.8565,0.8825,0.9998,0.9998,0.9217,0.8233,0.9509,0.9118,0.8038,0.0,0.0,0.0,0.8543,0.7796,0.7196,0.7021,0.6852,0.7096,0.7948,0.9518,1.109,1.2387,1.2805,1.3188,1.3727,1.1049,0.9116,0.8699,0.788,0.8475,1.0849,1.3526,1.6608,2.0268,2.0284,2.0116,1.9723,1.7521,1.4545,1.0982,1.0349,0.6748,0.0589,-0.2968,-0.3821,-0.2553,-0.3242,-0.2544,-0.068,0.3249,0.64,0.8675,0.0,0.0,0.0,0.0,0.0,0.0,0.0,0.0,0.0,0.0,0.0,0.0,0.0,0.0,0.0,0.0,0.0,0.0,0.0,0.0,0.0,0.0,0.0,0.0,0.0,0.0,0.0,0.0,0.0,0.0,0.0,1.3309,1.4701,1.3487,1.3499,1.3853,1.4516,1.4183,1.4185,1.5112,1.6558,1.6924,1.5417,1.4089,1.262,1.1214,0.947,0.9561,1.205,1.4374,1.7258,2.0504,2.09,2.0994,2.0754,1.8453,1.6753,1.5832,1.5832,1.4524,1.2437,1.2017,1.0649,0.8565,0.812,0.8825,0.9998,0.9998,1.0391,1.0774,1.019,0.9118,0.8011,0.0,0.0,0.0,0.8716,0.7765,0.6979,0.6979,0.7238,0.7734,0.8649,1.0657,1.2386,1.3517,1.362,1.3642,1.3738,1.1255,0.9536,0.9057,0.9903,1.1983,1.5543,1.7236,1.9331,2.2019,2.1316,2.0286,1.8973,1.622,1.3425,1.0635,0.9558,0.5922,0.0144,-0.4066,-0.6159,-0.6573,-0.6289,-0.708,-0.8153,-0.3695,0.0986,0.5345,0.5598,0.5214,0.454,0.5335,0.6099,0.7052,0.8115,0.0,0.0,0.0,0.0,0.0,0.0,0.0,0.0,0.0,0.0,0.0,0.0,0.0,0.0,0.0,0.0,0.0,0.0,0.0,0.0,0.0,0.0,0.0,0.0,1.5913,1.7505,1.6441,1.6335,1.6387,1.6324,1.5636,1.5624,1.6996,1.7457,1.7457,1.7206,1.4759,1.294,1.2082,1.031,1.0133,1.1878,1.5063,1.7845,2.0071,2.1107,2.1586,2.1294,1.8855,1.7318,1.6574,1.552,1.3767,0.0,1.1284,0.9811,0.7865,0.7987,0.9118,0.0,0.0,0.0,0.0,0.0,0.9118,0.8014,0.0,0.0,0.0,0.8716,0.7765,0.7021,0.7105,0.7614,0.8494,1.0013,1.2088,1.3782,1.4718,1.4438,1.3883,1.3055,1.1054,0.9784,0.9578,1.214,1.5583,1.9812,2.0748,2.2144,2.4134,2.2289,2.0395,1.8572,1.5408,1.2937,1.1273,0.9303,0.5525,0.0071,-0.3682,-0.623,-0.7637,-0.8729,-1.1422,-1.4705,-1.1832,-0.6767,-0.0746,0.0527,0.1575,0.2676,0.4556,0.5526,0.6205,0.7518,0.0,0.0,0.0,0.0,0.0,0.0,0.0,0.0,0.0,0.0,0.0,0.0,0.0,0.0,0.0,0.0,0.0,0.0,0.0,0.0,0.0,0.0,0.0,0.0,1.8442,2.0273,1.9737,1.9709,1.9265,1.7738,1.7528,1.8032,1.9472,1.8457,1.8262,1.9524,1.5677,1.3224,1.3224,0.0,0.0,0.0,0.0,1.8326,1.9612,2.0729,2.15,2.1731,1.9047,1.7591,1.7404,1.5019,1.3053,1.1461,1.0426,0.9142,0.7672,0.7933,0.9505,1.1945,1.2237,1.2139,1.1745,1.0631,0.928,0.8035,0.0,0.0,0.8716,0.8716,0.7765,0.7154,0.7663,0.8154,0.9185,1.1194,1.3314,1.4532,1.4219,1.4447,1.3884,1.183,1.0659,1.0921,1.299,1.4225,1.6564,2.037,2.1265,2.1872,2.2245,2.0706,1.859,1.5931,1.3398,1.122,0.9294,0.706,0.3857,-0.0135,-0.3765,-0.5986,-0.7069,-0.9292,-1.1407,-1.3269,-1.304,-0.9787,-0.4929,-0.2915,-0.0971,0.0921,0.1261,0.2577,0.4476,0.6716,0.7635,0.7769,0.7926,0.0,0.0,0.0,0.0,0.0,0.0,0.0,0.0,0.0,0.0,0.0,0.0,0.0,0.0,0.0,0.0,0.0,0.0,0.0,0.0,1.96,2.132,2.2173,2.2617,2.1603,2.0015,1.7537,1.7078,1.7565,1.913,1.8942,1.895,1.9612,1.5503,1.3092,1.3092,1.1075,1.0383,1.1355,1.5184,1.796,1.9326,2.0686,2.1039,2.0492,0.0,0.0,1.6103,1.4555,1.3149,1.1722,1.0551,0.9178,0.796,0.8018,0.9505,1.2139,1.4178,1.3788,1.1808,1.1348,0.9827,0.8007,0.0,0.9239,0.8716,0.8716,0.7765,0.7189,0.7787,0.8513,0.9491,1.0821,1.2633,1.3596,1.3017,1.2931,1.2334,1.0808,1.1157,1.2748,1.5852,1.7185,1.933,2.2627,2.2378,2.1955,2.1578,1.9535,1.7201,1.4646,1.1821,0.9724,0.8348,0.5404,0.2066,-0.1468,-0.4157,-0.6368,-0.8086,-1.0189,-1.2535,-1.4883,-1.5488,-1.4009,-1.0849,-0.643,-0.3957,-0.2825,-0.1905,-0.0088,0.2139,0.329,0.5435,0.7705,0.7871,0.7752,0.7286,0.0,0.0,0.0,0.0,0.0,0.0,0.0,0.0,0.0,0.0,0.0,0.0,0.0,0.0,1.1049,1.2459,0.0,1.6345,2.1778,2.4096,2.475,2.3132,2.1548,1.9621,1.7442,1.7482,1.8318,2.0006,1.9436,1.9479,2.0617,1.5854,1.3236,1.398,1.2099,1.1351,1.2183,1.6182,1.8209,1.8065,2.0199,2.0762,1.9752,1.8404,1.7412,1.6662,1.4064,1.2528,1.175,0.9801,0.863,0.8137,0.941,1.0676,1.2139,1.4076,1.359,1.1823,1.1025,0.9546,0.8018,0.0,0.0,0.8561,0.8561,0.7773,0.7363,0.7946,0.8996,0.9943,1.0574,1.1865,1.2499,1.1774,1.1304,1.0689,0.9872,1.1654,1.4256,0.0,1.9661,2.1832,2.4359,2.3335,2.2193,2.1104,1.8654,1.6297,1.4105,1.0781,0.8703,0.7731,0.4337,0.0801,-0.2609,-0.5004,-0.7259,-0.9408,-1.1256,-1.4024,-1.7209,-1.7879,-1.788,-1.681,-1.0609,-0.7594,-0.6472,-0.478,-0.2766,-0.0944,-0.009,0.2811,0.6198,0.6819,0.7293,0.7545,0.6729,0.735,0.0,0.0,0.0,0.0,0.0,0.0,0.0,0.0,1.3994,1.3783,1.2152,1.2338,1.3352,1.5264,1.7373,2.0328,2.4569,2.6907,2.691,2.3432,2.124,1.9178,1.7347,1.8074,1.9334,2.0858,1.9925,1.9775,2.1412,1.6407,1.3729,1.478,1.3428,1.2824,1.3302,1.7121,1.8494,1.6966,1.9371,2.0124,1.9131,1.7956,1.7347,1.7312,1.3601,1.197,1.1815,0.913,0.8137,0.8531,1.0974,1.1945,1.2042,1.3102,1.2716,1.1365,1.0391,0.9118,0.8038,0.0,0.0,0.0,0.7995,0.787,0.7995,0.8513,0.9808,1.1109,1.2195,1.285,1.2668,1.1267,1.0906,1.0339,0.931,1.1398,1.4135,1.7242,1.9924,2.1972,2.325,2.336,2.2283,1.9927,1.8278,1.6297,1.4105,1.0781,0.8484,0.7158,0.413,0.1067,-0.2068,-0.6475,-0.8934,-0.9867,-1.2201,-1.5216,-1.8554,-1.8982,-1.9976,-2.083,-1.68,-1.231,-0.788,-0.6537,-0.6138,-0.5507,-0.0771,0.086,0.1283,0.3622,0.5912,0.7926,0.8779,0.862,0.7715,0.6415,0.6588,0.7917,1.1362,1.3219,1.466,0.0,1.7631,1.8218,1.7456,1.917,2.1389,2.3654,2.5217,2.7216,3.0639,2.9489,2.7448,2.5254,2.2451,1.9739,1.7041,1.8499,1.9911,2.0235,1.996,2.0012,2.0669,1.6637,1.4243,1.4342,1.3975,1.3698,1.3831,1.6518,1.7832,1.7572,1.7918,1.8048,1.787,1.6662,1.6157,1.6303,1.3305,1.2056,1.2134,0.9279,0.8627,0.9899,1.1263,1.1945,1.195,1.2042,1.1361,1.0194,1.0096,0.9118,0.8038,0.0,0.0,0.0,0.7447,0.7663,0.8077,0.8635,0.9709,1.0687,1.119,1.1112,1.0606,0.9487,0.9003,0.8826,0.8856,1.1425,1.4312,1.7367,1.9394,2.1308,2.3269,2.2017,2.0603,1.908,1.6708,1.482,1.3451,1.014,0.8208,0.7564,0.3748,0.0344,-0.2735,-0.6608,-0.935,-1.1103,-1.3027,-1.5989,-1.9505,-2.0485,-2.1297,-2.1795,-2.0002,-1.6939,-1.3145,-0.9878,-0.7845,0.0,0.0,-0.211,0.0166,0.1293,0.4245,0.7308,0.7773,0.8,0.8193,0.9125,1.0829,1.2848,1.5113,1.7339,1.9048,1.9203,2.0117,2.12,2.1887,2.2883,2.5019,2.9719,3.166,3.2506,0.0,3.0589,2.7547,2.367,2.126,1.8951,1.6511,1.7338,1.8175,1.8478,1.9321,1.9633,1.9028,1.6069,1.4654,1.5464,1.4509,1.4262,1.4949,1.6741,1.7318,1.6574,1.7318,1.7318,1.6574,1.6015,1.5892,1.5916,1.3158,1.1119,0.9813,0.9343,0.9509,1.0194,1.2231,1.2624,1.1945,1.1945,1.1165,0.9899,0.9118,0.8531,0.8038,0.0,0.0,0.0,0.728,0.7739,0.8234,0.8635,0.9679,1.035,1.0118,0.9679,0.8992,0.7996,0.7513,0.7652,0.8618,1.1464,1.4458,1.749,1.913,2.1,2.3348,2.1302,1.9698,1.8764,1.5879,1.404,1.3306,0.9823,0.8275,0.8245,0.3252,-0.0504,-0.3185,-0.7147,-1.0086,-1.2257,-1.4091,-1.6857,-2.0212,-2.1633,-2.2228,-2.2264,-2.1643,-1.963,-1.6636,-1.281,-0.8816,0.0,0.0,-0.2959,0.0387,0.0385,0.3256,0.667,0.6663,0.7092,0.8276,1.1361,1.3729,1.591,1.8735,2.1053,2.2529,2.2386,2.3102,2.421,2.542,2.6199,2.8191,3.3122,3.4846,3.5083,3.3927,3.1293,2.7834,2.3189,2.0789,1.859,1.5961,1.6314,1.663,1.6271,1.7975,1.8735,1.7878,1.5883,1.5149,1.6146,1.5063,1.4854,1.5737,1.6662,1.6763,1.5832,1.6756,1.6669,1.5832,1.5832,1.5912,1.5976,1.3313,1.0587,0.8038,0.941,1.0194,1.0681,1.3006,1.3102,1.1945,1.1945,1.0877,0.9316,0.8333,0.8038,0.8038,0.0,0.0,0.0,0.0,0.8316,0.8675,0.8675,1.0001,1.0629,0.9637,0.9442,0.8787,0.7189,0.7014,0.746,0.8594,1.1464,1.4458,1.749,1.9521,2.1399,2.3234,2.1944,2.0507,1.9115,1.6514,1.4827,1.4057,1.038,0.8816,0.9223,0.2601,-0.1287,-0.2953,-0.8595,-1.1729,-1.2948,-1.566,-1.8254,-2.0694,-2.2138,-2.2891,-2.3152,-2.1843,-1.9444,-1.6373,-1.4642,0.0,0.0,-0.2138,-0.0503,0.1267,0.1285,0.3558,0.6211,0.6216,0.6435,0.7617,1.1985,1.2783,1.3983,2.0651,2.2571,2.3481,2.5828,2.7082,2.7735,2.7826,2.9789,3.1951,3.3179,3.3648,3.4086,3.5032,3.1969,2.8305,2.5222,2.2479,1.9407,1.5876,1.6274,1.5848,0.0,1.5474,1.7078,1.7639,1.6487,1.5743,1.5845,1.5737,1.573,1.5832,1.5825,1.5825,1.5832,1.5825,1.5825,1.5832,1.5832,1.6126,1.6573,1.4016,1.1042,0.8038,0.941,1.0681,1.1945,1.3295,1.3102,1.1945,1.1945,1.0288,0.8038,0.8041,0.8038,0.8038,0.0,0.0,0.0,0.0,0.0,0.8921,0.9532,1.0122,1.0361,0.983,0.898,0.0,0.0,0.0,0.0,0.0,1.0976,1.3184,1.5299,1.7179,1.8793,2.0105,1.9809,1.8955,1.7587,1.5532,1.4114,1.3439,1.0249,0.8748,0.8614,0.248,-0.3282,-0.8565,-0.9993,-1.1946,-1.4125,-1.6624,-1.8626,-2.0343,-2.2004,-2.2359,-2.1605,-1.953,-1.8104,-1.6791,0.0,0.0,-0.2355,0.0732,0.1973,0.2147,0.1758,0.2785,0.4169,0.439,0.6737,0.958,1.1091,1.4909,1.8963,2.1105,2.3128,2.4937,2.6011,2.7399,2.8675,2.9405,2.9563,2.9766,3.0291,2.8986,2.8222,2.9451,2.7035,2.4618,2.3511,1.9969,1.7301,1.6979,1.5399,0.0,0.0,0.0,0.0,1.5378,1.5568,1.5832,1.5832,1.5832,1.5832,1.5832,1.5832,1.5832,1.5832,1.5832,1.5832,1.5825,1.4949,1.4255,1.3679,1.1834,0.9987,0.8289,1.0345,1.1458,1.2042,1.4274,1.3884,1.1945,1.1945,1.0288,0.8038,0.8038,0.8038,0.8038,0.0,0.0,0.0,0.0,0.0,0.0,0.0,0.0,0.0,0.0,0.0,0.0,0.0,0.0,0.0,0.0,0.0,1.2508,1.4171,0.0,1.6551,1.7984,1.7586,1.694,1.6094,1.4499,1.3478,1.3026,1.0373,0.9008,0.8709,0.2674,-0.3693,-0.9971,-1.0444,-1.1854,-1.4063,-1.6124,-1.7616,-1.8614,-1.9737,-1.9646,-1.8581,-1.7517,-1.6457,0.0,0.0,0.0,-0.141,0.2226,0.3275,0.3018,0.2409,0.2656,0.3535,0.5273,0.8024,1.0964,1.3366,1.7874,2.2173,2.3362,2.5339,2.7024,2.7213,2.8643,3.0024,3.0446,3.0023,2.9322,2.868,2.7043,2.598,2.6445,2.4746,2.3067,2.2419,1.9271,1.7194,1.7747,1.5555,1.4983,0.0,0.0,0.0,1.467,1.5157,1.5518,1.5518,1.5418,1.5504,1.5818,1.5832,1.5832,1.5832,1.5832,1.5879,1.5985,1.5299,1.4039,1.2279,1.1449,0.9954,0.8303,1.0801,1.1854,1.1908,1.4189,1.3884,1.1848,1.1361,0.9899,0.8038,0.8038,0.8038,0.8031,0.0,0.0,0.0,0.0,0.0,0.0,0.0,0.0,0.0,0.0,0.0,0.0,0.0,0.0,0.0,0.0,0.0,0.0,1.4067,0.0,0.0,1.6837,1.5431,1.4613,1.4591,1.3501,1.2841,1.2803,1.053,0.9553,0.9486,0.295,-0.2598,-0.7153,-0.9744,-1.1663,-1.3,-1.4597,-1.5385,-1.5598,-1.569,-1.5179,-1.4547,-1.5885,0.0,0.0,0.0,0.0,0.0148,0.2387,0.3504,0.3866,0.3313,0.3364,0.4341,0.8447,1.0144,1.2026,1.8185,2.1237,2.358,2.7164,2.8692,2.9329,2.9372,3.0729,3.1732,3.0765,3.0793,3.0287,2.8139,2.7232,2.6639,2.5937,2.4848,2.354,2.1961,2.0369,1.8932,0.0,0.0,0.0,0.0,0.0,0.0,1.5424,0.0,1.501,1.501,1.4743,1.497,1.5805,1.5832,1.5832,1.5832,1.5832,1.5972,1.6253,1.6441,1.5135,1.2577,1.2587,1.0847,0.7938,1.0599,1.1702,1.1523,1.3098,1.3006,1.1653,1.0489,0.9217,0.8038,0.8038,0.8038,0.8018,0.0,0.0,0.0,0.0,0.0,0.0,0.0,0.0,0.0,0.0,0.0,0.0,0.0,0.0,0.0,0.0,0.0,0.0,0.0,0.0,0.0,0.0,0.0,0.0,0.0,0.0,0.0,0.0,0.9688,0.8871,0.8528,0.3624,-0.1208,-0.5785,-0.7383,-1.0712,-1.5036,-1.5471,-1.464,-1.305,0.0,-1.4757,-1.424,0.0,0.0,0.0,0.0,-0.3863,0.1763,0.3032,0.3873,0.4624,0.6328,0.6872,0.7038,0.7824,1.2527,1.7295,1.6839,2.1694,2.702,2.7168,2.797,2.8796,2.9048,2.9868,2.9914,2.7835,2.5995,2.4171,2.21,2.0523,2.0074,2.1701,2.1332,0.0,2.0442,1.8372,0.0,1.7071,1.5933,1.5914,1.7964,1.7498,0.0,0.0,1.5651,1.5611,1.5611,1.5538,1.5598,1.5818,1.5832,1.5832,1.5832,1.5832,1.5865,1.5945,1.4138,1.2952,1.2249,1.0344,0.8965,0.8247,0.9842,1.0427,1.0536,1.1895,1.1653,1.0485,1.0096,0.9217,0.8038,0.8038,0.8038,0.8018,0.0,0.0,0.0,0.0,0.0,0.0,0.0,0.0,0.0,0.0,0.0,0.0,0.0,0.0,0.0,0.0,0.0,0.0,0.0,0.0,0.0,0.0,0.0,0.0,0.0,0.0,0.0,0.0,0.0,0.0,0.7943,0.4049,0.0233,-0.3431,-0.5581,-0.7981,-1.0496,-1.1763,0.0,0.0,0.0,0.0,0.0,0.0,0.0,0.0,0.0,0.177,0.4535,0.5702,0.587,0.5996,0.8578,0.9662,1.0361,1.2243,1.6386,2.0393,2.0369,2.3792,2.7196,2.6628,2.7142,2.7524,2.6566,2.708,2.7039,2.4419,2.2616,2.0995,1.9247,1.8355,1.8287,1.9551,0.0,0.0,1.9352,1.7702,1.6762,1.7206,1.5664,1.5556,1.8316,1.768,1.6734,0.0,1.5785,1.5585,1.5458,1.5324,1.5431,1.5818,1.5832,1.5832,1.5832,1.5832,1.5892,1.6025,1.4109,1.2967,1.2352,1.033,0.8896,0.8264,0.0,0.9905,0.9857,1.0701,1.0681,0.9899,0.9312,0.8627,0.8038,0.8038,0.8038,0.8028,0.0,0.0,0.0,0.0,0.0,0.0,0.0,0.0,0.0,0.0,0.8062,0.0,0.0,0.0,0.0,0.0,0.0,0.0,0.0,0.0,0.0,0.0,0.0,0.0,0.0,0.0,0.0,0.0,0.0,0.0,0.0,0.0,0.0,0.0,0.0,0.0,0.0,0.0,0.0,0.0,0.0,0.0,0.0,0.0,0.0,0.0,0.348,0.6223,0.7363,0.8931,0.8628,0.8001,1.0876,1.2489,1.4204,1.8379,2.0632,2.2418,2.5146,2.5949,2.603,2.5769,2.6162,2.5929,2.3385,2.3822,2.3883,2.0962,2.0096,1.9518,1.8479,1.8711,1.9069,1.8919,2.013,2.041,1.8394,1.7589,1.7323,1.743,1.5498,1.5253,1.8108,1.7058,1.6233,1.6273,1.5805,1.5384,1.5097,1.4836,1.5044,1.5805,1.5832,1.5832,1.5832,1.5832,1.5959,1.6219,1.4883,1.3669,1.2586,1.1083,0.9513,0.8038,0.0,0.0,0.9341,0.9571,0.9706,0.9608,0.8432,0.8038,0.8038,0.8038,0.8038,0.8038,0.0,0.0,0.0,0.0,0.0,0.0,0.0,0.0,0.0,0.0,0.812,0.8313,0.0,0.0,0.0,0.0,0.0,0.0,0.0,0.0,0.0,0.0,0.0,0.0,0.0,0.0,0.0,0.0,0.0,0.0,0.0,0.0,0.0,0.0,0.0,0.0,0.0,0.0,0.0,0.0,0.0,0.0,0.0,0.0,0.0,0.0,0.5863,0.6769,0.7458,0.973,1.0616,1.135,1.495,1.7284,1.8875,1.9823,2.2957,2.5621,2.3165,2.4734,2.6627,2.5191,2.5014,2.4708,2.2829,2.2838,2.2223,1.847,1.8119,1.855,1.8678,1.841,1.8794,2.0371,2.0504,1.9503,1.714,1.756,1.7357,1.5369,1.5337,1.581,1.6592,1.6175,0.0,0.0,1.6179,1.5992,1.5698,1.5631,1.5671,1.5825,1.5832,1.5832,1.5832,1.5832,1.5852,1.5817,1.361,1.2453,1.2023,0.977,0.8407,0.8038,0.8237,0.0,0.8255,0.8312,0.8333,0.8333,0.8137,0.8038,0.8038,0.8038,0.8038,0.8038,0.0,0.0,0.0,0.0,0.0,0.0,0.0,0.9864,0.96,0.8854,0.8919,0.8877,0.8459,1.0093,1.1438,0.0,0.0,0.0,0.0,0.0,0.0,0.0,0.0,0.0,0.0,0.904,0.8175,0.6938,0.0,0.6133,0.5023,0.5182,0.5164,0.4886,0.0,0.0,0.0,0.0,0.0,0.0,0.0,0.0,0.0,0.0,0.0,0.0,0.0,0.7344,0.8037,0.9515,1.0973,1.2802,1.6439,1.9344,2.1344,2.1203,2.4073,2.6609,2.3622,2.4323,2.5448,2.3715,2.3065,2.2049,1.8786,1.848,1.8124,1.5245,1.5099,1.5821,1.7155,1.7541,1.8223,1.9873,2.0694,2.0421,1.8496,1.8049,1.7394,1.5848,1.5,1.4797,1.5265,1.5231,1.5211,1.5351,1.5357,1.5498,1.5812,1.5832,1.5832,1.5832,1.5832,1.5832,1.5832,1.5832,1.5832,1.5737,1.3346,1.2114,1.2018,0.9439,0.8231,0.8153,0.8075,0.0,0.7824,0.7977,0.795,0.7828,0.798,0.8038,0.8038,0.8038,0.8038,0.8038,0.0,0.0,0.0,0.0,0.0,0.0,1.0772,1.0135,0.9835,0.991,0.9873,0.9794,0.9538,1.1002,1.2051,0.0,0.0,0.0,0.0,0.0,0.0,0.0,0.0,0.0,0.0,0.0,0.0,0.6166,0.6326,0.0,0.0,0.0,0.0,0.0,0.4996,0.4961,0.4779,0.0,0.0,0.0,0.0,0.0461,0.0,0.0,0.0,0.0,0.0,0.7839,0.8689,0.9297,1.0851,1.3057,1.5928,1.9035,2.1728,2.2017,2.4234,2.616,2.4415,2.4028,2.3616,2.1638,2.0505,1.8806,1.4597,1.4238,1.4371,1.2857,1.285,1.3873,1.6256,1.6894,1.7639,1.9297,1.9972,2.0071,1.9238,1.7919,1.6854,1.6529,1.486,1.3994,1.4721,1.4689,0.0,1.479,1.4803,0.0,1.5792,1.5832,1.5832,1.5832,1.5832,1.5832,1.5832,1.5832,1.5832,1.5737,1.3297,1.2098,1.1999,0.9419,0.8221,0.8214,0.8092,0.0,0.0,0.7919,0.7865,0.7631,0.7926,0.8038,0.8038,0.8038,0.8038,0.8038,0.0,0.0,0.0,0.0,0.0,0.0,1.0712,1.0578,1.0603,1.0525,1.0544,1.0994,1.2329,1.2528,1.2613,0.0,0.0,0.0,0.0,0.0,0.0,0.0,0.0,0.0,0.0,0.0,0.0,0.6603,0.5866,0.0,0.0,0.0,0.0,0.0,0.0,0.4863,0.481,0.4889,0.0,0.0,0.0,0.0,0.0,0.0,0.0,0.0,0.0,0.8501,0.9314,0.9828,1.088,1.1988,1.2699,1.553,1.908,2.1679,2.3243,2.42,2.4474,2.344,2.1647,1.907,1.7234,1.5386,1.276,1.2643,1.2945,1.2662,1.336,1.499,1.7999,1.7152,1.7001,1.9839,1.7596,1.5862,1.6891,1.5748,1.4953,1.5474,1.5117,1.5066,1.5658,1.5231,1.5144,1.5671,0.0,0.0,1.5825,1.5832,1.5832,1.5832,1.5832,1.5832,1.5832,1.5832,1.5832,1.5737,1.313,1.1975,1.1878,0.9236,0.8062,0.8062,0.8045,0.0,0.0,0.7919,0.7865,0.7631,0.7926,0.8038,0.8038,0.8038,0.8038,0.8038,0.0,0.0,0.0,0.0,0.0,0.0,1.0661,1.0312,1.0241,1.0544,1.0715,1.1369,1.2729,1.326,1.3567,1.3644,0.0,0.0,0.0,0.0,0.0,0.0,0.0,0.0,0.0,0.0,0.695,0.6171,0.5832,0.0,0.0,0.0,0.0,0.0,0.0,0.5016,0.4972,0.5087,0.0,0.0,0.0,0.0,0.0,0.0,0.0,0.0,0.0,0.0,0.9239,0.897,0.9147,0.945,0.9246,1.0831,1.3365,1.6765,2.0563,2.3247,2.1148,2.1493,2.1538,1.803,1.595,1.395,1.0924,1.0846,1.1325,1.1092,1.253,1.4453,1.6431,1.6318,1.6446,1.8156,1.6942,1.6431,1.8321,1.704,1.6389,1.7667,1.6458,1.5371,0.0,0.0,1.479,1.5023,0.0,0.0,1.5812,1.5832,1.5832,1.5832,1.5832,1.5832,1.5832,1.6005,1.6005,1.5737,1.3355,1.2077,1.1848,0.9213,0.8038,0.8038,0.8038,0.0,0.0,0.7841,0.7756,0.737,0.7851,0.8038,0.8038,0.8038,0.8038,0.8038,0.0,0.0,0.0,0.0,0.0,1.0753,1.055,1.0063,0.986,1.0206,1.0659,1.1327,1.2564,1.3538,1.4106,1.3982,1.3844,0.0,0.0,0.0,0.0,0.0,0.0,0.0,0.0,0.0,0.66,0.58,0.58,0.5694,0.0,0.0,0.542,0.5121,0.0,0.0,0.0,0.0,0.0,0.0,0.0,0.0,0.0,0.0,0.0,0.0,0.0,0.0,0.0,0.0,0.0,0.8196,0.7245,0.8132,1.0073,1.3187,1.7733,2.1161,1.8419,1.9219,1.9956,1.6257,1.3955,1.1857,0.9233,0.9252,0.9887,1.0132,1.1964,1.3996,1.5393,1.5584,1.5928,1.7207,1.6604,1.6575,1.8383,1.7415,1.698,1.8022,0.0,1.5398,1.495,1.4903,1.4903,1.4903,0.0,0.0,1.5805,1.5832,1.5832,1.5832,1.5832,1.5832,1.5832,1.6039,1.584,1.5242,1.3188,1.183,1.1082,0.897,0.7991,0.7916,0.8001,0.0,0.0,0.7828,0.774,0.7326,0.7841,0.8038,0.8038,0.8038,0.8038,0.8038,0.0,0.0,0.0,0.0,0.0,0.0,1.0363,0.9989,0.9627,0.9532,1.0147,1.0989,1.2098,1.3447,1.4169,1.375,1.395,0.0,0.0,0.0,0.0,0.0,0.0,0.0,0.0,0.0,0.6651,0.58,0.58,0.58,0.5793,0.5654,0.5589,0.5576,0.0,0.0,0.0,0.0,0.0,0.0,0.0,0.0,0.0,0.0,0.0,0.0,0.0,0.0,0.0,0.0,0.0,0.0,0.0,0.8342,1.0699,1.2323,1.4994,1.7399,1.7101,1.6782,1.5957,1.3389,1.0732,0.8593,0.7809,0.8058,0.8827,1.0219,1.2122,1.4072,1.561,1.5155,1.5253,1.7503,1.6244,1.5255,1.5853,1.5944,1.5705,1.5075,1.506,1.5197,1.5758,1.5812,1.5812,0.0,0.0,0.0,1.5832,1.5832,1.5832,1.5832,1.5832,1.5832,1.5832,1.5832,1.5146,1.3878,1.2528,1.1044,0.9444,0.8477,0.7879,0.0,0.0,0.0,0.0,0.7916,0.7865,0.7624,0.7923,0.8038,0.8038,0.8038,0.8038,0.8038,0.0,0.0,0.0,0.0,0.0,0.0,1.0669,0.9591,0.8872,0.8988,0.9765,1.0996,1.2846,1.415,1.5018,1.5317,1.4836,0.0,0.0,0.0,0.0,0.0,0.0,0.0,0.0,0.0,0.6303,0.6115,0.6115,0.6061,0.5956,0.5803,0.5684,0.5579,0.5318,0.5237,0.0,0.0,0.0,0.0,0.0,0.0,0.0,0.0,0.0,0.0,0.0,0.0,0.0,0.0,0.0,0.0,0.0,0.0,0.0,1.1297,1.3665,1.6066,1.5657,1.5793,1.5332,1.2355,1.0391,0.8751,0.6893,0.7578,0.8607,0.897,1.1902,1.4279,1.4167,1.4616,1.5119,1.5583,1.525,1.5653,1.7476,1.7048,1.687,1.7908,1.6551,1.5625,0.0,0.0,1.5404,0.0,0.0,0.0,1.5805,1.5832,1.5832,1.5832,1.5832,1.5832,1.5832,1.6032,1.5435,1.3878,1.2785,1.1274,0.944,0.8477,0.7879,0.0,0.0,0.0,0.0,0.7919,0.7865,0.7631,0.7926,0.8038,0.8038,0.8038,0.8038,0.8038,0.0,0.0,0.0,0.0,0.0,0.0,1.0115,0.9085,0.845,0.8705,0.9462,1.0692,1.2577,1.4088,1.5118,1.535,1.532,0.0,0.0,0.0,0.0,0.0,0.0,0.0,0.0,0.6795,0.6166,0.6338,0.6338,0.621,0.6112,0.5959,0.584,0.5742,0.544,0.5355,0.0,0.0,0.0,0.0,0.0,0.0,0.5641,0.0,0.0,0.0,0.0,0.0,0.0,0.0,0.0,0.0,0.0,0.0,0.0,0.0,1.2482,1.3941,1.4001,1.4024,1.3494,1.1094,0.9362,0.7785,0.6346,0.7241,0.8513,0.9005,1.2294,1.4825,1.4135,1.4944,1.5332,1.4404,1.5227,1.6365,1.7357,1.7443,1.7423,1.7594,1.643,0.0,0.0,1.5504,0.0,0.0,0.0,0.0,1.5812,1.5832,1.5832,1.5832,1.5832,1.5832,1.5832,1.6012,1.5126,1.3108,1.248,1.0979,0.88,0.8286,0.7879,0.0,0.0,0.0,0.0,0.7963,0.7929,0.7784,0.7967,0.8038,0.8038,0.8038,0.8038,0.8038,0.0,0.0,0.0,0.0,0.0,0.0,0.0,0.8602,0.8385,0.856,0.9197,1.0183,1.1703,1.3562,1.4539,1.4369,1.5367,0.0,0.0,0.0,0.0,0.0,0.0,0.0,0.9081,0.7277,0.6338,0.6338,0.6338,0.6338,0.6335,0.6101,0.603,0.6017,0.5722,0.5586,0.0,0.0,0.0,0.0,0.5446,0.5442,0.0,0.0,0.0,0.0,0.0,0.0,0.0,0.0,0.0,0.0,0.0,0.0,0.0,0.0,0.0,0.0,0.0,1.1792,1.0726,0.9653,0.7719,0.6088,0.6013,0.7085,0.0,1.0081,1.3227,1.5593,1.5237,1.5897,1.5845,1.399,1.5878,1.7138,1.5958,1.7081,1.7262,0.0,1.5057,0.0,1.5745,1.5805,0.0,0.0,0.0,0.0,1.5832,1.5832,1.5832,1.5832,1.5832,1.5832,1.5832,1.573,1.4351,1.19,1.1833,1.0267,0.7577,0.7896,0.7879,0.0,0.0,0.0,0.0,0.8038,0.8038,0.8038,0.8038,0.8038,0.8038,0.8028,0.8031,0.8038,0.0,0.0,0.0,0.0,0.0,0.0,0.0,0.0,0.0,0.0,0.8777,0.9937,1.2422,1.3422,1.4403,0.0,0.0,0.0,0.0,0.0,0.0,0.0,0.0,0.0,0.7042,0.6574,0.6338,0.6338,0.6338,0.6338,0.6335,0.6101,0.603,0.6017,0.5722,0.5525,0.0,0.0,0.0,0.0,0.5535,0.5938,0.0,0.0,0.0,0.0,1.0231,1.0624,0.0,0.0,0.0,0.0,0.0,0.0,0.0,0.0,1.1988,1.25,1.2081,0.0,0.9592,0.872,0.7668,0.6645,0.0,0.7436,0.9339,1.1113,1.3977,1.5972,1.5161,1.6194,1.6285,1.3698,1.502,1.6245,1.6171,1.6858,1.6662,1.4744,1.5231,1.5578,1.5204,1.5571,0.0,0.0,0.0,1.5832,1.5832,1.5832,1.5832,1.5832,1.5832,1.5832,1.5832,1.4848,1.3389,1.1621,1.0821,0.9275,0.7265,0.7797,0.7879,0.0,0.0,0.0,0.8038,0.8038,0.8038,0.8038,0.8038,0.8038,0.8024,0.7909,0.794,0.8021,0.0,0.0,0.0,0.0,0.0,0.0,0.0,0.0,0.0,0.0,0.8853,1.0047,1.3224,1.3669,1.4099,0.0,0.0,0.0,0.0,0.0,0.0,0.0,0.0,0.7057,0.6338,0.6338,0.6338,0.6338,0.6338,0.6338,0.6335,0.6176,0.6098,0.6017,0.5722,0.5504,0.5432,0.0,0.0,0.0,0.5951,0.0,0.0,0.0,0.0,0.0,1.0421,1.0863,0.0,1.0744,1.0624,1.0654,0.0,0.0,0.0,0.0,1.224,1.2359,1.2077,1.0454,0.8803,0.8482,0.7416,0.641,0.6127,0.7492,0.9491,1.17,1.3954,1.5538,1.5388,1.5968,1.5958,1.4273,1.5116,1.6269,1.7187,1.7668,1.7278,1.549,1.528,1.5157,0.0,0.0,0.0,0.0,0.0,1.5832,1.5832,1.5832,1.5832,1.5832,1.5832,1.5832,1.5832,1.4555,1.3048,1.1461,1.0486,0.9032,0.7366,0.7831,0.7953,0.0,0.0,0.0,0.8028,0.7892,0.7919,0.8038,0.8038,0.8038,0.8028,0.7946,0.7967,0.8028,0.0,0.0,0.0,0.0,0.0,0.0,0.0,0.0,0.0,0.0,0.0,0.0,0.0,0.0,0.0,0.0,0.0,0.0,0.0,0.0,0.0,0.0,0.7351,0.629,0.6335,0.6338,0.6338,0.6338,0.6338,0.6338,0.6338,0.6264,0.6169,0.5915,0.5735,0.5525,0.5428,0.5428,0.0,0.0,0.6334,0.0,0.0,0.0,0.0,0.0,0.0,0.0,0.0,1.0863,1.0624,1.0744,1.1531,0.0,0.0,0.0,0.0,0.0,1.204,1.0207,0.8364,0.8651,0.7294,0.5952,0.6257,0.7575,0.9493,1.2271,1.4029,1.5281,1.5939,1.6242,1.6116,1.5118,1.5748,1.6896,1.8485,1.8721,1.8078,1.6551,1.5423,0.0,0.0,0.0,0.0,0.0,0.0,1.5832,1.5832,1.5832,1.5832,1.5832,1.5832,1.573,1.5534,1.4268,1.2858,1.1461,1.0294,0.8945,0.7611,0.7906,0.8038,0.0,0.0,0.0,0.8021,0.777,0.7814,0.8038,0.8038,0.8038,0.8035,0.7987,0.8001,0.8038,0.0,0.0,0.0,0.0,0.0,0.0,0.0,0.0,0.0,0.0,0.0,0.0,0.0,0.0,0.0,0.0,0.0,0.0,0.0,0.0,0.0,0.9296,0.7351,0.629,0.6335,0.6338,0.6338,0.6338,0.6338,0.6338,0.6338,0.6271,0.6129,0.5716,0.5796,0.5616,0.5428,0.5428,0.5428,0.5495,0.6334,0.0,0.0,0.0,0.0,0.0,0.0,0.0,0.0,1.0863,1.0624,1.0744,1.1531,0.0,0.0,0.0,0.0,0.0,1.1481,0.988,0.8665,0.9101,0.7679,0.6268,0.6566,0.796,1.0155,1.3634,1.5909,1.7246,1.7405,1.9013,1.9213,1.5615,1.6878,1.8562,0.0,0.0,1.775,1.7018,0.0,1.5451,0.0,0.0,0.0,0.0,0.0,1.5832,1.5832,1.5832,1.5832,1.5832,1.5832,1.5242,1.4166,1.2909,1.2004,1.1461,0.9332,0.8077,0.7611,0.7906,0.8038,0.0,0.0,0.7997,0.8035,0.7991,0.7997,0.8038,0.8038,0.8038,0.8011,0.776,0.7824,0.8038,0.0,0.0,0.0,0.0,0.0,0.0,0.0,0.0,0.0,0.0,0.0,0.0,0.0,0.0,0.0,0.0,0.0,0.0,0.0,0.0,0.9296,0.9296,0.791,0.685,0.6338,0.6795,0.6872,0.6338,0.6872,0.6799,0.6268,0.5558,0.5463,0.6019,0.5766,0.561,0.5484,0.5484,0.5819,0.6419,0.0,0.0,0.0,0.0,0.0,0.0,0.0,0.0,0.0,0.0,1.0624,1.0807,1.2089,0.0,0.0,0.0,0.0,0.0,1.156,0.9875,0.8846,1.0407,0.8608,0.7068,0.9676,0.9866,1.0863,1.5621,1.6205,1.6329,1.8188,1.9134,1.923,1.8145,2.0734,2.2347,2.0811,1.9502,1.8482,0.0,0.0,0.0,0.0,0.0,0.0,0.0,0.0,0.0,1.5832,1.5832,1.5832,1.5832,1.5832,1.5146,1.3878,1.2528,1.1431,1.0445,0.8758,0.7885,0.7611,0.7906,0.8038,0.8031,0.0,0.8279,0.9004,0.8157,0.8282,0.9019,0.8233,0.8038,0.8014,0.7794,0.7851,0.8028,0.0,0.0,0.0,0.0,0.0,0.0,0.0,0.0,0.0,0.0,0.0,0.0,0.0,0.0,0.0,0.0,0.0,0.0,0.0,0.0,0.9669,0.9669,0.8689,0.7706,0.6641,0.7629,0.7629,0.6644,0.7403,0.7019,0.5559,0.4599,0.4927,0.6275,0.5837,0.564,0.5637,0.5603,0.6222,0.7216,0.0,0.0,0.0,0.0,0.0,0.0,0.0,0.0,0.0,0.0,0.0,0.0,0.0,0.0,0.0,1.307,1.3066,1.2837,1.1681,1.0038,0.9112,1.1419,0.0,0.7675,1.2348,1.1674,1.1696,1.7513,1.7031,1.637,1.9164,1.9053,1.9177,2.0876,2.3716,2.4956,2.2625,2.0753,1.9468,1.9012,0.0,0.0,0.0,0.0,0.0,0.0,0.0,0.0,1.5832,1.5832,1.5832,1.5832,1.5832,1.5051,1.3494,1.2431,1.1101,0.9562,0.8506,0.7923,0.7709,0.7936,0.8038,0.8024,0.8086,0.8883,0.9878,0.8653,0.8887,0.9899,0.8531,0.8018,0.7977,0.7896,0.7916,0.7974,0.0,0.0,0.0,0.0,0.0,0.0,0.0,0.0,0.0,0.0,0.0,0.0,0.0,0.0,0.0,0.0,0.0,0.0,0.0,0.0,1.0714,1.0714,0.9744,0.8689,0.7706,0.8694,0.8694,0.7706,0.7783,0.6304,0.3357,0.3895,0.4939,0.6303,0.5947,0.5786,0.5776,0.5647,0.6216,0.7332,0.8248,0.0,0.0,0.0,0.0,0.0,0.0,0.0,0.0,0.0,0.0,0.0,0.0,0.0,1.3974,1.3252,1.3178,1.3076,1.1736,1.0228,0.9514,1.1243,0.903,0.7645,1.2794,1.253,0.0,1.8833,0.0,1.9697,2.0778,2.0263,2.0449,2.2621,2.3555,2.4173,2.473,0.0,2.0504,2.0044,0.0,0.0,0.0,0.0,0.0,0.0,0.0,0.0,1.5832,1.5832,1.5832,1.5832,1.5832,1.4567,1.2042,1.195,1.1253,0.996,0.8616,0.8028,0.8007,0.8028,0.8038,0.8038,0.9288,0.9878,0.9998,0.9874,0.9878,0.9899,0.8531,0.7953,0.7841,0.7974,0.794,0.8039,0.0,0.0,0.0,0.0,0.0,0.0,0.0,0.0,0.0,0.0,0.0,0.0,0.0,0.0,0.0,0.0,0.0,0.0,0.0,1.1391,1.0783,1.0783,1.0415,1.004,0.9664,1.004,0.9739,0.8765,0.746,0.6247,0.5034,0.399,0.4518,0.6287,0.6027,0.5942,0.5939,0.5884,0.6828,0.8466,0.861,0.988,0.0,0.0,0.0,0.0,0.0,0.0,0.0,0.0,1.2266,1.2696,1.3485,1.3965,1.4025,1.3252,1.3202,1.3108,1.1743,1.0639,1.0593,1.3259,1.1042,0.0,0.0,1.4909,1.5427,2.2042,2.2288,0.0,0.0,2.3815,2.5249,2.4158,2.5857,2.6708,2.4874,2.3073,2.1405,0.0,0.0,0.0,0.0,0.0,0.0,0.0,0.0,0.0,1.5832,1.5832,1.5832,1.5832,1.5832,1.4949,1.3199,1.2334,1.1268,0.9998,0.8627,0.8038,0.8038,0.8038,0.8038,0.8038,0.8531,0.9217,0.9899,0.9118,0.9217,0.9899,0.8531,0.8004,0.7946,0.7913,0.8402,0.9205,0.0,0.0,0.0,0.0,0.0,0.0,0.0,0.0,0.0,0.0,0.0,0.0,0.0,0.0,0.0,0.0,0.0,0.0,1.2151,1.156,1.1114,1.1114,1.1193,1.1236,1.1236,1.1236,1.0645,0.9296,0.6601,0.5637,0.625,0.3448,0.3599,0.6288,0.6191,0.6061,0.6095,0.6,0.7183,0.9206,0.9327,1.0762,0.0,0.0,0.0,0.0,0.0,0.0,0.0,0.0,1.3191,1.3485,1.4034,1.4382,1.441,1.3386,1.3386,1.3344,1.1984,1.1188,1.1533,1.4535,0.0,0.0,1.8219,1.778,1.7622,2.3784,2.4447,2.3753,2.333,0.0,0.0,0.0,2.6563,2.7265,2.475,2.287,0.0,0.0,0.0,0.0,0.0,0.0,0.0,0.0,0.0,0.0,0.0,1.5832,1.5832,1.5832,1.5832,1.5146,1.3878,1.2528,1.1268,0.9998,0.8627,0.8038,0.8038,0.8038,0.8038,0.8038,0.8432,0.9118,0.9899,0.9019,0.892,0.9312,0.8333,0.8038,0.8024,0.8405,0.8822,0.9489,0.0,0.0,0.0,0.0,0.0,0.0,0.0,0.0,1.0405,0.9753,1.0695,0.0,0.0,0.0,0.0,0.0,0.0,0.0,1.187,1.1864,1.1864,1.1864,1.2144,1.2298,1.2298,1.2298,1.1323,0.9296,0.5129,0.4233,0.6169,0.196,0.227,0.6288,0.628,0.6284,0.6314,0.5935,0.7143,0.9346,1.0159,1.1636,1.3431,0.0,0.0,0.0,0.0,0.0,0.0,0.0,1.3554,1.4213,1.4213,1.4765,1.5145,1.3814,1.3859,1.3931,1.2353,1.1828,1.2257,1.4606,1.2713,1.2724,2.2098,2.1095,1.9326,2.3416,2.6224,2.7543,2.6221,2.6368,0.0,2.5041,2.5262,2.5295,2.452,2.1955,0.0,0.0,0.0,0.0,0.0,0.0,0.0,0.0,0.0,0.0,0.0,1.5832,1.5832,1.5832,1.5832,1.5146,1.3878,1.2528,1.1268,0.9998,0.8627,0.8038,0.8038,0.8038,0.8038,0.8137,0.941,0.9998,0.9998,0.9998,0.9217,0.8038,0.8038,0.8038,0.8137,0.9509,0.9118,0.8627,0.0,0.0,0.0,0.0,0.0,0.0,0.0,0.0,1.0405,0.9753,1.1115,0.0,0.0,0.0,0.0,0.0,0.0,0.0,1.1857,1.167,1.1557,1.1557,1.1844,1.1997,1.1997,1.0781,0.9911,0.9332,0.6608,0.4135,0.1885,0.2113,0.2813,0.4146,0.6535,0.7099,0.6173,0.768,0.8639,0.9269,1.0826,1.2494,1.4267,0.0,0.0,0.0,0.0,0.0,0.0,0.0,0.0,0.0,1.5559,1.5901,1.611,1.5178,1.4646,1.4263,1.3528,1.2872,1.2906,1.4528,1.5854,1.7183,1.8722,2.0039,0.0,0.0,2.9354,2.8398,2.7779,2.8928,0.0,2.5486,2.6217,2.6429,2.4256,0.0,0.0,0.0,0.0,0.0,0.0,0.0,0.0,0.0,0.0,0.0,0.0,1.5832,1.5832,1.5832,1.5832,1.5146,1.3878,1.2528,1.1268,0.9998,0.8627,0.8038,0.8038,0.8038,0.8531,0.941,0.9801,0.9998,0.9899,0.9019,0.8333,0.8038,0.8038,0.8038,0.8038,0.8432,0.8924,0.9702,0.0,0.0,0.0,0.0,0.0,0.0,0.0,0.0,1.0494,1.0139,1.1098,1.1829,0.0,0.0,0.0,0.0,0.0,0.0,0.0,1.1349,1.1309,1.1423,1.171,1.1774,1.1446,1.0049,0.9327,0.9311,0.6388,0.326,0.0077,0.278,0.4171,0.4481,0.6405,0.6809,0.6105,0.776,0.892,0.9785,1.1574,1.3493,1.5437,0.0,0.0,0.0,0.0,0.0,0.0,0.0,0.0,0.0,1.6533,1.6885,1.6994,1.5842,1.5432,1.5421,1.5673,1.5614,1.6228,1.963,2.0338,2.0206,2.0609,2.2293,2.581,3.2698,3.2393,3.0748,3.0281,3.0834,0.0,2.6455,2.683,2.677,2.4167,0.0,0.0,0.0,0.0,0.0,0.0,0.0,0.0,0.0,0.0,0.0,0.0,1.5832,1.5832,1.5832,1.5832,1.5439,1.4657,1.2818,1.1556,1.0779,0.941,0.8825,0.8825,0.8825,0.9178,0.9888,0.9964,0.9998,0.9903,0.8528,0.8038,0.8038,0.8038,0.8038,0.8038,0.8627,0.892,0.9509,0.0,0.0,1.0444,0.9836,0.0,0.0,0.0,0.0,1.0598,1.0618,1.0788,1.1062,0.0,0.0,0.0,0.0,0.0,0.0,0.0,1.0969,1.1149,1.1506,1.1837,1.1631,1.0858,0.982,0.9266,0.9207,0.5079,0.2239,0.053,0.3724,0.556,0.6235,0.6221,0.6119,0.6074,0.7005,0.8558,1.0584,1.2318,1.4446,1.656,1.712,0.0,0.0,0.0,0.0,0.0,0.0,0.0,0.0,1.7314,1.7754,1.7839,1.6387,1.6514,1.7381,1.8527,1.9249,2.1143,2.7127,2.4992,2.2545,2.6577,2.7172,2.8627,3.4889,3.4859,3.3515,3.3106,3.2127,3.0437,2.7606,2.7166,2.6378,0.0,0.0,0.0,0.0,0.0,0.0,0.0,0.0,0.0,0.0,0.0,0.0,0.0,1.5805,1.5798,1.5832,1.5805,1.5704,1.5635,1.3301,1.2042,0.0,1.0663,1.016,1.0143,1.0177,1.0192,1.0127,1.0192,1.0177,1.0096,0.8627,0.8038,0.8038,0.8038,0.8038,0.8333,0.9509,0.9312,0.8726,0.0,0.0,1.0193,1.002,0.0,0.0,0.0,0.0,0.0,0.0,0.0,0.0,0.0,0.0,0.0,0.0,0.0,0.0,0.0,1.0782,1.1097,1.2116,1.2672,1.2336,1.0852,0.982,0.9018,0.8535,0.4916,0.348,0.4251,0.3778,0.4461,0.6136,0.7139,0.6962,0.5992,0.8433,0.9565,0.9989,1.2462,1.4289,1.5695,1.65,1.709,0.0,0.0,0.0,0.0,0.0,0.0,0.0,1.7842,1.8398,1.8951,1.8594,1.9472,2.0668,2.1251,2.1753,2.253,2.3865,2.422,2.6205,3.4042,3.3507,3.2249,3.5348,3.416,3.2757,3.3515,3.2371,3.052,2.7713,2.697,2.5877,0.0,0.0,0.0,0.0,0.0,0.0,0.0,0.0,0.0,0.0,0.0,0.0,1.5832,1.5611,1.5591,1.5818,1.5611,1.5117,1.4358,1.3782,1.2909,0.0,1.1375,1.1114,1.1062,1.1308,1.2012,1.2918,1.1728,1.1298,1.1263,0.892,0.8038,0.8038,0.8038,0.8627,0.9608,0.9903,1.0485,1.1165,0.0,0.0,0.0,0.0,0.0,0.0,0.0,0.0,0.0,0.0,0.0,0.0,0.0,0.0,0.0,0.0,0.0,0.0,0.0,0.0,1.1006,1.1902,1.2379,1.1834,1.011,0.9593,0.858,0.7231,0.5378,0.4437,0.4319,0.4437,0.5118,0.62,0.6704,0.6745,0.6576,0.8374,0.9994,1.1393,1.2988,1.4705,1.6355,1.6838,1.7061,1.71,1.7275,0.0,0.0,0.0,0.0,0.0,0.0,0.0,1.9817,1.9279,2.021,2.1593,2.2774,2.4192,2.5646,2.7224,2.9486,3.2182,3.5024,3.4952,3.4356,3.4651,3.3949,3.3186,3.3066,3.1963,3.0151,2.736,2.6651,2.5724,0.0,0.0,0.0,0.0,0.0,0.0,0.0,0.0,0.0,0.0,0.0,1.5832,1.5832,1.5685,1.5671,1.5825,1.5678,1.5383,1.4848,1.404,1.3311,1.2639,1.2395,1.2498,1.303,1.252,1.3113,1.4266,1.2242,1.1515,1.1447,0.896,0.7929,0.7936,0.8011,0.8825,0.9998,0.9998,1.0779,1.1848,0.0,0.0,0.0,0.0,0.0,0.0,0.0,0.0,0.0,0.0,0.0,0.0,0.0,0.0,0.0,0.0,0.0,0.0,0.0,0.0,0.0,1.1608,1.1984,1.1263,0.9367,0.9261,0.8182,0.5969,0.5942,0.528,0.404,0.5727,0.6576,0.6644,0.6345,0.6592,0.7137,0.804,1.008,1.286,1.3539,1.5097,1.7061,1.7217,0.0,0.0,1.7627,1.7949,1.8076,1.8496,0.0,0.0,0.0,0.0,2.0382,1.9728,2.0673,2.232,2.434,2.6754,2.9495,3.2374,3.5192,3.6564,3.3915,3.4383,3.4854,3.3567,3.3757,3.371,3.2183,3.1032,2.9492,2.6891,2.6307,2.5473,2.3387,0.0,0.0,0.0,0.0,0.0,0.0,0.0,0.0,0.0,0.0,1.5805,1.5758,1.5705,1.5678,1.5678,1.5631,1.5631,1.5678,1.4384,1.3704,1.3704,1.335,1.3848,1.4803,1.3561,1.3629,1.4591,1.2246,1.1156,1.0833,0.8695,0.7811,0.7824,0.8174,0.9118,1.0391,1.0583,1.1458,1.2431,0.0,0.0,0.0,0.0,0.0,0.0,0.0,0.0,0.0,0.0,1.0624,1.0638,0.0,1.0388,1.0221,1.018,1.0214,1.02,1.012,0.0,0.0,1.2497,1.288,1.1899,0.9367,0.9178,0.8111,0.603,0.5898,0.647,0.0,0.0,0.0,0.813,0.0,0.7668,0.7208,0.8623,1.0231,1.2026,1.3967,1.5102,1.5762,0.0,0.0,0.0,0.0,0.0,1.8076,1.8496,1.8601,0.0,0.0,0.0,2.021,2.1308,2.3304,2.5588,2.7391,3.0133,3.2791,3.428,3.3689,3.3237,3.5457,3.4128,3.2403,3.2635,3.2976,3.2685,3.108,2.9905,2.8539,2.6798,2.563,2.4542,2.3299,0.0,0.0,0.0,0.0,0.0,0.0,0.0,0.0,0.0,1.5832,1.5718,1.5471,1.5217,1.5077,1.5077,1.483,1.4816,1.5077,1.4856,1.4837,1.474,1.4445,1.4269,1.4202,1.3985,1.3729,1.3296,1.1621,1.0462,0.9625,0.8313,0.7811,0.7921,0.9245,1.0485,1.175,1.2909,1.4172,1.4956,0.0,0.0,0.0,0.0,0.0,0.0,0.0,0.0,0.0,0.0,0.0,1.0624,1.0624,1.0441,1.0234,0.9907,1.002,1.0288,1.0756,1.1183,1.1711,1.2409,1.2172,1.1076,0.8917,0.8821,0.807,0.6481,0.5923,0.731,0.0,1.0067,0.9426,0.0,0.0,0.0,0.0,1.1042,1.2577,1.3164,1.4127,1.5135,0.0,0.0,0.0,0.0,0.0,0.0,0.0,0.0,1.8799,1.9072,1.9443,0.0,0.0,0.0,2.3047,2.5313,2.893,3.1208,3.3107,3.5316,3.4177,3.3139,3.52,3.3227,3.1199,3.1694,3.1465,3.0957,3.0272,2.9199,2.8034,2.667,2.5546,2.4372,2.3222,0.0,0.0,0.0,0.0,0.0,0.0,0.0,0.0,0.0,1.5832,1.5705,1.5411,1.5277,1.5137,1.497,1.4836,1.483,1.4963,1.4796,1.4629,1.4469,1.4342,1.4208,1.4088,1.4088,1.3611,1.2581,1.1242,1.0112,0.9058,0.8056,0.8062,0.8831,0.9689,1.1263,1.3102,1.3686,1.4752,1.5635,0.0,0.0,0.0,0.0,0.0,0.0,0.0,0.0,0.0,0.0,0.0,1.0537,1.0618,0.0,0.0,0.0,0.988,1.0405,1.1378,1.0812,1.1066,1.2307,1.1458,1.038,0.8969,0.8922,0.8324,0.721,0.6559,0.7969,1.1292,1.1032,1.0492,0.0,1.1938,0.0,0.0,0.0,0.0,1.5208,1.5473,1.5999,1.6694,0.0,0.0,0.0,0.0,0.0,0.0,0.0,0.0,0.0,0.0,1.9561,0.0,0.0,0.0,2.5455,2.9362,3.104,3.222,3.453,3.3584,3.2411,3.3711,3.1856,3.0019,3.085,3.0392,2.9702,2.9456,2.8438,2.7441,2.6637,2.5305,2.4039,2.3222,0.0,0.0,0.0,0.0,0.0,0.0,0.0,0.0,0.0,1.5832,1.5671,1.5304,1.5291,1.5117,1.475,1.4743,1.4743,1.4743,1.4516,1.4342,1.4195,1.4122,1.4128,1.4195,1.4195,1.3572,1.2336,1.1131,0.9828,0.846,0.8266,0.8671,0.9626,1.0633,1.2226,1.3974,1.4262,1.4949,1.573,0.0,0.0,0.0,0.0,0.0,0.0,0.0,0.0,0.0,0.0,0.0,1.0247,1.0598,1.0307,1.0013,0.9706,0.9699,1.0322,1.1752,1.0777,1.0927,1.272,1.1603,0.0,0.9869,0.9723,0.9125,0.8165,0.7951,0.8511,0.9635,1.11,1.2125,1.262,1.1571,1.3101,1.6292,0.0,0.0,1.8261,1.8955,1.824,0.0,0.0,0.0,0.0,0.0,0.0,0.0,0.0,0.0,0.0,0.0,0.0,2.0281,0.0,0.0,0.0,2.8597,2.9428,3.0304,3.1104,3.0132,2.9308,3.0865,2.9684,2.8651,3.0138,3.0059,2.9456,2.8426,2.729,2.6554,2.6472,2.4648,2.3135,2.3135,0.0,0.0,0.0,0.0,0.0,0.0,0.0,0.0,0.0,1.5832,1.5585,1.5017,1.4983,1.4723,1.4148,1.4135,1.4135,1.4135,1.4115,1.4242,1.4496,1.4215,1.4229,1.4496,1.4496,1.386,1.2692,1.1373,0.9508,0.7563,0.9083,0.9702,1.0001,1.271,1.3776,1.407,1.5242,1.573,1.5439,0.0,0.0,0.0,0.0,0.0,0.0,0.0,0.0,0.0,0.0,0.0,0.0,0.0,1.0294,1.0,0.9706,0.9686,1.0212,1.1426,1.0824,1.0933,1.2143,1.1396,1.0554,0.9538,0.9614,0.9435,0.8881,0.8327,0.9018,1.0997,1.0604,1.139,1.3259,1.5558,1.5904,1.4851,1.7844,0.0,0.0,0.0,0.0,0.0,0.0,0.0,0.0,0.0,0.0,0.0,0.0,0.0,0.0,0.0,0.0,0.0,0.0,2.5339,2.7393,2.8397,2.9037,2.9619,3.0748,2.9536,2.8332,2.9295,2.8794,2.8031,2.7927,2.8933,2.9245,2.7406,2.6783,2.6224,2.5546,2.4135,2.3135,2.3135,0.0,0.0,0.0,0.0,0.0,0.0,0.0,0.0,0.0,0.0,1.5184,1.4977,1.4603,1.4309,1.4095,1.4088,1.4088,1.4088,1.4269,1.4416,1.4522,1.4609,1.4703,1.4803,1.4803,1.4161,1.2986,1.2683,1.1563,1.0086,1.0735,1.1517,1.2393,1.3486,1.4364,1.514,1.5635,1.5242,1.4459,0.0,0.0,0.0,0.0,0.0,1.4082,1.4279,1.2732,1.1277,0.0,0.0,0.0,0.0,0.0,1.0147,0.9853,1.0017,1.0379,1.1041,1.1052,1.1226,1.171,1.1372,1.0777,0.9993,1.0079,1.0036,0.9857,0.9174,0.9628,1.1083,1.0574,1.1166,1.2736,1.6006,1.6924,0.0,0.0,0.0,1.6633,0.0,0.0,1.7397,0.0,0.0,0.0,0.0,0.0,0.0,0.0,0.0,0.0,0.0,0.0,0.0,0.0,0.0,0.0,2.7626,2.7948,2.8101,2.9228,2.8212,2.7089,2.7533,2.7748,2.762,2.6892,2.8373,2.9155,2.6905,2.6531,2.6141,2.4957,2.38,2.3135,2.3135,2.3135,0.0,0.0,0.0,0.0,0.0,0.0,0.0,0.0,0.0,0.0,1.4977,1.4596,1.4289,1.4095,1.4088,1.4135,1.4229,1.4329,1.4476,1.4669,1.477,1.4816,1.4823,1.5017,1.4682,1.3785,1.4136,1.3193,1.1585,1.2194,1.2959,1.3838,1.4297,1.5045,1.5832,1.5832,1.5242,1.4364,0.0,0.0,1.55,1.6498,1.5373,1.4279,1.4279,1.1936,1.0241,1.0584,0.0,0.0,0.0,0.0,0.0,1.0154,1.0595,1.0815,1.0781,1.1375,1.1717,1.1593,1.1441,1.143,1.1416,1.1156,1.1009,1.0995,1.0715,1.0251,0.9571,0.0,1.1651,1.1334,1.2478,1.5821,2.0577,0.0,2.1659,2.3167,0.0,2.0849,2.0498,0.0,0.0,0.0,2.2536,2.2132,0.0,2.2641,0.0,0.0,0.0,0.0,0.0,0.0,0.0,0.0,0.0,0.0,0.0,2.6332,2.5975,2.5548,2.5523,2.6414,2.7231,2.7218,2.8561,2.9081,2.6849,2.6461,2.6058,2.4957,2.38,2.3135,2.3135,2.3135,0.0,0.0,0.0,0.0,0.0,0.0,0.0,0.0,1.5812,1.5565,1.501,1.4957,1.4689,1.4115,1.4088,1.4222,1.4502,1.4235,1.4389,1.495,1.4669,1.4536,1.4563,1.5137,1.5251,1.5023,1.5585,1.4319,1.1921,1.3391,1.3974,1.407,1.5343,1.5832,1.5832,1.5832,1.5737,1.5343,0.0,1.5111,1.6088,1.7385,1.5717,1.4222,1.4279,1.226,1.0951,0.0,0.0,0.0,0.0,0.0,0.0,1.1377,1.0746,1.0767,1.1839,1.1468,1.109,1.0877,1.1452,1.155,1.1122,1.145,1.1423,1.0995,1.0915,1.0672,0.0,0.0,0.0,0.0,1.1269,1.3194,1.5711,1.8705,0.0,0.0,2.1548,2.1125,0.0,0.0,0.0,0.0,0.0,2.2767,2.2462,0.0,2.2017,2.0137,0.0,0.0,0.0,0.0,0.0,0.0,2.482,0.0,0.0,0.0,0.0,0.0,2.3904,2.4983,2.595,2.5573,2.6549,2.7002,2.5554,2.5245,2.4882,2.38,2.3299,2.3135,2.3135,2.3135,0.0,0.0,0.0,0.0,0.0,0.0,0.0,0.0,1.5438,1.5224,1.5277,1.487,1.4569,1.4402,1.4195,1.4128,1.4208,1.4335,1.4482,1.4643,1.4776,1.495,1.5157,1.5324,1.5471,1.5598,1.5758,1.5393,1.4747,1.5114,1.5242,1.5337,1.5635,1.5832,1.5832,1.5832,1.5242,1.4364,1.4517,1.5488,1.6433,1.7248,1.5716,1.4238,1.391,1.2247,1.1297,0.0,0.0,0.0,0.0,0.0,0.0,1.1711,1.1454,1.1472,1.1797,1.1956,1.1617,1.0813,1.1463,1.171,1.1363,1.1697,1.1643,1.1176,1.1049,0.0,0.0,0.0,0.0,0.0,1.0119,1.0742,0.0,0.0,0.0,0.0,2.0651,0.0,0.0,2.215,2.2949,0.0,0.0,0.0,2.3941,2.5168,2.3816,0.0,0.0,0.0,0.0,0.0,0.0,0.0,0.0,0.0,0.0,0.0,0.0,0.0,2.3103,2.4406,2.5573,2.5523,2.636,2.6745,2.5487,2.4876,2.4178,2.3034,2.2881,2.2939,2.3115,2.3135,2.3203,0.0,0.0,0.0,0.0,1.7501,1.5965,1.5838,1.5518,1.5344,1.5391,1.4957,1.4649,1.4522,1.4355,1.4269,1.4269,1.4315,1.4402,1.4522,1.4823,1.499,1.5044,1.5411,1.5605,1.5658,1.5772,1.5832,1.5832,1.5832,1.5832,1.5832,1.5832,1.5832,1.5832,1.5832,1.5337,1.4561,0.0,1.5815,1.666,1.6627,1.5549,1.4413,1.3469,1.213,1.1661,0.0,0.0,0.0,0.0,0.0,0.0,0.0,1.247,1.2476,1.1404,1.2538,1.2588,1.1055,1.1523,1.1824,1.1824,1.185,1.1724,1.1423,0.0,0.0,0.0,0.0,0.0,0.0,0.935,0.9017,0.0,0.0,0.0,2.0392,1.9713,2.145,0.0,0.0,2.4015,2.5052,2.7234,2.6746,2.529,2.7195,2.6257,0.0,0.0,0.0,0.0,0.0,2.3489,0.0,0.0,0.0,0.0,0.0,0.0,0.0,2.2805,2.4091,2.5378,2.5996,2.6757,2.7009,2.5779,2.4686,2.365,2.2601,2.2347,2.2388,2.2766,2.2989,2.3174,0.0,0.0,0.0,1.9837,1.7683,1.6152,1.5852,1.5832,1.5718,1.5458,1.517,1.489,1.4623,1.4549,1.4522,1.4522,1.4229,1.4215,1.4476,1.477,1.4796,1.4596,1.5411,1.5658,1.5458,1.5718,1.5832,1.5832,1.5832,1.5832,1.5832,1.5832,1.5832,1.5832,1.5832,1.5832,1.5439,1.5098,1.6374,1.7111,1.6651,1.5549,1.4413,1.3469,1.2862,1.2832,1.3751,0.0,0.0,0.0,0.0,0.0,0.0,0.0,1.2747,1.3623,1.292,1.2006,1.1055,1.1323,1.151,1.151,1.175,1.1724,1.1423,0.0,0.0,0.0,0.0,0.0,0.0,0.9685,0.974,0.0,0.0,0.0,1.7607,2.1282,0.0,2.2004,2.5462,2.5338,2.3649,2.6451,2.6426,2.511,2.5859,2.6178,2.6074,0.0,0.0,0.0,0.0,0.0,0.0,0.0,0.0,0.0,0.0,0.0,0.0,2.1572,2.2053,2.2786,2.3456,2.3017,2.2853,2.3758,2.3104,2.2241,2.2085,2.1286,2.0697,2.0856,2.216,2.2318,2.0271,0.0,0.0,1.8537,1.7126,1.6152,1.5852,1.5832,1.5805,1.5745,1.5471,1.5284,1.5231,1.477,1.4522,1.4522,1.4229,1.4115,1.4175,1.4469,1.4703,1.489,1.5297,1.5578,1.5745,1.5805,1.5832,1.5832,1.5832,1.5832,1.5832,1.5832,1.5832,1.5832,1.5832,1.5832,1.554,1.5528,1.6826,1.734,1.6114,1.5356,1.4471,1.3006,1.295,1.3484,1.4533,0.0,0.0,0.0,0.0,0.0,0.0,0.0,0.0,0.0,1.3249,1.2516,1.1703,1.1779,1.1597,1.1209,1.2305,1.2391,1.1423,0.0,0.0,0.0,0.0,0.0,0.0,0.0,0.0,0.0,0.0,1.3917,1.7644,2.1243,0.0,2.3506,2.6524,2.6716,2.5492,2.6814,2.7055,2.6666,2.6253,2.6259,0.0,0.0,2.5256,2.3991,0.0,2.3766,2.3306,0.0,0.0,0.0,2.132,0.0,0.0,0.0,2.1491,2.2134,2.2736,2.2461,2.2258,2.3029,2.2139,2.1299,2.1523,2.0604,1.9677,1.9059,2.0732,2.1632,2.0666,0.0,0.0,1.8354,1.7036,1.6152,1.5852,1.5832,1.5832,1.5832,1.5691,1.5545,1.5398,1.511,1.4816,1.4522,1.4522,1.4449,1.4309,1.475,1.5037,1.519,1.5478,1.5691,1.5832,1.5832,1.5832,1.5832,1.5832,1.5832,1.5832,1.5832,1.5832,1.5832,1.5832,1.5832,1.5655,1.5999,1.7092,1.7347,1.5781,1.5305,1.4665,1.3091,1.3307,1.4073,0.0,0.0,0.0,0.0,0.0,0.0,0.0,0.0,0.0,0.0,0.0,1.3654,1.276,1.268,1.226,1.1507,1.2925,1.3027,1.1628,0.0,0.0,0.0,0.0,0.0,0.0,0.0,0.0,0.0,0.0,0.0,1.9399,0.0,2.3765,2.5451,2.7419,2.7919,2.7578,2.764,2.8216,2.8839,2.7482,0.0,2.721,2.8319,2.6815,0.0,0.0,0.0,0.0,0.0,0.0,0.0,0.0,0.0,2.0462,0.0,0.0,0.0,2.2127,2.2264,2.2355,2.2439,0.0,0.0,0.0,0.0,0.0,0.0,1.9123,0.0,2.0482,0.0,0.0,0.0,1.6759,1.6025,1.5845,1.5832,1.5832,1.5832,1.5832,1.5718,1.5484,1.5424,1.517,1.4689,1.487,1.4843,1.4609,1.5144,1.5398,1.5404,1.5698,1.5832,1.5832,1.5832,1.5832,1.5832,1.5832,1.5832,1.5832,1.5832,1.5832,1.5832,1.5832,1.5865,1.5747,1.6459,1.7084,1.7216,1.6582,1.572,1.5163,1.4879,1.4917,0.0,0.0,0.0,0.0,0.0,0.0,0.0,0.0,0.0,0.0,1.5762,0.0,0.0,1.3975,1.4016,1.3737,1.3164,1.3057,1.2841,1.2579,0.0,0.0,0.0,0.0,0.0,0.0,1.1175,0.0,0.0,0.0,1.9154,0.0,2.602,2.5905,0.0,2.8394,2.8733,2.7165,2.8383,2.9686,3.0671,0.0,2.9416,3.0062,0.0,2.7808,2.6841,0.0,0.0,0.0,0.0,0.0,0.0,0.0,2.0986,0.0,0.0,0.0,2.0052,1.9755,0.0,0.0,0.0,0.0,0.0,0.0,0.0,0.0,1.9181,1.7903,1.6496,1.5479,1.6661,0.0,0.0,1.5584,1.5591,1.5812,1.5832,1.5832,1.5832,1.5832,1.5812,1.5785,1.5531,1.5364,1.5297,1.5077,1.4943,1.4917,1.5244,1.5398,1.5404,1.5698,1.5832,1.5832,1.5832,1.5832,1.5832,1.5832,1.5832,1.5832,1.5832,1.5832,1.5832,1.5832,1.5999,1.6025,1.7307,1.7627,1.7514,1.6748,1.579,1.5234,1.5234,1.5666,0.0,0.0,0.0,0.0,0.0,0.0,0.0,0.0,0.0,1.8012,0.0,0.0,0.0,1.6008,1.5358,1.4556,1.3545,1.4323,1.4328,1.3494,1.3654,0.0,0.0,0.0,0.0,0.0,1.2828,0.0,1.7803,0.0,2.0773,0.0,0.0,0.0,0.0,2.8923,2.9411,2.8098,2.7872,2.9254,3.0922,0.0,2.9487,0.0,0.0,0.0,0.0,0.0,0.0,0.0,0.0,0.0,0.0,0.0,0.0,0.0,2.1446,0.0,1.9543,0.0,0.0,0.0,0.0,0.0,0.0,0.0,1.8709,0.0,0.0,0.0,1.522,0.0,0.0,0.0,0.0,0.0,0.0,0.0,1.5578,1.5578,1.5578,1.5738,1.5832,1.5832,1.5712,1.5565,1.5398,1.5444,1.5384,1.5217,1.5504,1.5651,1.5651,1.5772,1.5832,1.5832,1.5832,1.5832,1.5832,1.5832,1.5832,1.5832,1.5832,1.5832,1.5852,1.6019,1.6166,1.6319,1.7861,0.0,0.0,0.0,1.6219,1.5587,1.5587,0.0,0.0,0.0,0.0,0.0,1.6096,1.579,0.0,0.0,1.8405,1.9202,0.0,0.0,1.783,0.0,0.0,0.0,1.4872,1.5327,1.5232,1.441,1.4493,0.0,0.0,0.0,0.0,0.0,0.0,1.6221,1.9526,0.0,2.2889,2.6405,2.7448,2.7751,2.7755,2.9425,2.9915,2.9558,2.8518,2.9605,3.1261,2.9212,2.9481,0.0,2.9039,0.0,0.0,0.0,0.0,0.0,2.544,0.0,0.0,0.0,0.0,0.0,0.0,0.0,0.0,0.0,0.0,0.0,0.0,0.0,0.0,0.0,0.0,1.7057,0.0,1.5311,0.0,0.0,0.0,0.0,0.0,0.0,0.0,0.0,0.0,1.5398,1.5398,1.5671,1.5832,1.5832,1.5832,1.5732,1.5518,1.5725,1.5725,1.5518,1.5732,1.5832,1.5832,1.5832,1.5832,1.5832,1.5832,1.5832,1.5832,1.5832,1.5832,1.5832,1.5832,1.5879,1.5979,1.6192,1.6326,1.6466,1.793,1.8008,0.0,0.0,1.7207,1.6576,1.6533,0.0,0.0,0.0,0.0,0.0,0.0,0.0,0.0,0.0,0.0,1.8332,1.9234,0.0,1.9839,0.0,0.0,1.7935,0.0,1.5661,1.4655,1.5256,1.4158,0.0,0.0,0.0,0.0,0.0,0.0,1.7177,2.2036,2.3236,2.6205,3.024,3.1708,3.1901,3.1202,0.0,3.0265,3.1409,3.1379,0.0,0.0,3.0727,3.0128,0.0,0.0,0.0,0.0,0.0,0.0,0.0,0.0,0.0,0.0,2.4169,0.0,0.0,0.0,0.0,1.9287,0.0,0.0,0.0,0.0,0.0,0.0,0.0,0.0,0.0,0.0,0.0,0.0,0.0,0.0,0.0,0.0,0.0,0.0,0.0,0.0,0.0,1.5398,1.5671,1.5832,1.5832,1.5832,1.5825,1.5812,1.5825,1.5825,1.5812,1.5825,1.5832,1.5832,1.5832,1.5832,1.5832,1.5832,1.5832,1.5832,1.5832,1.5832,1.5832,1.5832,1.6005,1.6259,1.6273,1.6446,1.6734,1.775,0.0,0.0,0.0,0.0,0.0,0.0,1.7812,0.0,0.0,0.0,0.0,0.0,1.7952,1.7973,0.0,0.0,2.0547,2.1603,2.1535,0.0,0.0,0.0,2.0706,0.0,0.0,0.0,0.0,0.0,0.0,0.0,0.0,0.0,0.0,0.0,1.9997,0.0,0.0,0.0,0.0,0.0,3.0646,3.0748,0.0,0.0,3.1482,3.1482,3.1958,0.0,3.0802,3.0773,3.109,2.9347,2.8385,2.7854,2.8049,2.7736,0.0,0.0,0.0,2.7915,2.6883,0.0,0.0,0.0,0.0,0.0,0.0,0.0,0.0,0.0,0.0,0.0,0.0,0.0,0.0,0.0,0.0,0.0,0.0,0.0,0.0,0.0,0.0,0.0,0.0,0.0,0.0,0.0,1.5277,1.5545,1.5545,1.5732,1.5832,1.5832,1.5832,1.5832,1.5832,1.5832,1.5832,1.5832,1.5832,1.5832,1.5832,1.5832,1.5832,1.5832,1.5832,1.5832,1.5845,1.6046,1.6186,1.6293,1.6486,1.6747,1.7041,1.7876,1.7822,0.0,0.0,0.0,0.0,0.0,0.0,0.0,0.0,1.9137,0.0,1.9393,0.0,1.8991,0.0,1.9955,2.1017,2.2797,2.178,0.0,2.4734,2.334,0.0,0.0,0.0,0.0,0.0,0.0,1.8263,0.0,0.0,0.0,0.0,0.0,2.1652,2.5114,2.696,2.9285,0.0,0.0,2.9871,0.0,0.0,3.1025,3.1795,0.0,3.1809,3.1975,3.1043,3.1061,3.1209,2.9882,2.8866,2.8197,2.8197,2.7765,2.7281,2.7281,2.8084,0.0,2.7767,2.6257,0.0,2.4647,0.0,0.0,0.0,0.0,0.0,0.0,0.0,0.0,0.0,0.0,0.0,0.0,1.4573,0.0,0.0,0.0,0.0,0.0,0.0,0.0,0.0,0.0,0.0,0.0,0.0,1.5398,1.5398,1.5678,1.5832,1.5832,1.5832,1.5832,1.5832,1.5832,1.5832,1.5832,1.5832,1.5832,1.5832,1.5832,1.5832,1.5832,1.5832,1.5832,1.5858,1.6159,1.6333,1.646,1.6754,1.7048,1.7328,1.8359,1.8008,0.0,0.0,1.8173,0.0,0.0,0.0,2.1066,0.0,2.1486,2.0042,1.9832,1.8302,1.7622,1.8488,1.8583,1.9841,2.2724,2.0846,0.0,0.0,2.2458,2.1518,2.3718,0.0,0.0,0.0,0.0,0.0,0.0,0.0,0.0,0.0,2.061,0.0,2.5128,2.8015,2.9681,3.0271,2.9059,2.9723,3.126,2.9344,3.0234,3.2422,3.1764,3.1482,3.1482,3.1482,3.097,3.0329,3.0329,2.9192,2.7802,2.7802,2.7562,2.7352,2.7281,2.8059,2.8525,2.6995,0.0,0.0,0.0,0.0,2.126,0.0,0.0,0.0,0.0,0.0,0.0,0.0,0.0,0.0,0.0,0.0,0.0,0.0,0.0,1.4389,1.4115,0.0,0.0,0.0,0.0,0.0,0.0,0.0,1.5364,1.5398,1.5651,1.5798,1.5832,1.5812,1.5812,1.5832,1.5832,1.5832,1.5832,1.5832,1.5832,1.5832,1.5832,1.5838,1.5852,1.5852,1.5858,1.5905,1.6199,1.6493,1.678,1.7068,1.7355,1.7602,1.926,1.8462,1.8202,0.0,2.0243,2.1048,0.0,0.0,0.0,0.0,2.2088,2.1716,2.0487,2.0258,1.9866,1.9151,1.9353,0.0,0.0,0.0,0.0,2.7965,2.7176,2.5935,2.4406,2.3772,0.0,2.2905,0.0,0.0,2.2685,0.0,0.0,0.0,0.0,2.4715,2.7633,2.985,3.0931,3.0982,2.9132,2.9283,0.0,0.0,3.0234,3.2422,3.1764,3.1482,3.1482,3.1482,3.1351,3.1219,3.1219,3.0464,2.9504,2.8876,2.8452,2.8045,2.7468,2.7795,2.8139,2.7292,2.6147,2.5014,0.0,0.0,0.0,0.0,0.0,0.0,0.0,0.0,0.0,0.0,0.0,0.0,0.0,0.0,0.0,1.4088,0.0,0.0,0.0,0.0,0.0,0.0,0.0,0.0,0.0,0.0,0.0,1.5384,1.5257,1.5391,1.5825,1.5618,1.5618,1.5832,1.5832,1.5832,1.5832,1.5832,1.5832,1.5832,1.5832,1.5952,1.6159,1.6159,1.6286,1.6506,1.6807,1.7101,1.7368,1.7442,1.7662,1.7929,1.9647,1.8911,0.0,1.9233,0.0,0.0,2.257,2.4002,0.0,2.3766,2.3182,0.0,2.1302,2.1201,2.1007,2.0491,1.993,0.0,2.4507,0.0,0.0,2.8412,2.7717,2.6382,2.4482,2.5004,0.0,2.4548,0.0,0.0,2.4455,2.2101,0.0,0.0,0.0,2.6161,2.8553,3.0602,3.1601,3.1672,2.9688,0.0,0.0,2.9479,3.0308,3.2033,3.1616,3.1482,3.1482,3.1482,3.1482,3.1482,3.1482,3.0703,2.9628,2.9129,2.8331,2.7559,2.7044,2.7318,2.7578,2.6863,2.5974,2.5068,2.4381,2.3274,2.2432,0.0,0.0,0.0,0.0,0.0,0.0,0.0,0.0,0.0,0.0,0.0,0.0,0.0,1.4202,0.0,0.0,0.0,0.0,0.0,0.0,0.0,0.0,0.0,0.0,1.5003,1.5231,1.5378,1.5451,1.5418,1.5478,1.5645,1.5645,1.5705,1.5832,1.5832,1.5832,1.5838,1.5965,1.6119,1.6286,1.6413,1.656,1.6734,1.7034,1.7408,1.7782,1.7782,1.7896,1.8063,1.9911,1.9497,0.0,0.0,0.0,0.0,0.0,2.6033,0.0,2.6119,0.0,2.2772,2.1765,2.1418,2.1489,2.191,0.0,2.1428,2.5467,2.2677,2.3072,2.8024,2.6539,2.5301,2.4814,2.5619,2.6299,0.0,0.0,0.0,0.0,2.3194,2.2284,0.0,0.0,0.0,0.0,3.0718,3.1797,3.2229,3.0602,3.05,3.1233,3.0309,3.0616,3.1482,3.1482,3.1482,3.1482,3.1482,3.1482,3.1482,3.1482,3.045,2.9129,2.9002,2.7855,2.6658,2.6521,2.6734,2.6742,2.5815,2.5421,2.4993,2.4166,2.3438,2.3076,2.3125,2.3135,2.292,0.0,0.0,0.0,0.0,0.0,0.0,0.0,0.0,0.0,0.0,0.0,0.0,0.0,0.0,0.0,0.0,0.0,0.0,0.0,0.0,0.0,1.4529,1.5257,1.5451,1.5023,0.0,1.5398,1.5511,1.5431,1.5545,1.5832,1.5872,1.5885,1.5905,1.6199,1.6353,1.6406,1.666,1.6787,1.6854,1.7148,1.7589,1.8056,1.8136,1.8163,1.8196,2.0797,0.0,0.0,0.0,0.0,2.622,2.8417,3.0184,2.9614,2.4786,2.4534,2.3599,2.0592,2.1247,2.1748,2.1523,2.1977,0.0,0.0,0.0,0.0,2.865,2.8,2.7754,2.8038,2.7418,2.7923,0.0,0.0,0.0,0.0,0.0,0.0,0.0,0.0,0.0,3.1753,3.1436,0.0,3.162,3.1724,3.129,3.0687,3.1619,3.1781,3.1482,3.1482,3.1482,3.1482,3.1482,3.1482,3.1482,3.1482,3.0837,2.995,2.9192,2.8298,2.7351,2.6658,2.5947,2.5242,2.4614,2.3853,2.3171,2.2828,2.2729,2.2725,2.3066,2.3135,2.3096,2.2949,0.0,0.0,0.0,0.0,0.0,0.0,0.0,0.0,0.0,0.0,1.4402,0.0,0.0,0.0,0.0,0.0,0.0,0.0,0.0,0.0,0.0,1.4669,0.0,0.0,0.0,1.5404,1.6112,1.5625,1.5545,1.5838,1.6086,1.6192,1.6213,1.6506,1.6774,1.7001,1.7048,1.7215,1.7462,1.7769,1.7956,1.8103,1.8591,1.8771,1.8778,2.3654,0.0,0.0,0.0,0.0,0.0,0.0,3.0599,0.0,2.6174,2.5779,2.4929,2.2391,2.2489,2.2911,2.3262,2.3322,2.4186,2.6171,2.5816,2.6554,2.8787,2.8122,2.7434,2.6888,2.7126,2.7926,2.91,0.0,0.0,0.0,0.0,0.0,2.5935,0.0,3.0158,0.0,0.0,0.0,3.2547,3.3132,3.2617,3.1589,3.2646,3.2407,3.1482,3.1482,3.1482,3.1482,3.1482,3.1482,3.1409,3.1029,3.0329,2.9442,2.8556,2.7736,2.6973,2.6589,2.6164,2.5501,2.4186,2.3698,2.3158,2.2066,2.2197,2.2568,2.2773,2.2988,2.2892,2.2119,2.0716,0.0,0.0,0.0,0.0,0.0,0.0,0.0,0.0,0.0,0.0,0.0,0.0,0.0,0.0,0.0,1.4148,0.0,0.0,0.0,0.0,0.0,0.0,0.0,0.0,0.0,1.5818,1.5531,1.5631,1.6066,1.6206,1.6359,1.6513,1.6807,1.7014,1.7161,1.7315,1.7555,1.7842,1.7989,1.823,1.8537,1.8818,1.9018,1.9152,0.0,2.5335,0.0,0.0,2.709,0.0,2.7932,3.0147,3.0844,2.7722,2.6924,2.6024,2.4397,2.3965,2.4002,2.4483,2.4422,2.4802,2.5984,2.5798,2.6345,2.7866,2.7535,2.6797,2.5692,2.6638,2.7608,0.0,0.0,0.0,0.0,0.0,0.0,0.0,0.0,0.0,0.0,0.0,3.323,3.3754,3.4262,3.3769,3.2766,3.314,3.2557,3.1482,3.1482,3.1556,3.1676,3.1676,3.1528,3.1146,3.0524,2.9566,2.8583,2.8066,2.7253,2.6546,2.6672,2.6402,2.5721,2.3963,2.3594,2.3307,2.159,2.1758,2.2266,2.2353,2.2715,2.266,2.1603,2.1053,0.0,0.0,0.0,0.0,0.0,0.0,0.0,0.0,0.0,0.0,1.4957,0.0,0.0,0.0,0.0,1.4115,1.4175,1.4335,0.0,0.0,0.0,1.5064,1.4963,0.0,1.5337,0.0,1.5518,1.5765,1.6279,1.64,1.6587,1.6814,1.7114,1.7281,1.7361,1.7589,1.7862,1.8143,1.821,1.8517,1.8931,1.8991,1.9165,1.9366,0.0,0.0,0.0,0.0,0.0,0.0,3.1721,3.0764,2.9269,2.7649,2.6935,2.6012,2.445,2.4638,2.4377,2.3194,2.5011,2.5042,2.2336,2.5241,2.6441,2.4957,2.6429,2.746,2.7766,2.6997,2.788,0.0,0.0,0.0,0.0,0.0,0.0,0.0,0.0,0.0,0.0,3.3784,3.4322,3.4382,3.4442,3.4038,3.335,3.2811,3.2153,3.1482,3.1482,3.1913,3.2422,3.2422,3.1515,3.0389,3.0329,2.9192,2.7895,2.833,2.755,2.6634,2.7067,2.6171,2.4862,2.3745,2.2883,2.2064,2.1372,2.1299,2.1465,2.1865,2.2275,2.259,2.2834,2.1541,2.0537,0.0,0.0,0.0,0.0,0.0,0.0,0.0,0.0,0.0,0.0,1.5021,0.0,0.0,1.4088,1.4202,1.4469,1.4255,1.4128,1.4128,0.0,1.4449,1.4957,1.4723,1.5137,1.6186,1.5919,1.5959,1.6293,1.6827,1.7081,1.7121,1.7415,1.7702,1.7963,1.7989,1.8183,1.8477,1.8738,1.8878,1.8958,1.9225,1.9345,1.9366,0.0,0.0,0.0,0.0,0.0,0.0,0.0,3.1108,3.0764,2.9071,2.7533,2.6368,2.5652,2.4676,2.405,2.4074,2.4761,2.5025,2.4576,2.5104,2.5864,2.6655,2.6162,2.6451,2.7595,2.718,2.8248,0.0,0.0,0.0,0.0,0.0,0.0,0.0,0.0,3.3096,3.3724,3.4247,3.4711,3.5055,3.4637,3.4083,3.3348,3.2147,3.1885,3.2049,3.1514,3.2062,3.3035,3.2438,3.1874,3.1266,3.0743,2.9763,2.8681,2.837,2.764,2.7005,2.7218,2.6586,2.5511,2.3879,2.322,2.2531,2.1163,2.1045,2.1279,2.1455,2.2041,2.2646,2.3057,2.2496,2.1969,0.0,0.0,0.0,0.0,0.0,0.0,0.0,0.0,0.0,0.0,0.0,0.0,0.0,0.0,1.4135,1.4255,1.4315,0.0,1.4863,0.0,1.4977,1.5745,1.5451,1.5631,1.6273,1.6326,1.6513,1.6807,1.7041,1.7348,1.7695,1.7809,1.8036,1.831,1.831,1.8484,1.8764,1.8878,1.9032,1.9205,1.9325,1.9366,1.9366,3.7228,0.0,3.2672,0.0,3.3045,3.2587,3.0323,3.1471,3.178,2.9618,2.7858,2.6928,2.7191,2.5394,2.4306,2.4625,2.4548,2.4597,2.4825,2.4904,2.5479,2.6751,2.6042,0.0,2.7507,2.7792,2.8996,3.1195,2.8681,0.0,0.0,0.0,0.0,0.0,3.2776,3.3682,3.4487,3.4696,3.5055,3.5429,3.4547,3.3764,3.2948,3.1685,3.1562,3.2062,3.1642,3.2276,3.3254,3.2637,3.2151,3.1674,3.0705,2.9787,2.8951,2.8432,2.7959,2.7519,2.7519,2.7118,2.621,2.407,2.3514,2.2999,2.1011,2.081,2.1113,2.1367,2.1904,2.249,2.3037,2.3135,2.3047,2.2744,0.0,0.0,0.0,0.0,0.0,0.0,1.647,1.6843,1.8762,1.7368,0.0,0.0,0.0,1.4661,1.4335,0.0,0.0,0.0,0.0,0.0,0.0,1.5852,1.5939,1.64,1.67,1.6947,1.7154,1.7235,1.7562,1.805,1.805,1.8263,1.8617,1.8617,1.8791,1.9052,1.9052,1.9185,1.9366,1.9366,1.9366,1.9366,4.017,3.8783,3.77,3.77,3.6446,3.4463,3.1461,3.1889,3.1541,2.854,2.7724,2.7799,2.8762,2.6992,2.5362,2.4405,2.4711,2.3789,2.1062,2.4364,2.5692,0.0,0.0,2.7532,2.8084,2.897,3.0207,3.1626,0.0,0.0,3.2581,0.0,3.3397,3.3412,3.4801,3.51,3.4517,3.5205,3.5489,3.5385,3.4053,3.296,3.2133,3.1386,3.1113,3.1296,3.1896,3.2558,3.312,3.3054,3.225,3.1029,2.9821,2.8853,2.821,2.8762,2.8524,2.8097,2.8097,2.7695,2.6692,2.415,2.3514,2.2999,2.1011,2.0566,2.082,2.1699,2.1885,2.2148,2.2988,2.3135,2.3135,2.3135,0.0,0.0,0.0,0.0,0.0,0.0,1.5465,1.5568,1.8296,1.7227,0.0,0.0,0.0,0.0,0.0,0.0,0.0,1.495,1.4402,0.0,1.5818,1.5545,1.5838,1.6707,1.7001,1.725,1.7161,1.7442,1.7749,1.805,1.805,1.8377,1.8918,1.8918,1.9092,1.9366,1.9366,1.9366,1.9366,1.9366,1.9366,1.9366,3.6208,3.6847,3.7345,3.5949,3.5599,3.4707,3.2444,3.2358,3.1839,2.958,2.9172,2.9195,2.9515,2.7019,2.5504,0.0,2.3557,2.2982,0.0,2.3605,2.3813,2.6569,2.4894,2.4303,2.506,2.6961,2.8435,2.9533,0.0,0.0,0.0,3.3452,3.4,3.491,3.5311,3.5385,3.519,3.5415,3.5133,3.4389,3.3558,3.3093,3.268,3.1354,3.1969,3.3313,3.2293,3.2709,3.3536,3.226,3.1535,3.104,2.9995,2.9467,2.9289,2.9465,2.9114,2.8662,2.8662,2.773,2.6438,2.4873,2.3733,2.2587,2.1323,2.1025,2.1269,2.2139,2.2314,2.248,2.3037,2.3135,2.3047,2.2754,2.2814,0.0,0.0,0.0,0.0,0.0,1.6463,1.717,1.9878,1.8784,0.0,0.0,0.0,0.0,0.0,0.0,0.0,0.0,1.6747,0.0,1.672,1.644,1.6533,1.7014,1.7301,1.7555,1.7769,1.807,1.8364,1.8644,1.8644,1.8865,1.9225,1.9225,1.9279,1.9366,1.9366,1.9366,1.9366,1.9366,1.9366,1.9366,3.6118,3.6851,3.7319,3.5692,3.5178,3.4249,3.2277,3.2034,3.1389,2.9429,2.9528,2.9792,2.9792,2.8041,0.0,2.707,2.4603,2.4215,2.715,2.4918,2.5066,2.8469,2.6505,2.5913,2.7151,0.0,0.0,3.1501,3.4103,3.5326,3.5268,3.5136,3.544,3.5935,3.5649,3.5504,3.5504,3.5504,3.4905,3.3969,3.3711,3.2987,3.2053,3.1783,3.2217,3.2854,3.2318,3.2486,3.2749,3.1609,3.097,3.0558,2.9998,2.9792,2.9792,2.9792,2.9528,2.9126,2.8496,2.7569,2.6417,2.4792,2.3667,2.2687,2.1708,2.1475,2.167,2.2373,2.251,2.2646,2.3057,2.3271,2.3301,2.3037,2.3437,2.2948,2.0335,0.0,0.0,0.0,0.0,0.0,0.0,2.0192,2.0,0.0,0.0,0.0,0.0,0.0,0.0,1.7968,1.7908,0.0,1.7244,1.6967,1.7021,1.7315,1.7615,1.7916,1.8223,1.8404,1.8651,1.8925,1.8925,1.9092,1.9366,1.9366,1.9366,1.9366,1.9366,1.9366,1.9366,1.9366,1.9366,1.9366,3.8755,3.806,3.7424,0.0,3.507,0.0,3.1439,3.1186,3.0503,2.8495,2.9139,2.9792,2.9792,2.9792,2.9365,2.8335,0.0,0.0,0.0,2.7779,2.852,2.957,3.0077,3.1058,3.2651,3.4253,3.5596,3.664,3.8149,3.8525,3.7863,3.7764,3.7338,3.6554,3.5831,3.5504,3.5504,3.5439,3.4839,3.3901,3.4162,3.2748,3.0631,3.2302,3.1944,3.0698,3.2058,3.196,3.118,3.1106,3.0482,2.9792,2.9792,2.9792,2.9792,2.9792,2.9792,2.9422,2.7825,2.7281,2.6604,2.4084,2.3314,2.2991,2.2162,2.1934,2.2051,2.2471,2.2559,2.2676,2.3066,2.3467,2.375,2.3779,2.3789,2.3309,2.1989,0.0,0.0,0.0,0.0,0.0,0.0,2.1386,2.1478,0.0,0.0,0.0,0.0,0.0,1.9208,1.7968,1.8263,1.8054,1.7277,1.7201,1.7361,1.7649,1.7956,1.8257,1.8524,1.8544,1.8698,1.8951,1.8951,1.9112,1.9366,1.9366,1.9366,1.9366,1.9366,1.9366,1.9366,1.9366,1.9379,1.9399,0.0,0.0,3.635,3.4516,3.4118,3.3571,3.243,3.164,3.0729,2.9568,2.9628,2.9792,2.9792,2.9792,2.9702,2.9456,2.7085,2.6694,2.9028,2.789,2.8185,3.0718,3.0027,2.9795,3.0209,3.2478,3.548,3.9212,3.9016,3.8799,3.8635,3.7424,3.6783,3.6554,3.5831,3.5504,3.5439,3.4691,3.3808,3.2876,3.2228,3.1613,3.1056,3.1481,3.1829,3.2058,3.1629,3.1389,3.1106,3.0343,2.9998,2.9792,2.9792,2.9792,2.9792,2.9792,2.9792,2.9509,2.827,2.7347,2.6341,2.4817,2.3553,2.2587,2.2448,2.2363,2.248,2.291,2.2988,2.3018,2.3125,2.3223,2.3398,2.374,2.3789,2.2924,2.0585,2.0666,0.0,0.0,1.9129,2.051,2.0916,2.2362,2.3092,0.0,0.0,0.0,0.0,2.3813,2.2994,2.0346,2.0321,1.9491,1.7475,1.7716,1.7983,1.8277,1.8577,1.8751,1.8831,1.9058,1.9199,1.9265,1.9265,1.9299,1.9366,1.9366,1.9366,1.9366,1.9366,1.9366,1.9366,1.9366,1.9506,1.97,3.5348,3.5888,3.6153,3.4643,3.3862,3.3171,3.2664,3.1402,3.0343,2.9869,2.9792,2.9792,2.9792,2.9792,2.9792,2.9792,2.8374,2.824,3.0291,2.9438,3.0066,3.2877,3.2401,3.2564,3.3743,3.5117,3.7037,3.9542,3.9086,3.8564,3.7815,3.7008,3.6446,3.6054,3.5668,3.5504,3.5424,3.4394,3.3449,3.2522,3.2033,3.1328,3.062,3.1536,3.1609,3.1341,3.1254,3.0895,3.0482,3.0011,2.9792,2.9792,2.9792,2.9792,2.9792,2.9792,2.9443,2.8779,2.7695,2.6543,2.5473,2.4296,2.3371,2.2793,2.2793,2.2793,2.2861,2.3096,2.3135,2.3135,2.3135,2.3457,2.374,2.3779,2.3419,2.2435,2.0736,2.0297,0.0,1.8758,2.0158,2.1465,2.2152,2.3313,2.3984,2.375,0.0,0.0,2.4668,2.5352,2.4613,2.2266,2.2593,2.164,1.9028,1.8476,1.8397,1.8691,1.8844,1.8991,1.9132,1.9292,1.9366,1.9366,1.9366,1.9366,1.9366,1.9366,1.9366,1.9366,1.9366,1.9366,1.9379,1.9512,1.9659,1.982,3.7748,3.698,3.6228,3.5619,3.3905,3.2593,3.2593,3.0996,2.9792,2.9792,2.9792,2.9792,2.9792,2.9934,2.9921,2.9792,3.0075,3.0495,3.118,3.1462,3.2666,3.5111,3.5446,3.6627,3.8854,3.8908,3.8908,3.8908,3.8674,3.7873,3.6615,3.6508,3.6117,3.5504,3.5504,3.5504,3.5424,3.4259,3.331,3.2607,3.2321,3.1193,3.0011,3.1549,3.1206,2.9946,3.0786,3.0623,2.9917,2.9917,2.9967,3.0005,2.9842,2.9854,2.9892,2.9636,2.8779,2.7683,2.6719,2.5557,2.4296,2.3299,2.3135,2.3135,2.3135,2.3135,2.3135,2.3135,2.3135,2.3154,2.3223,2.3828,2.4137,2.3654,2.2756,2.1907,2.1284,0.0,1.9497,2.0848,2.1273,2.2073,2.3719,2.4441,2.4697,2.4512,2.51,2.5543,0.0,2.5957,2.5503,2.4372,2.4548,2.3296,2.0463,1.9195,1.8698,1.8991,1.8991,1.9125,1.9366,1.9366,1.9366,1.9366,1.9366,1.9366,1.9366,1.9366,1.9366,1.9366,1.9366,1.9366,1.9406,1.9693,1.9826,1.9907,3.6964,3.6165,3.5604,3.5504,3.3905,3.2593,3.2593,3.0996,2.9792,2.9792,2.9792,2.9792,2.9792,3.0482,3.0696,2.9869,3.1267,3.1888,3.1254,3.2664,3.4023,3.5111,3.6628,3.7873,3.8854,3.8908,3.8908,3.8908,3.7584,3.6828,3.6615,3.5943,3.5619,3.5504,3.5504,3.5504,3.5359,3.3616,3.2749,3.2464,3.0846,3.0075,2.9869,3.0139,3.0075,2.9854,3.0464,3.0628,3.0482,3.0482,3.0783,3.0984,3.008,3.0118,3.0223,2.8809,2.7614,2.6719,2.6565,2.4978,2.3299,2.3135,2.3135,2.3135,2.3135,2.3135,2.3135,2.3135,2.3135,2.3252,2.3623,2.3799,2.3611,2.2945,2.2144,2.1221,2.0141,0.0,2.0779,2.1371,2.2843,2.3977,2.4307,2.5604,2.6053,2.5055,2.6388,2.6941,2.6359,2.6973,2.726,2.7043,2.4447,2.1821,1.9176,1.8964,1.9005,1.9299,1.9299,1.9325,1.9366,1.9366,1.9366,1.9366,1.9366,1.9366,1.9366,1.9366,1.9366,1.9366,1.9366,1.9366,1.9406,1.9693,1.9953,2.0207,3.6737,3.6006,3.5359,3.4773,3.3533,3.2464,3.1888,3.0709,2.9792,2.9792,2.9792,2.9792,2.9792,3.0216,3.0623,3.1086,3.2017,3.2803,3.3207,3.3717,3.4773,3.6507,3.735,3.8149,3.8908,3.8908,3.8509,3.7642,3.6948,3.6384,3.6006,3.5668,3.5504,3.5504,3.5504,3.5213,3.461,3.3185,3.2321,3.1756,3.0355,2.9792,2.9792,2.9792,2.998,3.0269,3.052,3.0796,3.1035,3.1035,3.1198,3.1298,3.0809,3.0406,2.9876,2.9094,2.7375,2.5473,2.4808,2.4068,2.3437,2.3193,2.3486,2.3769,2.3545,2.3486,2.3555,2.3779,2.3652,2.3623,2.4053,2.4316,2.4278,2.3663,2.2594,0.0,0.0,2.098,2.1298,2.1489,2.3243,2.4779,2.5645,2.6495,2.7178,2.7757,2.7915,2.798,2.8207,2.7845,2.7439,2.6877,2.4507,2.2308,2.0366,1.9603,1.9232,1.9366,1.9366,1.9366,1.9366,1.9366,1.9366,1.9366,1.9366,1.9366,1.9366,1.9366,1.9366,1.9366,1.9366,1.9459,1.9633,1.9927,2.0221,2.0514,3.6708,3.6001,3.5258,3.4365,3.3339,3.2321,3.1315,3.0419,2.9792,2.9792,2.9792,2.9842,2.9967,3.0407,3.1137,3.2312,3.3239,3.4157,3.515,3.5117,3.5868,3.7706,3.8139,3.8424,3.8635,3.8616,3.7918,3.6615,3.6446,3.6054,3.5504,3.5504,3.5504,3.5504,3.5504,3.492,3.3945,3.3031,3.2114,3.1303,3.033,3.0055,3.0168,3.0168,3.0432,3.0809,3.0947,3.1248,3.1587,3.1587,3.1675,3.1738,3.1474,3.0695,2.9735,2.935,2.7037,2.4528,2.3595,2.3682,2.3857,2.3516,2.3926,2.4336,2.4004,2.3935,2.4033,2.4346,2.416,2.4062,2.4492,2.4844,2.4857,2.4236,0.0,0.0,0.0,2.1707,2.1816,2.2279,2.3866,2.5593,2.7066,2.7757,2.8648,2.9869,2.9375,2.9088,2.9218,2.8361,2.7178,2.559,2.4044,2.2597,2.1145,1.9924,1.9366,1.9366,1.9366,1.9366,1.9366,1.9366,1.9406,1.9466,1.9399,1.9446,1.9559,1.9499,1.9506,1.9559,1.9492,1.9646,1.9927,2.0147,2.0421,2.0722,3.6516,3.5974,3.5391,3.5013,3.3621,3.2321,3.1315,3.0419,2.9792,2.9792,2.9792,2.9993,3.0507,3.2213,3.3254,3.2972,3.5438,3.6758,3.5984,3.7436,3.8185,3.7812,3.9048,3.9153,3.7937,3.7773,3.7359,3.6615,3.5894,3.5554,3.5504,3.5504,3.5504,3.5504,3.5504,3.492,3.3945,3.3031,3.2345,3.1832,3.0915,3.0846,3.1273,3.1273,3.1298,3.1399,3.1913,3.2127,3.2152,3.2152,3.2503,3.2767,3.1712,3.0952,3.0024,2.8498,2.6298,2.4408,2.4316,2.4346,2.4365,2.4326,2.4365,2.4414,2.4375,2.4375,2.4375,2.4414,2.4394,2.4502,2.4941,2.5049,2.4764,2.3561,0.0,0.0,2.2523,2.2308,2.2815,2.4636,2.5981,2.7097,2.8178,3.0326,3.1019,2.9242,3.0461,3.0256,2.7959,2.8143,2.6915,2.4044,2.2476,2.1031,1.9591,1.9482,1.9366,1.9366,1.9366,1.9366,1.9366,1.9366,1.9512,1.9753,1.9486,1.9673,2.0147,1.988,1.9927,2.014,1.9873,1.9947,2.0201,2.0227,2.0421,2.0722,3.5999,3.5488,3.4871,3.4128,3.332,3.2389,3.1434,3.0998,3.0783,3.0783,3.0783,3.1086,3.1992,3.276,3.3819,3.5334,3.6158,3.6814,3.7452,3.8248,3.8811,3.9058,3.958,3.915,3.7682,3.7623,3.7061,3.5958,3.6024,3.5908,3.5519,3.5923,3.5893,3.5504,3.5504,3.4624,3.3129,3.3137,3.2367,3.1148,3.1107,3.1223,3.1386,3.1386,3.1599,3.1926,3.2139,3.2654,3.3257,3.3257,3.3069,3.2738,3.2086,3.0531,2.8746,2.7004,2.6069,2.5586,2.5312,2.5029,2.4756,2.4482,2.4834,2.5166,2.4883,2.4814,2.4893,2.5176,2.5019,2.5039,2.5752,2.5889,2.5781,2.528,0.0,2.445,2.4174,2.4097,2.4584,2.6022,2.7212,2.8537,3.0498,3.1855,3.2347,3.1871,3.1589,3.0852,2.9341,2.7815,2.5936,2.3822,2.2371,2.0923,1.9366,1.9546,1.9633,1.9633,1.9633,1.9633,1.9633,1.9633,1.9693,1.9806,1.9873,2.0034,2.0227,2.0114,2.0134,2.0221,2.0107,2.0247,2.0508,2.0508,2.0695,2.0962,3.619,3.559,3.4996,3.4205,3.3369,3.2449,3.1536,3.1386,3.1386,3.1386,3.1699,3.2233,3.3186,3.3813,3.5045,3.7063,3.7157,3.7546,3.8605,3.8812,3.906,3.9486,3.9629,3.9045,3.7594,3.7728,3.7284,3.6103,3.6552,3.6552,3.6118,3.6567,3.6537,3.6103,3.5755,3.4715,3.3201,3.3172,3.2434,3.1148,3.1499,3.1863,3.2177,3.2177,3.2516,3.3006,3.3006,3.3495,3.4072,3.3677,3.3162,3.2534,3.1902,3.0181,2.8125,2.6596,2.6348,2.6514,2.6221,2.5918,2.5537,2.4971,2.5391,2.583,2.5381,2.5381,2.5527,2.5703,2.5703,2.5781,2.6123,2.6299,2.6338,2.6201,2.5937,2.5722,2.5864,2.6039,2.6584,2.7772,2.9045,3.0544,3.2414,3.2933,3.3066,3.308,3.1926,3.0675,2.9692,2.7785,2.5881,2.3995,2.298,2.1573,1.9639,1.9746,1.9846,1.994,1.994,1.994,1.994,1.994,1.9987,2.008,2.0187,2.0341,2.0501,2.0408,2.0428,2.0501,2.0408,2.0555,2.0802,2.0708,2.0862,2.1109,3.7285,3.6611,3.578,3.5475,3.3998,3.2462,3.1549,3.1399,3.1399,3.1399,3.2341,3.3251,3.378,3.5725,3.724,3.7785,3.8782,3.9424,3.9424,3.9424,3.9149,3.8639,3.9226,3.8938,3.7434,3.8063,3.8063,3.7404,3.7419,3.7419,3.7404,3.7419,3.7419,3.7336,3.6314,3.5334,3.4327,3.3285,3.2546,3.2227,3.2227,3.2905,3.3909,3.3909,3.4248,3.4726,3.4726,3.4726,3.4532,3.3188,3.2711,3.2418,3.1067,2.9808,2.8545,2.7298,2.7012,2.7021,2.7012,2.7021,2.6816,2.5967,2.6074,2.6279,2.585,2.6084,2.6269,2.584,2.6426,2.6758,2.5908,2.6103,2.626,2.582,2.5752,2.6217,2.741,2.8084,2.8839,3.0052,3.1833,3.3112,3.3637,3.3589,3.32,3.2398,3.1019,2.9713,2.8398,2.8301,2.7029,2.4367,2.4261,2.2937,2.0234,1.9953,1.9953,2.0234,2.0234,2.0234,2.0234,2.0234,2.0394,2.0661,2.0368,2.0568,2.1089,2.0802,2.0848,2.1082,2.0795,2.0855,2.1076,2.0782,2.0862,2.1109,3.7375,3.636,3.5453,3.5314,3.4071,3.2891,3.2651,3.32,3.3436,3.2735,3.3869,3.4979,3.541,3.6415,3.755,3.8811,3.9192,3.9424,3.9424,3.9424,3.9301,3.9164,3.9345,3.9063,3.8108,3.8287,3.8063,3.7404,3.7868,3.7853,3.7419,3.7883,3.7853,3.7336,3.6314,3.5334,3.4355,3.3739,3.3165,3.2855,3.3244,3.3822,3.4474,3.4474,3.4575,3.4726,3.4726,3.4964,3.5014,3.3729,3.2893,3.1937,2.944,2.8137,2.7491,2.7114,2.7236,2.7363,2.6846,2.7295,2.7705,2.6846,2.6728,2.6787,2.666,2.6728,2.6787,2.666,2.6836,2.7031,2.708,2.7197,2.7246,2.7109,2.7864,2.8524,2.8586,2.9516,3.0662,3.1903,3.2936,3.3517,3.3565,3.3922,3.3192,3.1019,2.9608,2.8827,2.8721,2.873,2.7447,2.4845,2.4738,2.3402,2.0541,2.0454,2.0454,2.0541,2.0541,2.0541,2.0541,2.0541,2.0595,2.0681,2.0795,2.0949,2.1102,2.1015,2.1029,2.1102,2.1015,2.1036,2.1096,2.1009,2.1036,2.1109,3.726,3.6333,3.5531,3.5165,3.3957,3.3081,3.3081,3.4218,3.4853,3.4203,3.5915,3.7276,3.7611,3.8104,3.8876,4.0129,4.0187,4.0187,4.0187,4.0187,4.0187,4.0187,4.0187,3.9753,3.8811,3.8796,3.8736,3.8601,3.899,3.911,3.899,3.9125,3.8746,3.7899,3.6828,3.5816,3.483,3.4337,3.3986,3.3759,3.4085,3.4562,3.5052,3.5052,3.5177,3.5366,3.5366,3.5579,3.5575,3.3681,3.1984,3.0369,2.8495,2.7734,2.7519,2.7519,2.7715,2.7822,2.7373,2.7764,2.8174,2.7646,2.7393,2.7226,2.7051,2.7148,2.7217,2.7051,2.7285,2.75,2.7422,2.7549,2.7607,2.7432,2.8594,2.9468,2.9764,3.1043,3.2534,3.3793,3.4454,3.4485,3.3898,3.3684,3.2521,2.9959,2.9112,2.8799,2.916,2.8471,2.7164,2.5101,2.441,2.3044,2.0848,2.0848,2.0848,2.0848,2.0848,2.0848,2.0848,2.0848,2.0848,2.0855,2.1036,2.1109,2.1109,2.1109,2.1109,2.1109,2.1109,2.1109,2.1109,2.1109,2.1109,2.1109,3.7083,3.6521,3.5894,3.4897,3.3869,3.324,3.324,3.4757,3.5858,3.5774,3.8126,3.9852,3.9809,4.0165,4.0711,4.1324,4.1384,4.1384,4.1384,4.1384,4.1384,4.1384,4.1384,4.0816,3.9619,3.9589,3.9858,4.0397,4.0457,4.0786,4.1369,4.0771,3.9994,3.902,3.7718,3.6661,3.5725,3.5009,3.4751,3.4801,3.4801,3.5127,3.5617,3.5617,3.5931,3.6358,3.6358,3.6358,3.5763,3.3032,3.0421,2.8291,2.8291,2.832,2.834,2.8301,2.832,2.834,2.8301,2.8291,2.8291,2.8291,2.8008,2.7617,2.7217,2.7441,2.7607,2.7217,2.7754,2.8057,2.7275,2.7461,2.7692,2.7383,2.8389,2.9751,3.102,3.2768,3.435,3.5419,3.6056,3.5883,3.4445,3.2958,3.1216,2.9124,2.9101,2.9326,2.96,2.787,2.642,2.5353,2.3831,2.2414,2.1109,2.1109,2.1109,2.1109,2.1109,2.1109,2.1109,2.1109,2.1109,2.1109,2.1109,2.1109,2.1109,2.1109,2.1109,2.1109,2.1109,2.1109,2.1109,2.1109,2.1109,2.1109,3.7777,3.6845,3.5894,3.4897,3.4511,3.4345,3.4345,3.6523,3.7793,3.6988,3.8912,4.0262,3.9852,4.0285,4.0768,4.1323,4.1384,4.1384,4.1384,4.1384,4.1384,4.1384,4.1384,4.125,4.0965,4.095,4.0771,4.0397,4.092,4.125,4.1384,4.1235,4.1084,4.0751,3.8795,3.7731,3.7397,3.5517,3.4964,3.5366,3.5366,3.5692,3.6182,3.6182,3.6257,3.6358,3.6358,3.5763,3.4374,3.1633,2.9608,2.8291,2.8291,2.8525,2.8721,2.8389,2.8525,2.8711,2.8389,2.8291,2.8291,2.8291,2.8223,2.8135,2.8037,2.8096,2.8135,2.8037,2.8164,2.8232,2.8047,2.8096,2.8529,2.9435,3.0718,3.2017,3.3445,3.4919,3.5886,3.6182,3.6282,3.5622,3.3503,3.1391,2.9869,2.9231,2.9346,2.9609,2.9902,2.8418,2.7108,2.5852,2.4308,2.2637,2.1109,2.1109,2.1109,2.1109,2.1109,2.1109,2.1109,2.1109,2.1109,2.1109,2.1109,2.1109,2.1109,2.1109,2.1109,2.1109,2.1109,2.1109,2.1109,2.1109,2.1109,2.1109,3.7252,3.6604,3.599,3.5256,3.5557,3.5967,3.6333,3.7784,3.8922,3.8922,4.0167,4.1146,4.1418,4.1483,4.1538,4.1878,4.2132,4.2312,4.2312,4.2312,4.2312,4.2312,4.2312,4.2162,4.1848,4.2147,4.1983,4.1324,4.1683,4.2013,4.2297,4.1998,4.134,4.0161,3.9005,3.7912,3.6753,3.5914,3.5667,3.5931,3.5931,3.6107,3.6358,3.6358,3.6358,3.6358,3.5667,3.4154,3.2252,3.0824,2.9408,2.833,2.8525,2.874,2.8945,2.9082,2.8877,2.8662,2.8848,2.8603,2.8359,2.8643,2.8496,2.8291,2.8291,2.8291,2.8291,2.8291,2.8291,2.8291,2.8291,2.8291,2.8698,3.011,3.1429,3.2744,3.4178,3.5793,3.6455,3.55,3.5684,3.4825,3.2334,3.0717,2.9746,2.9668,2.999,3.0264,3.042,2.773,2.6156,2.5968,2.3675,2.1971,2.1109,2.1109,2.1109,2.1109,2.1109,2.1109,2.1109,2.1109,2.1109,2.1109,2.1109,2.1109,2.1109,2.1109,2.1109,2.1109,2.1109,2.1109,2.1109,2.1109,2.1109,2.1109,3.6682,3.6452,3.6289,3.5918,3.6839,3.7794,3.8391,3.9061,3.9966,4.0908,4.1541,4.229,4.317,4.2851,4.2521,4.2521,4.3015,4.3329,4.3329,4.3329,4.3329,4.3329,4.3329,4.309,4.2536,4.3045,4.3015,4.2357,4.2476,4.2806,4.3314,4.2604,4.1229,3.9438,3.8941,3.7736,3.597,3.6251,3.6358,3.6358,3.6358,3.6358,3.6358,3.6358,3.6263,3.587,3.4775,3.2711,3.0329,3.013,2.9369,2.8574,2.8926,2.9082,2.9248,2.9785,2.9316,2.8769,2.9453,2.9092,2.8643,2.918,2.8906,2.8516,2.8516,2.8398,2.831,2.8389,2.8398,2.8398,2.8398,2.8613,2.9222,3.0537,3.1947,3.3304,3.4832,3.6333,3.6651,3.4892,3.4675,3.3719,3.1455,3.0621,3.0205,3.0303,3.0674,3.0889,3.0889,2.697,2.5138,2.5976,2.282,2.1109,2.1109,2.1109,2.1109,2.1109,2.1109,2.1109,2.1109,2.1109,2.1109,2.1109,2.1109,2.1109,2.1109,2.1109,2.1109,2.1109,2.1109,2.1109,2.1109,2.1109,2.1109,2.1109,3.7587,3.7302,3.7054,3.6974,3.8323,3.9441,3.9541,4.0915,4.2015,4.2186,4.2674,4.3155,4.325,4.3254,4.321,4.321,4.3284,4.3329,4.3329,4.3329,4.3329,4.3329,4.3329,4.3284,4.321,4.3284,4.3015,4.2357,4.2925,4.324,4.325,4.2202,4.154,4.1124,3.9122,3.8079,3.7652,3.6764,3.6358,3.6358,3.6358,3.6358,3.6358,3.6358,3.5667,3.4678,3.4483,3.2938,3.0714,2.9459,2.9192,2.9404,2.9463,2.9726,2.9971,2.9707,2.9775,2.9941,2.9951,2.9687,2.9482,2.9814,2.9648,2.9394,2.9394,2.8828,2.8398,2.876,2.8838,2.8838,2.8838,2.9773,3.1127,3.2579,3.3899,3.5481,3.7295,3.7741,3.7345,3.5819,3.3821,3.2494,3.2065,3.1241,3.0781,3.0801,3.0859,3.0889,3.0889,2.7692,2.5855,2.5976,2.282,2.1109,2.1109,2.1109,2.1109,2.1109,2.1109,2.1109,2.1109,2.1109,2.1109,2.1109,2.1109,2.1109,2.1109,2.1109,2.1109,2.1109,2.1109,2.1109,2.1109,2.1109,2.1109,2.1109,3.7557,3.813,3.8748,3.9183,4.03,4.1376,4.173,4.1865,4.2202,4.2817,4.2547,4.2548,4.325,4.3329,4.3329,4.3329,4.3329,4.3329,4.3329,4.3329,4.3329,4.3329,4.3329,4.3329,4.3329,4.3329,4.3374,4.3449,4.3374,4.3329,4.325,4.2111,4.1253,4.0575,3.8903,3.7756,3.715,3.6628,3.6358,3.6358,3.6358,3.6358,3.6395,3.6709,3.6014,3.4539,3.3276,3.1571,2.9796,2.941,2.9414,2.9609,2.9844,3.0049,3.0215,3.0283,3.0439,3.0576,3.0518,3.0166,2.9863,3.0068,2.9844,2.957,2.957,2.9277,2.9062,2.9248,2.9277,2.9238,2.9082,3.0343,3.2072,3.3765,3.5016,3.615,3.7767,3.754,3.6439,3.4213,3.2185,3.0983,3.1053,3.0942,3.0889,3.0889,3.0889,3.0889,3.0889,2.7811,2.5976,2.5976,2.282,2.1109,2.1109,2.1109,2.1109,2.1109,2.1109,2.1109,2.1109,2.1109,2.1109,2.1109,2.1109,2.1109,2.1109,2.1109,2.1109,2.1109,2.1109,2.1109,2.1109,2.1109,2.1109,2.1109]}]]